[[{"header":{"parameterUnit":"m.s-1","parameterCategory":1,"la1":30.6,"la2":29.2853,"lo1":-89.7004,"lo2":-87.6739,"dy":0.0162,"dx":0.0183,"nx":112,"ny":82,"refTime":"2023-09-17T00:00:00:Z","depth":0,"parameterNumber":2,"parameterNumberName":"U-component_of_WINDS"},"data":[0.0,0.0,0.0,0.0,0.0,0.0,0.0,0.0,0.0,0.0,0.0,0.0,0.0,0.0,0.0,0.0,0.0,0.0,0.0,0.0,0.0,0.0,0.0,0.0,0.0,0.0,0.0,0.0,0.0,0.0,0.0,0.0,0.0,0.0,0.0,0.0,0.0,0.0,0.0,0.0,0.0,0.0,0.0,0.0,0.0,0.0,0.0,0.0,0.0,0.0,0.0,0.0,0.0,0.0,0.0,0.0,0.0,0.0,0.0,0.0,0.0,0.0,0.0,0.0,0.0,0.0,0.0,0.0,0.0,0.0,0.0,0.0,0.0,0.0,0.0,0.0,0.0,0.0,0.0,0.0,0.0,0.0,0.0,0.0,0.0,0.0,0.0,0.0,0.0,0.0,0.0,-0.461,-0.6366,-0.7471,-0.7524,-0.8131,-0.8832,-0.9579,0.0,0.0,0.0,0.0,0.0,0.0,0.0,0.0,0.0,0.0,0.0,0.0,0.0,0.0,0.0,0.0,0.0,0.0,0.0,0.0,0.0,0.0,0.0,0.0,0.0,0.0,0.0,0.0,0.0,0.0,0.0,0.0,0.0,0.0,0.0,0.0,0.0,0.0,0.0,0.0,0.0,0.0,0.0,0.0,0.0,0.0,0.0,0.0,0.0,0.0,0.0,0.0,0.0,0.0,0.0,0.0,0.0,0.0,0.0,0.0,0.0,0.0,0.0,0.0,0.0,0.0,0.0,0.0,0.0,0.0,0.0,0.0,0.0,0.0,0.0,0.0,0.0,0.0,0.0,0.0,0.0,0.0,0.0,0.0,0.0,0.0,0.0,0.0,0.0,0.0,0.0,0.0,0.0,0.0,0.0,0.0,0.0,0.0,0.0,0.0,0.0,0.0,0.0,0.0,-0.7495,-0.8026,-0.8361,-0.8627,-0.8882,-0.8985,-0.9232,-0.9579,0.0,0.0,0.0,0.0,0.0,0.0,0.0,0.0,0.0,0.0,0.0,0.0,0.0,0.0,0.0,0.0,0.0,0.0,0.0,0.0,0.0,0.0,0.0,0.0,0.0,0.0,0.0,0.0,0.0,0.0,0.0,0.0,0.0,0.0,0.0,0.0,0.0,0.0,0.0,0.0,0.0,0.0,0.0,0.0,0.0,0.0,0.0,0.0,0.0,0.0,0.0,0.0,0.0,0.0,0.0,0.0,0.0,0.0,0.0,0.0,0.0,0.0,0.0,0.0,0.0,0.0,0.0,0.0,0.0,0.0,0.0,0.0,0.0,0.0,0.0,0.0,0.0,0.0,0.0,0.0,0.0,0.0,0.0,0.0,0.0,0.0,0.0,0.0,0.0,0.0,0.0,0.0,0.0,0.0,0.0,0.0,0.0,0.0,0.0,0.0,0.0,0.0,0.0,-0.7302,-0.7809,-0.772,-0.8478,-0.9031,-0.8981,-0.9133,-0.9236,-0.9385,-0.9034,0.0,0.0,0.0,0.0,0.0,0.0,0.0,0.0,0.0,0.0,0.0,0.0,0.0,0.0,0.0,0.0,0.0,0.0,0.0,0.0,0.0,0.0,0.0,0.0,0.0,0.0,0.0,0.0,0.0,0.0,0.0,0.0,0.0,0.0,0.0,0.0,0.0,0.0,0.0,0.0,0.0,0.0,0.0,0.0,0.0,0.0,0.0,0.0,0.0,0.0,0.0,0.0,0.0,0.0,0.0,0.0,0.0,0.0,0.0,0.0,0.0,0.0,0.0,0.0,0.0,0.0,0.0,0.0,0.0,0.0,0.0,0.0,0.0,0.0,0.0,0.0,0.0,0.0,0.0,0.0,0.0,0.0,0.0,0.0,0.0,0.0,0.0,0.0,0.0,0.0,0.0,0.0,0.0,0.0,0.0,0.0,0.0,0.0,0.0,0.0,0.0,0.0,-0.7086,-0.7531,-0.7132,-0.8184,-0.8882,-0.8825,-0.8981,-0.9133,-0.9187,-0.9236,0.0,0.0,0.0,0.0,0.0,0.0,0.0,0.0,0.0,0.0,0.0,0.0,0.0,0.0,0.0,0.0,0.0,0.0,0.0,0.0,0.0,0.0,0.0,0.0,0.0,0.0,0.0,0.0,0.0,0.0,0.0,0.0,0.0,0.0,0.0,0.0,0.0,0.0,0.0,0.0,0.0,0.0,0.0,0.0,0.0,0.0,0.0,0.0,0.0,0.0,0.0,0.0,0.0,0.0,0.0,0.0,0.0,0.0,0.0,0.0,0.0,0.0,0.0,0.0,0.0,0.0,0.0,0.0,0.0,0.0,0.0,0.0,0.0,0.0,0.0,0.0,0.0,0.0,0.0,0.0,0.0,0.0,0.0,0.0,0.0,0.0,0.0,0.0,0.0,0.0,0.0,0.0,0.0,0.0,0.0,0.0,0.0,0.0,0.0,0.0,0.0,0.0,-0.7889,-0.7939,-0.7939,-0.8038,-0.8287,-0.8775,-0.8825,-0.8928,-0.9187,-0.943,0.0,0.0,0.0,0.0,0.0,0.0,0.0,0.0,0.0,0.0,0.0,0.0,0.0,0.0,0.0,0.0,0.0,0.0,0.0,0.0,0.0,0.0,0.0,0.0,0.0,0.0,0.0,0.0,0.0,0.0,0.0,0.0,0.0,0.0,0.0,0.0,0.0,0.0,0.0,0.0,0.0,0.0,0.0,0.0,0.0,0.0,0.0,0.0,0.0,0.0,0.0,0.0,0.0,0.0,0.0,0.0,0.0,0.0,0.0,0.0,0.0,0.0,0.0,0.0,0.0,0.0,0.0,0.0,0.0,0.0,0.0,0.0,0.0,0.0,0.0,0.0,0.0,0.0,0.0,0.0,0.0,0.0,0.0,0.0,0.0,0.0,0.0,0.0,0.0,0.0,0.0,0.0,0.0,0.0,0.0,0.0,0.0,0.0,0.0,0.0,0.0,0.0,-0.7587,-0.7534,0.0,-0.8382,-0.8531,-0.8528,-0.8528,-0.8676,-0.8928,0.0,0.0,0.0,0.0,0.0,0.0,0.0,0.0,0.0,0.0,0.0,0.0,0.0,0.0,0.0,0.0,0.0,0.0,0.0,0.0,0.0,0.0,0.0,0.0,0.0,0.0,0.0,0.0,0.0,0.0,0.0,0.0,0.0,0.0,0.0,0.0,0.0,0.0,0.0,0.0,0.0,0.0,0.0,0.0,0.0,0.0,0.0,0.0,0.0,0.0,0.0,0.0,0.0,0.0,0.0,0.0,0.0,0.0,0.0,0.0,0.0,0.0,0.0,0.0,0.0,0.0,0.0,0.0,0.0,0.0,0.0,0.0,0.0,0.0,0.0,0.0,0.0,0.0,0.0,0.0,0.0,0.0,0.0,0.0,0.0,0.0,0.0,0.0,0.0,0.0,0.0,0.0,0.0,0.0,0.0,0.0,0.0,0.0,0.0,0.0,0.0,0.0,-0.7839,-0.7235,-0.7083,0.0,-0.8432,-0.8528,-0.8432,-0.8382,-0.8531,-0.8775,0.0,0.0,0.0,0.0,0.0,0.0,0.0,0.0,0.0,0.0,0.0,0.0,0.0,0.0,0.0,0.0,0.0,0.0,0.0,0.0,0.0,0.0,0.0,0.0,0.0,0.0,0.0,0.0,0.0,0.0,0.0,0.0,0.0,0.0,0.0,0.0,0.0,0.0,0.0,0.0,0.0,0.0,0.0,0.0,0.0,0.0,0.0,0.0,0.0,0.0,0.0,0.0,0.0,0.0,0.0,0.0,0.0,0.0,0.0,0.0,0.0,0.0,0.0,0.0,0.0,0.0,0.0,0.0,0.0,0.0,0.0,0.0,0.0,0.0,0.0,0.0,0.0,0.0,0.0,0.0,0.0,0.0,0.0,0.0,0.0,0.0,0.0,0.0,0.0,0.0,0.0,0.0,0.0,0.0,0.0,0.0,0.0,0.0,0.0,0.0,0.0,0.0,-0.7686,-0.7036,-0.6786,-0.7889,-0.7988,-0.8088,-0.8382,-0.8382,-0.8528,0.0,0.0,0.0,0.0,0.0,0.0,0.0,0.0,0.0,0.0,0.0,0.0,0.0,0.0,0.0,0.0,0.0,0.0,0.0,0.0,0.0,0.0,0.0,0.0,0.0,0.0,0.0,0.0,0.0,0.0,0.0,0.0,0.0,0.0,0.0,0.0,0.0,0.0,0.0,0.0,0.0,0.0,0.0,0.0,0.0,0.0,0.0,0.0,0.0,0.0,0.0,0.0,0.0,0.0,0.0,0.0,0.0,0.0,0.0,0.0,0.0,0.0,0.0,0.0,0.0,0.0,0.0,0.0,0.0,0.0,0.0,0.0,0.0,0.0,0.0,0.0,0.0,0.0,0.0,0.0,0.0,0.0,0.0,0.0,0.0,0.0,0.0,0.0,0.0,0.0,0.0,0.0,0.0,0.0,0.0,0.0,0.0,0.0,0.0,0.0,0.0,0.0,0.0,-0.6587,-0.5281,-0.4828,-0.6686,-0.6886,-0.7185,-0.8038,-0.8137,-0.8233,-0.8478,0.0,0.0,0.0,0.0,0.0,0.0,0.0,0.0,0.0,0.0,0.0,0.0,0.0,0.0,0.0,0.0,0.0,0.0,0.0,0.0,0.0,0.0,0.0,0.0,0.0,0.0,0.0,0.0,0.0,0.0,0.0,0.0,0.0,0.0,0.0,0.0,0.0,0.0,0.0,0.0,0.0,0.0,0.0,0.0,0.0,0.0,0.0,0.0,0.0,0.0,0.0,0.0,0.0,0.0,0.0,0.0,0.0,0.0,0.0,0.0,0.0,0.0,0.0,0.0,0.0,0.0,0.0,0.0,0.0,0.0,0.0,0.0,0.0,0.0,0.0,0.0,0.0,0.0,0.0,0.0,0.0,0.0,0.0,0.0,0.0,0.0,0.0,0.0,0.0,0.0,0.0,0.0,0.0,0.0,0.0,0.0,0.0,0.0,0.0,0.0,0.0,0.0,-0.6134,-0.4878,-0.4475,-0.6234,-0.6786,-0.7288,-0.7939,-0.7988,-0.8137,-0.8382,0.0,0.0,0.0,0.0,0.0,0.0,0.0,0.0,0.0,0.0,0.0,0.0,0.0,0.0,0.0,0.0,0.0,0.0,0.0,0.0,0.0,0.0,0.0,0.0,0.0,0.0,0.0,0.0,0.0,0.0,0.0,0.0,0.0,0.0,0.0,0.0,0.0,0.0,0.0,0.0,0.0,0.0,0.0,0.0,0.0,0.0,0.0,0.0,0.0,0.0,0.0,0.0,0.0,0.0,0.0,0.0,0.0,0.0,0.0,0.0,0.0,0.0,0.0,0.0,0.0,0.0,0.0,0.0,0.0,0.0,0.0,0.0,0.0,0.0,0.0,0.0,0.0,0.0,0.0,0.0,0.0,0.0,0.0,0.0,0.0,0.0,0.0,0.0,0.0,0.0,0.0,0.0,0.0,0.0,0.0,0.0,0.0,0.0,0.0,0.0,0.0,0.0,-0.5832,-0.5177,-0.4926,-0.5984,-0.6986,-0.7587,-0.7686,-0.7789,-0.7935,-0.8184,0.0,0.0,0.0,0.0,0.0,0.0,0.0,0.0,0.0,0.0,0.0,0.0,0.0,0.0,0.0,0.0,0.0,0.0,0.0,0.0,0.0,0.0,0.0,0.0,0.0,0.0,0.0,0.0,0.0,0.0,0.0,0.0,0.0,0.0,0.0,0.0,0.0,0.0,0.0,0.0,0.0,0.0,0.0,0.0,0.0,0.0,0.0,0.0,0.0,0.0,0.0,0.0,0.0,0.0,0.0,0.0,0.0,0.0,0.0,0.0,-0.693,0.0,0.0,0.0,0.0,0.0,0.0,0.0,0.0,0.0,0.0,0.0,0.0,0.0,0.0,0.0,0.0,0.0,0.0,0.0,0.0,0.0,0.0,0.0,0.0,0.0,0.0,0.0,0.0,0.0,0.0,0.0,0.0,0.0,0.0,0.0,0.0,0.0,0.0,0.0,0.0,0.0,-0.3726,-0.2923,-0.2672,-0.3776,-0.4076,-0.4576,-0.5425,-0.6232,-0.6786,-0.6836,-0.7637,0.0,0.0,0.0,0.0,0.0,0.0,0.0,0.0,0.0,0.0,0.0,0.0,0.0,0.0,0.0,0.0,0.0,0.0,0.0,0.0,0.0,0.0,0.0,0.0,0.0,0.0,0.0,0.0,0.0,0.0,0.0,0.0,0.0,0.0,0.0,0.0,0.0,0.0,0.0,0.0,0.0,0.0,0.0,0.0,0.0,0.0,0.0,0.0,0.0,0.0,0.0,0.0,0.0,0.0,0.0,0.0,0.0,0.0,0.0,0.0,-0.5832,0.0,0.0,0.0,0.0,0.0,0.0,0.0,0.0,0.0,0.0,0.0,0.0,0.0,0.0,0.0,0.0,0.0,0.0,0.0,0.0,0.0,0.0,0.0,0.0,0.0,0.0,0.0,0.0,0.0,0.0,0.0,0.0,0.0,0.0,0.0,0.0,0.0,0.0,0.0,0.0,-0.3123,-0.2722,-0.2572,-0.3123,-0.3674,-0.4175,-0.4774,-0.5327,-0.5629,-0.5629,-0.6129,0.0,0.0,0.0,0.0,0.0,0.0,0.0,0.0,0.0,0.0,0.0,0.0,0.0,0.0,0.0,0.0,0.0,0.0,0.0,0.0,0.0,0.0,0.0,0.0,0.0,0.0,0.0,0.0,0.0,0.0,0.0,0.0,0.0,0.0,0.0,0.0,0.0,0.0,0.0,0.0,0.0,0.0,0.0,0.0,0.0,0.0,0.0,0.0,0.0,0.0,0.0,0.0,0.0,-0.5942,-0.5452,-0.5203,-0.512,-0.4455,-0.3429,-0.4555,-0.4624,-0.3913,0.0,0.0,0.0,0.0,0.0,0.0,0.0,0.0,0.0,0.0,0.0,0.0,0.0,0.0,0.0,0.0,0.0,0.0,0.0,0.0,0.0,0.0,0.0,0.0,0.0,-0.1516,-0.1617,0.0,0.0,0.0,0.0,0.0,0.0,0.0,0.0,0.0,0.0,0.0,0.0,-0.2923,-0.2923,-0.2923,-0.2923,-0.3725,-0.4225,-0.4225,-0.4423,-0.4524,-0.4524,-0.4674,-0.4824,0.0,0.0,0.0,0.0,0.0,0.0,0.0,0.0,0.0,0.0,0.0,0.0,0.0,0.0,0.0,0.0,0.0,0.0,0.0,0.0,0.0,0.0,0.0,0.0,0.0,0.0,0.0,0.0,0.0,0.0,0.0,0.0,-0.8844,-0.9007,0.0,0.0,0.0,0.0,0.0,0.0,0.0,0.0,0.0,0.0,0.0,0.0,0.0,-0.6476,-0.6722,-0.5877,-0.5479,-0.5479,-0.5359,-0.5295,-0.5248,-0.4812,-0.4222,-0.36,-0.312,0.0,-0.338,-0.3486,0.0,0.0,0.0,0.0,0.0,0.0,0.0,0.0,0.0,0.0,0.0,0.0,0.0,0.0,0.0,0.0,0.0,0.0,0.0,0.0,0.0,0.0,-0.0556,-0.0556,-0.1111,-0.1617,0.0,-0.1617,-0.1617,-0.1617,0.0,0.0,0.0,0.0,0.0,0.0,0.0,0.0,-0.1818,-0.1818,-0.1818,-0.1818,-0.1919,-0.2019,-0.2019,-0.2873,-0.3423,-0.3423,-0.4273,-0.4824,-0.4824,-0.4874,0.0,0.0,0.0,0.0,0.0,0.0,0.0,0.0,0.0,0.0,0.0,0.0,0.0,0.0,0.0,0.0,0.0,0.0,0.0,0.0,0.0,0.0,0.0,0.0,0.0,0.0,0.0,0.0,0.0,-0.8265,-0.8255,-0.8796,-0.8706,-0.8764,0.0,0.0,0.0,0.0,0.0,0.0,0.0,0.0,0.0,-0.6531,-0.6481,-0.6411,-0.6273,-0.5616,-0.5342,-0.5345,-0.429,-0.3782,-0.3783,-0.3178,-0.2833,-0.2591,-0.227,-0.2228,-0.2463,-0.2415,-0.2596,-0.2895,0.0,0.0,0.0,0.0,-0.1666,-0.1666,-0.1666,-0.1666,0.0,0.0,0.0,0.0,0.0,0.0,0.0,0.0,0.0,0.0,0.0,0.0,0.0,0.0252,0.0,-0.0353,-0.0808,-0.0909,-0.1061,0.0,-0.1617,-0.1617,-0.1617,0.0,0.0,0.0,0.0,0.0,-0.1617,-0.1617,-0.1617,-0.1617,-0.1617,-0.1617,-0.1617,-0.2019,-0.2321,-0.2321,-0.2723,-0.3022,-0.3022,-0.3574,-0.3624,0.0,0.0,0.0,0.0,0.0,0.0,0.0,0.0,0.0,0.0,0.0,0.0,0.0,0.0,0.0,0.0,0.0,0.0,0.0,0.0,0.0,0.0,0.0,0.0,0.0,0.0,0.0,0.0,-0.7854,-0.7746,-0.8693,-0.8179,-0.8105,0.0,0.0,0.0,0.0,0.0,0.0,-0.6889,-0.6715,-0.6377,-0.5773,-0.6002,-0.5953,-0.5464,-0.4948,-0.4614,-0.4517,-0.3101,-0.2413,-0.236,-0.1939,-0.174,-0.1816,-0.1816,-0.1885,-0.2016,-0.1801,-0.1992,-0.236,-0.1876,-0.1711,-0.1704,-0.1704,-0.1704,-0.1704,-0.1704,-0.1544,-0.1381,-0.1365,0.0,-0.0052,-0.0051,0.0,0.0,0.0,0.0,0.1228,0.1432,0.133,0.1176,0.1176,0.1023,0.0665,0.0102,-0.0051,-0.0355,0.0,-0.1617,-0.1617,-0.1617,0.0,0.0,0.0,0.0,-0.1617,-0.1617,-0.1617,-0.1617,-0.1617,-0.1617,-0.1617,-0.1617,-0.1617,-0.1617,-0.1617,-0.1617,-0.1617,-0.1617,-0.2371,-0.2422,-0.1617,0.0,0.0,0.0,0.0,0.0,0.0,0.0,0.0,0.0,0.0,0.0,0.0,0.0,0.0,0.0,0.0,0.0,0.0,0.0,0.0,0.0,0.0,0.0,0.0,0.0,0.0,0.0,0.0,0.0,-0.8989,-0.7611,0.0,0.0,0.0,0.0,-0.7238,-0.7238,-0.6889,-0.6092,-0.6187,-0.5887,-0.5068,-0.4631,-0.4143,-0.356,-0.3032,-0.2448,-0.1917,-0.1842,-0.1856,-0.1858,-0.1833,-0.1791,-0.1793,-0.1793,-0.213,-0.2637,-0.2016,-0.1829,-0.1856,-0.1802,-0.173,-0.1704,-0.1704,-0.1704,-0.1704,-0.1704,-0.1171,-0.0479,-0.0479,0.016,0.0904,0.0956,0.0956,0.0,0.0,0.2125,0.2285,0.3083,0.2711,0.2125,0.2125,0.154,0.0956,0.0956,0.0891,0.036,0.0,-0.1617,-0.1617,-0.1617,0.0,-0.1617,-0.1617,-0.1617,-0.1617,-0.1617,-0.1617,-0.1617,-0.1617,-0.1617,-0.1617,-0.1617,-0.1617,-0.1617,-0.1617,-0.1617,-0.1617,-0.1617,-0.1667,-0.1667,-0.1617,-0.1667,0.0,0.0,0.0,0.0,0.0,0.0,0.0,0.0,0.0,0.0,0.0,0.0,0.0,0.0,0.0,0.0,0.0,0.0,0.0,0.0,0.0,0.0,0.0,0.0,0.0,0.0,0.0,0.0,-0.7074,-0.6534,0.0,-0.7388,-0.6839,-0.6469,-0.6543,-0.6093,-0.5667,-0.5424,-0.5459,-0.5216,-0.4588,-0.4722,-0.4548,-0.4056,-0.4221,-0.4191,-0.4073,-0.3709,-0.3553,-0.3498,-0.313,-0.2747,-0.2356,-0.2356,-0.23,-0.2076,-0.1234,-0.1509,-0.228,-0.1278,-0.0886,-0.0771,-0.022,0.0,0.0,0.0,0.0165,0.055,0.1087,0.1505,0.1864,0.2398,0.2558,0.2611,0.2878,0.2984,0.3038,0.3305,0.3199,0.2984,0.2984,0.2772,0.2398,0.1864,0.1749,0.1421,0.0314,0.0,-0.005,-0.005,-0.005,-0.0252,-0.0757,-0.0808,-0.101,-0.1516,-0.1617,-0.1617,-0.1617,-0.1617,-0.1617,-0.1617,-0.1617,-0.1617,-0.1617,-0.1617,-0.1617,-0.1617,-0.1617,-0.1617,-0.1617,-0.1636,-0.1646,0.0,0.0,0.0,0.0,0.0,0.0,0.0,0.0,0.0,0.0,0.0,0.0,0.0,0.0,0.0,0.0,0.0,0.0,0.0,0.0,0.0,0.0,0.0,0.0,0.0,0.0,-0.5381,-0.6179,-0.5768,-0.5742,-0.6651,-0.608,-0.5723,-0.5841,-0.5328,-0.5045,-0.5104,-0.5137,-0.4994,-0.462,-0.497,-0.4955,-0.4459,-0.4792,-0.4932,-0.4763,-0.437,-0.4201,-0.4201,-0.3587,-0.3085,-0.2693,-0.2132,-0.1683,-0.1234,-0.0336,-0.0561,-0.1402,-0.0336,0.0056,0.0112,0.0673,0.0897,0.0953,0.1233,0.1345,0.151,0.2379,0.2681,0.2765,0.3308,0.3471,0.3471,0.3471,0.3471,0.3471,0.3471,0.3471,0.3471,0.3471,0.3471,0.3308,0.2765,0.2643,0.2471,0.1933,0.1311,0.0871,0.0815,0.0814,0.066,0.0101,0.0,-0.0303,-0.1111,-0.1212,-0.1313,-0.1566,-0.1617,-0.1617,-0.1617,-0.1617,-0.1617,-0.1617,-0.1617,-0.1622,-0.1632,-0.1633,-0.1637,-0.1646,-0.1666,-0.1734,-0.1745,0.0,0.0,0.0,0.0,0.0,0.0,0.0,0.0,0.0,0.0,0.0,0.0,0.0,0.0,0.0,0.0,0.0,0.0,0.0,0.0,0.0,0.0,0.0,-0.7039,-0.5331,-0.468,-0.6484,-0.5224,-0.4616,-0.5698,-0.537,-0.5108,-0.5112,-0.5112,-0.5114,-0.5116,-0.5146,-0.5194,-0.5194,-0.5335,-0.51,-0.4536,-0.4536,-0.4257,-0.3643,-0.3643,-0.3587,-0.3587,-0.2973,-0.2637,-0.2581,-0.1065,-0.0393,-0.0336,0.0561,0.0898,0.0898,0.0954,0.0953,0.0953,0.0953,0.1009,0.1121,0.196,0.224,0.2408,0.3306,0.3587,0.3587,0.3587,0.3587,0.3587,0.3587,0.3587,0.3587,0.3587,0.3587,0.3587,0.3587,0.3587,0.3587,0.3587,0.3541,0.3499,0.3499,0.2211,0.106,0.0989,0.0986,0.0928,0.0861,0.0858,0.0,-0.0253,-0.0354,-0.0658,-0.1467,-0.1568,-0.1567,-0.1617,-0.1618,-0.1618,-0.1618,-0.1619,-0.1633,-0.1714,-0.1716,-0.1677,-0.1705,-0.1705,-0.172,-0.1806,0.0,0.0,0.0,0.0,0.0,0.0,0.0,0.0,0.0,0.0,0.0,0.0,0.0,0.0,0.0,0.0,0.0,0.0,0.0,0.0,0.0,0.0,-0.4861,-0.5395,-0.5042,-0.4779,-0.4881,-0.4858,-0.4966,-0.5282,-0.5199,-0.5135,-0.5148,-0.5152,-0.5237,-0.5302,-0.5331,-0.5343,-0.5343,-0.5369,-0.5326,-0.5156,-0.5156,-0.5044,-0.4877,-0.4032,-0.3582,-0.3582,-0.252,-0.1793,-0.1346,-0.0953,-0.0505,-0.0056,0.0841,0.1242,0.1312,0.1689,0.1849,0.1905,0.2633,0.2858,0.2914,0.3138,0.3194,0.325,0.3531,0.3587,0.3587,0.3587,0.3587,0.3587,0.3587,0.3587,0.3587,0.3587,0.3587,0.3587,0.3587,0.3587,0.3587,0.3587,0.3574,0.3563,0.3563,0.3216,0.2848,0.2712,0.2698,0.2534,0.1891,0.1837,0.0,0.0735,0.063,0.0313,-0.0567,-0.0669,-0.0921,-0.1568,-0.1637,-0.165,-0.165,-0.1669,-0.1684,-0.1692,-0.1692,-0.1707,-0.1791,-0.1791,-0.1807,0.0,0.0,0.0,0.0,0.0,0.0,0.0,0.0,0.0,0.0,0.0,0.0,0.0,0.0,0.0,0.0,0.0,0.0,0.0,0.0,0.0,0.0,-0.468,-0.4606,-0.4899,-0.4788,-0.4665,-0.4613,-0.4898,-0.5165,-0.5165,-0.52,-0.5245,-0.5298,-0.5302,-0.5326,-0.5377,-0.5382,-0.5156,-0.4648,-0.4648,-0.4424,-0.392,-0.3864,-0.3864,-0.3864,-0.3191,-0.2854,-0.2797,-0.1848,-0.1237,0.0,-0.0227,0.0284,0.0687,0.1717,0.2188,0.0,0.0,0.0,0.0,0.0,0.3625,0.3621,0.3597,0.3587,0.3587,0.3587,0.3587,0.3587,0.3587,0.3587,0.3587,0.3587,0.3587,0.3587,0.3587,0.3587,0.3587,0.3587,0.3587,0.3587,0.3587,0.3587,0.3587,0.3587,0.0,0.0,0.3497,0.3465,0.3278,0.2774,0.2717,0.2398,0.1598,0.1491,0.1167,0.0315,0.0262,0.0052,-0.0465,-0.0522,0.0,0.0,0.0,-0.0748,-0.113,-0.1139,0.0,0.0,0.0,-0.1777,-0.1795,0.0,0.0,0.0,-0.1795,-0.1795,0.0,0.0,0.0,0.0,0.0,0.0,0.0,0.0,0.0,0.0,0.0,0.0,0.0,0.0,0.0,0.0,-0.4631,-0.4661,-0.4686,-0.4331,-0.4228,-0.4856,-0.4878,-0.482,-0.482,-0.4943,-0.4987,-0.4987,-0.4987,-0.4987,-0.4987,0.0,0.0,0.0,0.0,-0.291,-0.1791,-0.1791,-0.1791,-0.1791,-0.1679,-0.1623,-0.1567,-0.0897,-0.0622,-0.0517,0.0862,0.1451,0.1532,0.265,0.3183,0.3242,0.3247,0.3313,0.341,0.3649,0.3688,0.3681,0.3627,0.0,0.0,0.36,0.3598,0.3597,0.359,0.3587,0.3587,0.3587,0.3587,0.3587,0.3587,0.3587,0.3587,0.3587,0.3587,0.3587,0.3587,0.3587,0.3587,0.3587,0.3587,0.3587,0.3587,0.3542,0.3489,0.344,0.3432,0.3163,0.2465,0.2358,0.2035,0.1229,0.0,0.0,0.1012,0.1014,0.1015,0.1015,0.0963,0.0593,-0.0219,-0.0278,-0.0673,-0.1458,-0.1514,-0.1514,-0.1514,-0.1514,-0.157,-0.1627,-0.1739,-0.1797,0.0,0.0,0.0,0.0,0.0,0.0,0.0,0.0,0.0,0.0,0.0,0.0,0.0,0.0,0.0,-0.232,-0.2248,-0.2325,-0.2333,-0.2309,-0.2647,-0.3587,-0.2977,-0.2451,-0.2451,-0.2458,-0.252,-0.252,-0.252,-0.252,-0.252,-0.252,0.0,-0.2183,-0.2127,-0.2015,-0.1791,-0.1791,-0.1791,-0.1791,0.0,0.0,-0.0336,0.0785,0.1302,0.1322,0.161,0.1741,0.1826,0.2062,0.2492,0.2995,0.348,0.3699,0.3708,0.3756,0.3811,0.3808,0.3739,0.3734,0.3726,0.3677,0.3661,0.3651,0.3602,0.3587,0.0,0.3587,0.3587,0.3587,0.3587,0.3587,0.3587,0.3587,0.3587,0.3587,0.3587,0.3587,0.3587,0.3587,0.3587,0.3587,0.3587,0.3578,0.3567,0.3555,0.3553,0.3498,0.3331,0.3331,0.2983,0.2125,0.2067,0.1785,0.1066,0.0971,0.0925,0.0925,0.0937,0.0834,0.067,0.0672,0.0561,0.0393,0.0393,0.0393,0.0393,0.0393,0.0,-0.0673,-0.1458,-0.1808,0.0,0.0,0.0,0.0,0.0,0.0,0.0,0.0,0.0,0.0,0.0,-0.3826,0.0,0.0,-0.2239,-0.1667,-0.1682,-0.1696,-0.1767,-0.1281,-0.134,-0.2489,-0.2116,-0.1791,-0.1791,-0.1791,-0.1791,-0.1791,-0.1791,-0.1791,-0.1791,-0.1791,-0.1512,-0.0896,-0.0896,-0.0616,0.0,0.0,0.0,0.0,0.0617,0.0897,0.0898,0.1528,0.1834,0.1864,0.1879,0.1903,0.1991,0.2111,0.2483,0.2986,0.3265,0.3557,0.3857,0.3826,0.3874,0.387,0.3838,0.3829,0.3823,0.3733,0.3724,0.3718,0.3687,0.3657,0.3632,0.3632,0.361,0.3587,0.3587,0.3587,0.3587,0.3587,0.3587,0.3587,0.3587,0.3587,0.3587,0.3587,0.3587,0.3587,0.3587,0.3587,0.3587,0.3587,0.3587,0.3587,0.3587,0.3587,0.3409,0.2992,0.2934,0.2759,0.2351,0.2258,0.2269,0.2269,0.2305,0.21,0.1646,0.1659,0.1436,0.1034,0.0976,0.0976,0.0976,0.0976,0.0804,0.0345,-0.0116,-0.0872,0.0,0.0,0.0,0.0,0.0,0.0,0.0,0.0,-0.4101,-0.3213,-0.3033,-0.2663,-0.1453,-0.13,-0.1256,-0.1041,-0.1042,-0.1047,-0.1118,-0.028,0.0,-0.1008,-0.112,-0.112,-0.112,-0.112,-0.112,-0.112,-0.112,-0.112,-0.112,-0.112,-0.0672,0.0336,0.0336,0.0841,0.1795,0.1795,0.1795,0.1795,0.1795,0.1798,0.1805,0.1772,0.186,0.1896,0.1926,0.1954,0.2038,0.2345,0.2652,0.29,0.2961,0.3332,0.3821,0.3834,0.3877,0.3871,0.3822,0.3805,0.3803,0.379,0.3845,0.3844,0.3831,0.3734,0.3696,0.3696,0.3651,0.3605,0.3605,0.3597,0.3587,0.3587,0.3587,0.3587,0.3587,0.3587,0.3587,0.3587,0.3587,0.3587,0.3587,0.3587,0.3587,0.3587,0.3587,0.3587,0.3587,0.3587,0.3587,0.3587,0.3587,0.3587,0.3587,0.3598,0.3605,0.3605,0.3662,0.3405,0.2596,0.263,0.2353,0.1647,0.1647,0.1647,0.1647,0.1647,0.1531,0.136,0.1386,0.0422,-0.1966,-0.1937,-0.1959,-0.1959,-0.1934,-0.1915,0.0,0.0,-0.2072,-0.1997,-0.1927,-0.1534,-0.0389,-0.011,0.022,0.1227,0.1397,0.1399,0.1402,0.1514,0.157,0.1402,0.1402,0.1402,0.1402,0.1402,0.1402,0.1402,0.1402,0.1402,0.1402,0.1402,0.1458,0.157,0.1627,0.1683,0.1795,0.1795,0.1795,0.1795,0.1795,0.1809,0.1778,0.1782,0.1813,0.1928,0.1958,0.1973,0.2038,0.2345,0.2529,0.259,0.29,0.3209,0.3517,0.3573,0.3693,0.3879,0.3871,0.3869,0.386,0.3868,0.391,0.3899,0.3844,0.3823,0.3818,0.3818,0.3715,0.3668,0.3668,0.3628,0.3587,0.3587,0.3587,0.3587,0.3587,0.3587,0.3587,0.3587,0.3587,0.3587,0.3587,0.3587,0.3587,0.3587,0.3587,0.3587,0.3587,0.3587,0.3587,0.3587,0.3587,0.3587,0.3587,0.3636,0.3668,0.3668,0.3725,0.3759,0.364,0.3647,0.3592,0.3473,0.3473,0.3473,0.3473,0.3473,0.3084,0.2345,0.2291,0.1743,-0.1582,-0.162,0.0,0.0,-0.1598,-0.1622,-0.1688,-0.1691,-0.1535,-0.0893,-0.0724,-0.0333,0.084,0.1059,0.1224,0.0,0.1795,0.1795,0.1795,0.1795,0.1795,0.1795,0.1795,0.1795,0.1795,0.1795,0.1795,0.1795,0.1795,0.1795,0.1795,0.1795,0.1795,0.1795,0.1795,0.1795,0.1795,0.1795,0.1804,0.1821,0.1821,0.1837,0.1867,0.1885,0.1917,0.1958,0.1971,0.1977,0.2038,0.216,0.2222,0.2222,0.2346,0.2716,0.3209,0.3455,0.3642,0.3889,0.3889,0.3889,0.3885,0.3921,0.3913,0.3909,0.3883,0.385,0.3883,0.3883,0.3837,0.3732,0.3732,0.3713,0.3694,0.3694,0.3666,0.364,0.364,0.3613,0.3587,0.3587,0.3587,0.3587,0.3587,0.3587,0.3587,0.3587,0.3587,0.3587,0.3587,0.3587,0.3601,0.3636,0.364,0.3654,0.3691,0.3717,0.3732,0.3732,0.3847,0.3883,0.3883,0.3856,0.3875,0.3875,0.3875,0.3875,0.3875,0.3907,0.3752,0.3344,0.3446,0.3224,-0.0675,0.0,0.0,-0.0591,-0.0651,-0.0715,-0.0715,-0.0715,-0.0497,0.0336,0.0505,0.0785,0.1627,0.1795,0.1795,0.1795,0.1795,0.1795,0.1795,0.1795,0.1795,0.1795,0.1795,0.1795,0.1795,0.1795,0.1795,0.1795,0.1795,0.1795,0.1795,0.1795,0.1795,0.1795,0.1803,0.1808,0.1808,0.1816,0.1831,0.1853,0.1853,0.1869,0.1899,0.193,0.1956,0.1977,0.1977,0.1977,0.1977,0.1977,0.1977,0.1977,0.1977,0.2346,0.29,0.3209,0.358,0.3889,0.3889,0.3889,0.3889,0.3889,0.3889,0.3889,0.3889,0.392,0.3886,0.3886,0.3841,0.3854,0.3854,0.3841,0.3829,0.3829,0.3736,0.3703,0.3703,0.3669,0.3638,0.3638,0.3638,0.3638,0.3638,0.3638,0.3638,0.3638,0.3638,0.3631,0.3615,0.3627,0.3654,0.3699,0.3703,0.3721,0.3824,0.3844,0.3854,0.3854,0.3852,0.3886,0.3886,0.3927,0.3889,0.3889,0.3889,0.3889,0.3889,0.3944,0.3971,0.3974,0.4142,0.42,0.1589,0.1671,0.1694,0.1694,0.1716,0.1681,0.1681,0.1681,0.1682,0.1739,0.1739,0.1739,0.1795,0.1795,0.1795,0.1795,0.1795,0.1795,0.1795,0.1795,0.1795,0.1795,0.1795,0.1795,0.0,0.1795,0.1795,0.1795,0.1795,0.1795,0.1795,0.1795,0.1795,0.1795,0.1823,0.1782,0.1782,0.1868,0.1883,0.1884,0.1884,0.19,0.1931,0.1961,0.1975,0.1977,0.1977,0.1977,0.1977,0.1977,0.1977,0.1977,0.1977,0.2222,0.2529,0.29,0.3394,0.3889,0.3889,0.3889,0.3889,0.3889,0.3889,0.3889,0.3889,0.3888,0.3887,0.3887,0.3903,0.3917,0.3917,0.3873,0.3829,0.3829,0.3827,0.3824,0.3824,0.3823,0.3822,0.3822,0.3822,0.3822,0.3822,0.3822,0.3822,0.3822,0.3822,0.3743,0.3683,0.3728,0.3823,0.3824,0.3824,0.3826,0.3829,0.3883,0.3917,0.3917,0.3914,0.3887,0.3887,0.3888,0.3889,0.3889,0.3889,0.3889,0.3889,0.3944,0.3971,0.3973,0.41,0.4159,0.1786,0.1757,0.178,0.178,0.1787,0.1795,0.1795,0.1795,0.1795,0.1795,0.1811,0.1825,0.1825,0.1825,0.1825,0.1825,0.1825,0.1825,0.1825,0.1842,0.1855,0.1855,0.1855,0.0,0.0,0.0,0.0,0.1823,0.1825,0.1834,0.1854,0.1855,0.1855,0.1855,0.1865,0.187,0.187,0.1881,0.1896,0.1916,0.1937,0.1952,0.1962,0.1972,0.1977,0.1977,0.1977,0.1977,0.1977,0.1977,0.1977,0.1977,0.1977,0.2222,0.2529,0.2652,0.2961,0.3332,0.3765,0.3889,0.3889,0.3889,0.3889,0.3889,0.3889,0.3889,0.3889,0.3889,0.3875,0.392,0.392,0.4571,0.5214,0.5214,0.5829,0.6435,0.6435,0.6441,0.6392,0.6392,0.6392,0.6392,0.6392,0.6392,0.6122,0.5243,0.4383,0.382,0.3741,0.3815,0.3844,0.3885,0.389,0.3846,0.3887,0.3907,0.392,0.392,0.3879,0.3889,0.3889,0.3889,0.3889,0.3889,0.3889,0.3907,0.3944,0.4002,0.4116,0.4157,0.4218,0.4258,0.1818,0.178,0.1795,0.1795,0.1795,0.1795,0.1795,0.1795,0.1795,0.1795,0.181,0.1824,0.1824,0.1776,0.178,0.1826,0.1776,0.1783,0.1783,0.1857,0.1874,0.1884,0.1886,0.1886,0.0,0.0,0.0,0.1855,0.1856,0.1865,0.1885,0.1886,0.1886,0.1886,0.1896,0.1902,0.1902,0.1913,0.1928,0.1947,0.1967,0.1977,0.1977,0.1977,0.1977,0.1977,0.1977,0.1977,0.1977,0.1977,0.1977,0.1977,0.1977,0.216,0.2345,0.2467,0.2652,0.29,0.3517,0.3765,0.3765,0.3889,0.3889,0.3889,0.3889,0.3889,0.4013,0.4501,0.4624,0.4747,0.5235,0.5968,0.6639,0.6639,0.7253,0.7859,0.7859,0.7798,0.7743,0.7743,0.7743,0.7743,0.7743,0.7743,0.7474,0.6649,0.5829,0.4903,0.3953,0.3834,0.3849,0.3888,0.3892,0.3909,0.3885,0.3889,0.3889,0.3889,0.3889,0.3889,0.3889,0.3889,0.3899,0.3918,0.3919,0.3947,0.4067,0.4128,0.4166,0.4185,0.4247,0.4275,0.1787,0.1795,0.1795,0.1795,0.1795,0.1795,0.1795,0.1795,0.1795,0.1795,0.1796,0.1797,0.0,0.0,0.1833,0.1802,0.1823,0.1785,0.1785,0.1786,0.1856,0.0,0.0,0.0,0.0,0.0,0.0,0.189,0.0,0.1889,0.189,0.189,0.189,0.189,0.1919,0.1934,0.1934,0.1962,0.1977,0.1977,0.1977,0.1977,0.1977,0.1977,0.1977,0.1977,0.1977,0.1977,0.1977,0.1977,0.1977,0.1977,0.1977,0.2038,0.2161,0.2467,0.259,0.2774,0.3393,0.364,0.364,0.3826,0.4013,0.4073,0.4011,0.4073,0.4379,0.5663,0.6029,0.6272,0.7553,0.7917,0.7978,0.7978,0.8041,0.8099,0.8099,0.8099,0.8099,0.8099,0.8099,0.8099,0.8099,0.8041,0.7978,0.7978,0.7917,0.7004,0.4441,0.4134,0.4134,0.4134,0.4073,0.4011,0.4011,0.395,0.3889,0.3889,0.3889,0.3889,0.3889,0.3892,0.3918,0.3971,0.3974,0.407,0.4131,0.4188,0.4188,0.4136,0.4194,0.4221,0.1793,0.1795,0.1795,0.1795,0.1795,0.1795,0.1795,0.1795,0.1795,0.1795,0.1813,0.1772,0.0,0.0,0.0,0.1834,0.1854,0.0,0.1874,0.1894,0.0,0.1949,0.0,0.1954,0.1954,0.1954,0.0,0.0,0.1932,0.193,0.1952,0.1954,0.1954,0.1954,0.1961,0.1965,0.1965,0.1973,0.1977,0.1977,0.1977,0.1977,0.1977,0.1977,0.1977,0.1977,0.1977,0.1977,0.1977,0.1977,0.1977,0.1977,0.1977,0.259,0.3447,0.3509,0.4183,0.5102,0.5535,0.5352,0.4802,0.4133,0.5235,0.67,0.5663,0.609,0.6942,0.7309,0.737,0.7492,0.7795,0.8587,0.9316,0.9316,1.0054,1.0796,1.0796,1.0796,1.0796,1.0796,1.0796,1.0796,1.0796,0.9994,0.9316,0.9316,0.8526,0.7675,0.6942,0.6881,0.6881,0.6881,0.5968,0.5419,0.5419,0.4501,0.3889,0.3889,0.3889,0.3889,0.3889,0.3928,0.3958,0.3971,0.4079,0.4132,0.4194,0.4209,0.4232,0.4262,0.4278,0.4285,0.1795,0.1795,0.1795,0.1795,0.1795,0.1795,0.1795,0.1795,0.1795,0.1795,0.1808,0.0,0.1821,0.1845,0.0,0.0,0.0,0.0,0.1866,0.1892,0.1922,0.0,0.1969,0.0,0.1977,0.1977,0.1977,0.0,0.1961,0.1958,0.1975,0.1977,0.1977,0.1977,0.1977,0.1977,0.1977,0.1977,0.1977,0.1977,0.1977,0.1977,0.1977,0.1977,0.1977,0.1977,0.0,0.1977,0.1977,0.1977,0.2346,0.2836,0.2836,0.3633,0.4794,0.4794,0.5284,0.5957,0.6267,0.6512,0.651,0.5722,0.6578,0.7736,0.7004,0.7309,0.8039,0.8587,0.8708,0.8891,0.9447,1.0119,1.0664,1.0664,1.1281,1.1776,1.1776,1.1776,1.1776,1.1776,1.1776,1.1776,1.1776,1.116,1.0664,1.0664,1.0058,0.963,0.963,0.859,0.7919,0.7919,0.67,0.5906,0.5906,0.4685,0.3899,0.3923,0.3926,0.3938,0.3963,0.3994,0.4087,0.4113,0.4149,0.4195,0.4256,0.4256,0.4274,0.4308,0.4308,0.4308,0.1795,0.1795,0.1795,0.1795,0.1795,0.1795,0.1795,0.1795,0.1795,0.1795,0.0,0.1795,0.1795,0.182,0.1773,0.18,0.0,0.1783,0.1783,0.1866,0.1897,0.1928,0.1958,0.1977,0.1977,0.1977,0.1977,0.1977,0.1977,0.1977,0.1977,0.1977,0.1977,0.1915,0.1915,0.1915,0.1915,0.1977,0.1977,0.1977,0.1977,0.1977,0.1977,0.1977,0.1977,0.1977,0.0,0.0,0.2038,0.2161,0.2898,0.3937,0.412,0.4977,0.6141,0.6141,0.6263,0.6449,0.6757,0.7612,0.8462,0.7675,0.7858,0.8346,0.8221,0.8285,0.865,0.9744,1.0048,1.0293,1.1466,1.1716,1.1712,1.1776,1.1776,1.1776,1.1776,1.1776,1.1776,1.1776,1.1776,1.1776,1.1776,1.1776,1.1776,1.1776,1.1776,1.1776,1.1776,0.9812,0.8407,0.8407,0.7187,0.6401,0.6473,0.5067,0.4234,0.4295,0.411,0.4071,0.4124,0.4134,0.4162,0.4215,0.4224,0.4255,0.4308,0.4308,0.4308,0.4308,0.4308,0.4308,0.1795,0.1795,0.1795,0.1795,0.1795,0.1795,0.1795,0.1795,0.0,0.0,0.1795,0.1795,0.1795,0.182,0.1773,0.18,0.1821,0.1783,0.1783,0.1866,0.1897,0.0,0.1958,0.1977,0.0,0.0,0.0,0.0,0.0,0.1977,0.1977,0.1977,0.1853,0.1606,0.1606,0.1606,0.1606,0.1853,0.1977,0.1977,0.1977,0.1977,0.1977,0.1977,0.1977,0.1977,0.1977,0.0,0.2099,0.3142,0.3692,0.3997,0.51,0.6385,0.7551,0.7551,0.8224,0.9143,0.9207,0.9511,0.969,0.7983,0.8897,1.0539,0.9744,1.0236,1.1163,1.1405,1.1277,1.1152,1.1651,1.1405,1.1095,1.1651,1.1587,1.1462,1.1712,1.1776,1.1776,1.1776,1.1776,1.1776,1.1776,1.1776,1.1776,1.1776,1.1776,1.1776,1.1776,1.1405,1.1103,1.1103,0.9933,0.9184,0.9363,0.7077,0.5743,0.5888,0.4747,0.4115,0.4125,0.4174,0.4206,0.4217,0.4266,0.4297,0.4308,0.4308,0.4308,0.4308,0.4308,0.4308,0.1795,0.1795,0.1795,0.1795,0.1795,0.1795,0.1795,0.0,0.0,0.0,0.1795,0.1795,0.1795,0.1807,0.1812,0.1797,0.1807,0.1817,0.1817,0.1842,0.1874,0.1904,0.1934,0.1959,0.0,0.0,0.0,0.0,0.0,0.1791,0.1977,0.1853,0.1667,0.1482,0.1359,0.1297,0.1482,0.1667,0.1853,0.1977,0.1977,0.1977,0.1977,0.1977,0.1977,0.1977,0.1977,0.0,0.2099,0.3387,0.4304,0.51,0.6388,0.7734,0.89,0.89,0.9268,0.9822,0.9822,0.9883,0.994,0.9143,0.9872,1.0967,1.0479,1.0789,1.1281,1.1281,1.1156,1.1091,1.122,1.1035,1.0849,1.122,1.1156,1.1091,1.122,1.1402,1.1522,1.1522,1.1651,1.1776,1.1776,1.1776,1.1776,1.1776,1.1776,1.1776,1.1776,1.1853,1.1906,1.1906,1.0732,1.0047,1.0193,0.838,0.6974,0.6364,0.5662,0.4902,0.4218,0.4248,0.4264,0.4264,0.4293,0.4308,0.4308,0.4308,0.4308,0.4308,0.4308,0.4308,0.1795,0.1795,0.1795,0.1795,0.1795,0.1795,0.1795,0.1795,0.0,0.1795,0.1795,0.1795,0.1795,0.1795,0.1795,0.0,0.1795,0.1795,0.1795,0.1821,0.1851,0.0,0.1913,0.0,0.0,0.0,0.0,0.0,0.0,0.0,0.1791,0.1482,0.1297,0.1297,0.105,0.105,0.142,0.1482,0.1667,0.1977,0.1977,0.1977,0.1977,0.1977,0.1977,0.1977,0.1977,0.0,0.0,0.3816,0.51,0.6446,0.7795,0.89,0.9822,0.9822,0.9822,0.9822,0.9822,0.9822,0.9822,1.0122,1.0425,1.0728,1.0789,1.0789,1.0789,1.0789,1.0728,1.0728,1.0789,1.0668,1.0607,1.0668,1.0728,1.0789,1.0789,1.1031,1.1212,1.1212,1.1402,1.1591,1.1651,1.1712,1.1712,1.1776,1.1776,1.1788,1.1825,1.1947,1.206,1.2138,1.1168,1.0646,1.0795,0.9592,0.8366,0.7311,0.6664,0.5841,0.4772,0.4441,0.4308,0.4308,0.4308,0.4308,0.4308,0.4308,0.4308,0.4308,0.4308,0.4308,0.1795,0.1795,0.1795,0.1795,0.1795,0.1795,0.1795,0.0,0.1795,0.1795,0.1795,0.1795,0.1795,0.1795,0.1795,0.0,0.0,0.1795,0.1795,0.1821,0.1851,0.1882,0.0,0.0,0.0,0.0,0.0,0.0,0.0,0.0,0.1111,0.0803,0.0617,0.0617,0.0556,0.0679,0.105,0.1359,0.1667,0.1977,0.1977,0.1977,0.1977,0.1977,0.1977,0.1977,0.1977,0.0,0.0,0.5163,0.651,0.7858,0.9143,0.9697,0.9822,0.9822,0.9822,0.9822,0.9822,0.9822,0.9822,0.9819,1.0065,1.0425,1.0728,1.0789,1.0789,1.0789,1.0607,1.0425,1.0728,1.0365,0.9943,1.0243,1.0607,1.0789,1.0789,1.0849,1.0849,1.0849,1.0849,1.097,1.1273,1.1333,1.1458,1.1776,1.1776,1.1833,1.1987,1.202,1.2154,1.2479,1.231,1.2159,1.2391,1.1038,1.0257,1.0274,0.7826,0.6366,0.6243,0.4975,0.4308,0.4308,0.4308,0.4308,0.4308,0.4308,0.4308,0.4308,0.4308,0.4308,0.1795,0.1795,0.1795,0.1795,0.1795,0.1795,0.1795,0.0,0.1795,0.1795,0.1795,0.1795,0.1795,0.1795,0.1795,0.1795,0.0,0.0,0.1795,0.1806,0.1832,0.188,0.1896,0.0,0.0,0.0,0.0,0.0,0.0,0.0,0.0432,0.0432,0.0494,0.0494,0.0309,0.037,0.0679,0.105,0.1359,0.1729,0.1915,0.1977,0.1977,0.1977,0.2406,0.3142,0.3142,0.0,0.0,0.6569,0.7429,0.8041,0.9329,0.9822,0.9822,0.9822,0.9822,0.9822,0.9822,0.9822,0.9822,0.9822,0.9879,1.0004,1.0183,1.0183,1.0183,1.0183,1.0122,1.0001,1.0183,1.0001,0.9819,0.9943,1.0122,1.0183,1.0183,1.0365,1.0486,1.0486,1.0849,1.1152,1.1273,1.1462,1.1683,1.1914,1.1926,1.1996,1.2174,1.2288,1.2406,1.2548,1.2503,1.2532,1.2714,1.22,1.1498,1.0767,0.9637,0.824,0.6441,0.5843,0.5176,0.4308,0.4308,0.4308,0.4308,0.4308,0.4308,0.4308,0.4308,0.4308,0.1795,0.1795,0.1795,0.1795,0.1795,0.1795,0.0,0.0,0.1795,0.1795,0.1795,0.1795,0.1795,0.1795,0.1795,0.1795,0.1795,0.1795,0.1795,0.1795,0.1818,0.0,0.0,0.0,0.0,0.0,0.0,0.0,0.0,0.0,0.0,0.0247,0.037,0.037,0.0123,0.0185,0.0494,0.0741,0.105,0.1482,0.1729,0.1915,0.2038,0.2406,0.308,0.3937,0.0,0.0,0.0,0.749,0.8102,0.8532,0.9454,0.9822,0.9822,0.9822,0.9822,0.9822,0.9822,0.9822,0.9822,0.9822,0.9822,0.9822,0.9822,0.9822,0.9822,0.9822,0.9822,0.9822,0.9822,0.9822,0.9822,0.9822,0.9822,0.9822,0.9822,1.0001,1.0122,1.0122,1.0607,1.1031,1.1152,1.1445,1.1768,1.195,1.2077,1.2178,1.2361,1.2487,1.2649,1.2637,1.2645,1.2698,1.2762,1.277,1.2371,1.1369,1.0902,0.9772,0.7774,0.6842,0.591,0.4908,0.4508,0.4308,0.4308,0.4308,0.4308,0.4308,0.4308,0.4308,0.1795,0.1795,0.1795,0.1795,0.1795,0.1795,0.1795,0.1795,0.1795,0.1795,0.1795,0.1795,0.1795,0.1795,0.1795,0.1795,0.1795,0.0,0.1795,0.1795,0.1818,0.0,0.0,0.0,0.0,0.0,0.0,0.0,0.0,0.0,0.0,0.0,0.0,0.0,0.0,0.0185,0.0494,0.0494,0.0864,0.1482,0.1482,0.1667,0.2038,0.3325,0.3875,0.0,0.0,0.0,0.0,0.7917,0.8653,0.9758,0.9822,0.9822,0.9822,0.9822,0.9822,0.9822,0.9822,0.9822,0.9822,0.9822,0.9822,0.9822,0.9822,0.9822,0.9822,0.9822,0.9822,0.9822,0.9822,0.9822,0.9822,0.9822,0.9822,0.9822,0.9822,0.9822,0.9822,0.9822,1.0061,1.0425,1.0728,1.1172,1.1596,1.1966,1.2186,1.2365,1.254,1.2624,1.2633,1.2746,1.277,1.277,1.277,1.277,1.277,1.277,1.1501,1.0704,1.0638,0.7907,0.6376,0.6376,0.5042,0.4308,0.4308,0.4308,0.4308,0.4308,0.4308,0.4308,0.1795,0.1795,0.1795,0.1795,0.1795,0.1795,0.1795,0.1795,0.1795,0.1795,0.1795,0.1795,0.1795,0.1795,0.1795,0.1795,0.1795,0.0,0.0,0.0,0.0,0.1879,0.0,0.0,0.0,0.0,0.0,0.0,0.0,0.0,0.0,0.0864,0.0925,0.0,0.0,0.0062,0.0185,0.0617,0.1357,0.2465,0.2896,0.3693,0.4674,0.5102,0.0,0.0,0.0,0.0,0.0,0.9207,0.9451,0.9822,0.9822,0.9822,0.9822,0.9822,0.9822,0.9822,0.9822,0.9822,0.9822,0.9822,0.9822,0.9822,0.9822,0.9822,0.9822,0.9822,0.9822,0.9822,0.9822,0.9822,0.9822,0.9822,0.9822,0.9822,0.9822,0.9822,0.9822,0.9822,1.0243,1.0668,1.0789,1.1356,1.1949,1.2199,1.2369,1.2548,1.2726,1.2751,1.2771,1.2832,1.277,1.277,1.277,1.277,1.277,1.277,1.2371,1.1703,1.077,0.9836,0.844,0.6441,0.5975,0.5242,0.4308,0.4308,0.4308,0.4308,0.4308,0.4308,0.1795,0.1795,0.1795,0.1795,0.1795,0.0,0.1795,0.1795,0.1795,0.1795,0.1795,0.1795,0.1795,0.1795,0.1795,0.1795,0.1795,0.1795,0.0,0.0,0.0,0.1879,0.0,0.0,0.0,0.0,0.0,0.0,0.0,0.0,0.0,0.2341,0.2341,0.1479,0.1479,0.1479,0.1479,0.2034,0.2772,0.3692,0.4183,0.4979,0.5896,0.6449,0.0,0.0,0.0,0.0,0.0,0.9822,0.9822,0.9822,0.9822,0.9822,0.9822,0.9822,0.9822,0.9822,0.9822,0.9822,0.9822,0.9822,0.9822,0.9822,0.9822,0.9822,0.9822,0.9822,0.9822,0.9822,0.9822,0.9822,0.9822,0.9822,0.9822,0.9822,0.9822,0.9822,0.9822,0.9822,1.0365,1.0808,1.0871,1.158,1.2194,1.2377,1.2552,1.271,1.2824,1.277,1.277,1.277,1.277,1.277,1.277,1.277,1.277,1.277,1.277,1.2437,1.1501,1.0969,0.9839,0.8041,0.6976,0.5975,0.5109,0.4575,0.4308,0.4308,0.4308,0.4308,0.0,0.1795,0.1795,0.1795,0.1795,0.1795,0.1795,0.1795,0.0,0.1795,0.1795,0.1795,0.1795,0.1795,0.1795,0.1795,0.1795,0.1795,0.0,0.1799,0.0,0.0,0.0,0.0,0.0,0.0,0.0,0.0,0.0,0.0,0.0,0.418,0.406,0.412,0.4182,0.412,0.3936,0.4301,0.4669,0.51,0.541,0.5778,0.6202,0.749,0.0,0.0,0.0,0.0,0.0,0.9822,0.9822,0.9822,0.9822,0.9822,0.9822,0.9822,0.9822,0.9822,0.9822,0.9822,0.9822,0.9822,0.9822,0.9822,0.9822,0.9822,0.9822,0.9822,0.9822,0.9822,0.9822,0.9822,0.9822,0.9822,0.9822,0.9822,0.9822,0.9822,0.9819,0.9819,1.0372,1.0917,1.1078,1.1819,1.2381,1.254,1.2718,1.277,1.277,1.277,1.277,1.277,1.277,1.277,1.277,1.277,1.277,1.277,1.277,1.277,1.277,1.1567,1.077,1.0704,0.7841,0.6376,0.6376,0.4975,0.4308,0.4308,0.4308,0.4309,0.1795,0.0,0.1795,0.1795,0.1795,0.1795,0.0,0.1795,0.1795,0.1795,0.1795,0.1795,0.1795,0.1795,0.1795,0.1795,0.1795,0.1795,0.1795,0.0,0.0,0.0,0.0,0.0,0.0,0.0,0.0,0.0,0.0,0.0,0.0,0.5165,0.5657,0.6202,0.6947,0.6333,0.4301,0.4856,0.5712,0.6811,0.7182,0.7858,0.89,0.9207,0.0,0.0,0.0,0.0,0.9822,0.9822,0.9822,0.9822,0.9822,0.9822,0.9822,0.9822,0.9822,0.9822,0.9822,0.9822,0.9822,0.9822,0.9822,0.9822,0.9822,0.9822,0.9822,0.9822,0.9822,0.9822,0.9822,0.9822,0.9822,0.9822,0.9822,0.9822,0.9822,1.0001,1.0183,1.0183,1.0832,1.1364,1.1406,1.2039,1.258,1.262,1.2718,1.277,1.277,1.277,1.277,1.277,1.277,1.277,1.277,1.277,1.277,1.277,1.277,1.277,1.277,1.2503,1.1769,1.0704,0.7841,0.6376,0.6376,0.4975,0.4308,0.4308,0.4308,0.4197,0.1791,0.1795,0.1795,0.1795,0.1795,0.1795,0.1795,0.1795,0.1795,0.1795,0.1795,0.1795,0.1795,0.1795,0.1795,0.1795,0.1795,0.0,0.0,0.0,0.0,0.0,0.0,0.0,0.0,0.0,0.0,0.0,0.0,0.0,0.0,0.7131,0.7439,0.7803,0.8482,0.8052,0.6449,0.6942,0.7553,0.8285,0.8593,0.9143,0.9822,0.9822,0.9822,0.0,0.0,0.0,0.9822,0.9822,0.9822,0.9822,0.9822,0.9822,0.9822,0.9822,0.9822,0.9822,0.9822,0.9822,0.9822,0.9822,0.9822,0.9822,0.9822,0.9822,0.9822,0.9822,0.9822,0.9822,0.9822,0.9822,0.9822,0.9822,0.9822,0.9822,0.9822,1.0061,1.0304,1.0304,1.0927,1.1561,1.1643,1.2191,1.2592,1.2678,1.2775,1.277,1.277,1.277,1.277,1.277,1.277,1.277,1.277,1.277,1.277,1.277,1.277,1.277,1.277,1.277,1.2169,1.0704,0.8507,0.7109,0.6376,0.4975,0.4308,0.4308,0.4172,0.4,0.1781,0.1791,0.1795,0.1795,0.1795,0.1795,0.1795,0.1795,0.1795,0.1795,0.1795,0.1795,0.1795,0.1795,0.0,0.0,0.0,0.0,0.0,0.0,0.0,0.0,0.0,0.0,0.0,0.0,0.0,0.0,0.0,0.0,0.0,0.9098,0.8915,0.9037,0.9217,0.9217,0.9037,0.9278,0.9396,0.9396,0.964,0.9822,0.9822,0.9822,0.9822,0.0,0.0,0.0,0.9822,0.9822,0.9822,0.9822,0.9822,0.9822,0.9822,0.9822,0.9822,0.9822,0.9822,0.9822,0.9822,0.9822,0.9822,0.9822,0.9822,0.9822,0.9822,0.9822,0.9822,0.9822,0.9822,0.9822,0.9822,0.9822,0.9822,0.9822,0.9883,1.0122,1.0365,1.0425,1.1068,1.1686,1.1838,1.2283,1.2657,1.2746,1.277,1.277,1.277,1.277,1.277,1.277,1.277,1.277,1.277,1.277,1.277,1.277,1.277,1.277,1.277,1.277,1.2235,1.1035,0.9637,0.8174,0.6708,0.5309,0.4508,0.4308,0.3979,0.374,0.181,0.1776,0.1795,0.1795,0.1795,0.1795,0.1795,0.1795,0.1795,0.1795,0.1795,0.1795,0.1795,0.1795,0.1795,0.0,0.0,0.0,0.0,0.0,0.0,0.0,0.0,0.0,0.0,0.0,0.0,0.0,0.0,0.0,0.0,0.9217,0.9159,0.964,0.9396,0.9396,0.964,0.97,0.97,0.97,0.9758,0.9822,0.9822,0.9822,0.9822,0.0,0.0,0.9822,0.9822,0.9822,0.9822,0.9822,0.9822,0.9822,0.9822,0.9822,0.9822,0.9822,0.9822,0.9822,0.9822,0.9822,0.9822,0.9822,0.9822,0.9822,0.9822,0.9822,0.9822,0.9822,0.9822,0.9822,0.9822,0.9822,0.9822,0.9879,1.0183,1.0486,1.0789,1.1091,1.1723,1.2209,1.2237,1.2516,1.2804,1.2832,1.277,1.277,1.277,1.277,1.277,1.277,1.277,1.277,1.277,1.277,1.277,1.277,1.277,1.277,1.277,1.277,1.2704,1.2503,1.1101,0.9706,0.824,0.6775,0.5443,0.4309,0.395,0.3656,0.1799,0.1828,0.1795,0.1795,0.1795,0.1795,0.1795,0.1795,0.1795,0.1795,0.1795,0.1795,0.0,0.0,0.2019,0.2688,0.0,0.0,0.0,0.0,0.0,0.0,0.0,0.0,0.0,0.0,0.0,0.0,0.0,0.0,0.0,0.0,0.9518,0.9822,0.964,0.964,0.9822,0.9822,0.9822,0.9822,0.9822,0.9822,0.9822,0.9822,0.9822,0.9822,0.0,0.9822,0.9822,0.9822,0.9822,0.9822,0.9822,0.9822,0.9822,0.9822,0.9822,0.9822,0.9822,0.9822,0.9822,0.9822,0.9822,0.9822,0.9822,0.9822,0.9822,0.9822,0.9822,0.9822,0.9822,0.9822,0.9822,0.9822,0.9822,0.9822,1.0001,1.0425,1.0876,1.1153,1.181,1.2337,1.243,1.2661,1.277,1.277,1.277,1.277,1.277,1.277,1.277,1.277,1.277,1.277,1.277,1.277,1.277,1.277,1.277,1.277,1.277,1.277,1.277,1.277,1.1435,1.0369,0.9706,0.7305,0.5794,0.5164,0.3835,0.3127,0.1679,0.1766,0.1795,0.1795,0.1795,0.1795,0.1795,0.1795,0.1795,0.1795,0.1795,0.0,0.0,0.2018,0.0,0.3469,0.0,0.0,0.0,0.0,0.0,0.0,0.0,0.0,0.0,0.0,0.0,0.0,0.0,0.0,0.0,0.0,0.9822,0.9822,0.9822,0.9822,0.9822,0.9822,0.9822,0.9822,0.9822,0.9822,0.9822,0.9822,0.9822,0.9822,0.9822,0.9822,0.9822,0.9822,0.9822,0.9822,0.9822,0.9822,0.9822,0.9822,0.9822,0.9822,0.9822,0.9822,0.9822,0.9822,0.9822,0.9822,0.9822,0.9822,0.9822,0.9822,0.9846,0.9866,0.9829,0.9822,0.9822,0.9822,0.9883,0.9943,0.9943,1.0454,1.1008,1.114,1.1838,1.241,1.254,1.2714,1.277,1.277,1.277,1.277,1.277,1.277,1.277,1.277,1.277,1.277,1.277,1.277,1.277,1.277,1.277,1.277,1.277,1.277,1.277,1.277,1.1769,1.1035,1.0704,0.7769,0.6213,0.5823,0.372,0.2728,0.144,0.175,0.1795,0.1795,0.1795,0.1795,0.1795,0.1795,0.1795,0.1795,0.0,0.0,0.0,0.2688,0.3525,0.0,0.0,0.0,0.0,0.0,0.0,0.0,0.0,0.0,0.0,0.0,0.0,0.0,0.0,0.0,0.0,0.0,0.0,0.9822,0.9822,0.9822,0.9822,0.9822,0.9822,0.9822,0.9822,0.9822,0.9822,0.9822,0.9822,0.9822,0.9822,0.9822,0.9822,0.9822,0.9822,0.9822,0.9822,0.9822,0.9822,0.9822,0.9822,0.9822,0.9822,0.9822,0.9822,0.9822,0.9822,0.9822,0.9822,0.9822,0.9822,0.9822,0.9862,0.9936,0.9859,0.9822,0.9822,0.9822,1.0061,1.0243,1.0243,1.0912,1.1456,1.1472,1.2055,1.2548,1.2624,1.2714,1.277,1.277,1.277,1.277,1.277,1.277,1.277,1.277,1.277,1.277,1.277,1.277,1.277,1.277,1.277,1.277,1.277,1.277,1.277,1.277,1.2704,1.2037,1.0704,0.8764,0.7152,0.5823,0.3753,0.2821,0.1598,0.1748,0.1795,0.1795,0.1795,0.1795,0.1795,0.1795,0.1795,0.1795,0.1795,0.0,0.0,0.0,0.0,0.0,0.0,0.0,0.0,0.0,0.0,0.0,0.0,0.0,0.0,0.0,0.0,0.0,0.0,0.0,0.0,0.0,0.0,0.9822,0.9822,0.9822,0.9822,0.9822,0.9822,0.9822,0.9822,0.9822,0.9822,0.9822,0.9822,0.9822,0.9822,0.9822,0.9822,0.9822,0.9822,0.9822,0.9822,0.9822,0.9822,0.9822,0.9822,0.9822,0.9822,0.9822,0.9822,0.9822,0.9822,0.9839,0.9872,0.9903,0.992,1.008,1.0148,1.0158,0.994,1.0036,1.0169,1.0353,1.0544,1.0669,1.0853,1.1338,1.1732,1.1834,1.2279,1.2601,1.2714,1.2791,1.277,1.277,1.277,1.277,1.277,1.277,1.277,1.277,1.277,1.277,1.277,1.277,1.277,1.277,1.277,1.277,1.277,1.277,1.277,1.277,1.277,1.2437,1.1707,0.9987,0.8332,0.6584,0.4784,0.3427,0.1608,0.1756,0.1795,0.1795,0.1795,0.1795,0.1795,0.1795,0.1795,0.1795,0.213,0.2632,0.3469,0.0,0.0,0.0,0.0,0.0,0.0,0.0,0.0,0.0,0.0,0.0,0.0,0.0,0.0,0.0,0.0,0.0,0.0,0.0,0.0,0.0,0.9822,0.9822,0.9822,0.9822,0.9822,0.9822,0.9822,0.9822,0.9822,0.9822,0.9822,0.9822,0.9822,0.9822,0.9822,0.9822,0.9822,0.9822,0.9822,0.9822,0.9822,0.9822,0.9822,0.9822,0.9822,0.9822,0.9822,0.9822,0.9822,0.9849,0.994,0.9987,1.0017,1.0236,1.0314,1.0324,1.0215,1.0232,1.0407,1.0725,1.0848,1.1042,1.1229,1.1714,1.2039,1.2089,1.2414,1.269,1.275,1.277,1.277,1.277,1.277,1.277,1.277,1.277,1.277,1.277,1.277,1.277,1.277,1.277,1.277,1.277,1.277,1.277,1.277,1.277,1.277,1.2638,1.2638,1.2507,1.2111,1.0517,0.8807,0.705,0.5384,0.3739,0.1469,0.1828,0.1795,0.1795,0.1795,0.1795,0.1795,0.1795,0.1795,0.1795,0.2744,0.358,0.3636,0.0,0.0,0.0,0.0,0.0,0.0,0.0,0.0,0.0,0.0,0.0,0.0,0.0,0.0,0.0,0.0,0.0,0.0,0.0,0.0,0.0,0.9822,0.9822,0.9822,0.9822,0.9822,0.9822,0.9822,0.9822,0.9822,0.9822,0.9822,0.9822,0.9822,0.9822,0.9822,0.9822,0.9822,0.9822,0.9822,0.9822,0.9822,0.9822,0.9822,0.9822,0.9822,0.9822,0.9822,0.9822,0.9822,0.9852,0.9943,0.999,1.0024,1.0243,1.0385,1.0493,1.0493,1.0388,1.041,1.0728,1.1046,1.1299,1.1299,1.1995,1.25,1.2177,1.2449,1.277,1.277,1.277,1.277,1.277,1.277,1.277,1.277,1.277,1.277,1.277,1.277,1.277,1.277,1.277,1.277,1.277,1.277,1.277,1.277,1.277,1.2638,1.2309,1.2309,1.2111,1.1784,1.0117,0.8539,0.705,0.5386,0.3811,0.1686,0.1828,0.1795,0.1795,0.0,0.0,0.1795,0.1795,0.1795,0.0,0.2744,0.3858,0.4693,0.0,0.0,0.0,0.0,0.0,0.0,0.0,0.0,0.0,0.0,0.0,0.0,0.0,0.0,0.0,0.0,0.0,0.0,0.0,0.0,0.0,0.9822,0.9822,0.9822,0.9822,0.9822,0.9822,0.9822,0.9822,0.9822,0.9822,0.9822,0.9822,0.9822,0.9822,0.9822,0.9822,0.9822,0.9822,0.9822,0.9822,0.9822,0.9822,0.9822,0.9822,0.9822,0.9822,0.9822,0.9822,0.9893,0.995,1.0164,1.0283,1.0392,1.0544,1.0619,1.0719,1.0916,1.0947,1.1047,1.1439,1.1765,1.2095,1.2287,1.2588,1.2689,1.2624,1.2668,1.277,1.277,1.277,1.277,1.277,1.277,1.277,1.277,1.277,1.277,1.277,1.277,1.277,1.277,1.277,1.277,1.277,1.277,1.277,1.277,1.2572,1.2375,1.2309,1.2045,1.184,1.1623,1.1155,0.9564,0.6873,0.6461,0.4853,0.1756,0.1781,0.1795,0.1795,0.1795,0.1907,0.2409,0.0,0.0,0.0,0.386,0.5198,0.5922,0.0,0.0,0.0,0.0,0.0,0.0,0.0,0.0,0.0,0.0,0.0,0.0,0.0,0.0,0.0,0.0,0.0,0.0,0.0,0.0,0.0,0.9822,0.9822,0.9822,0.9822,0.9822,0.9822,0.9822,0.9822,0.9822,0.9822,0.9822,0.9822,0.9822,0.9822,0.9822,0.9822,0.9822,0.9822,0.9822,0.9822,0.9822,0.9822,0.9822,0.9822,0.9822,0.9822,0.9822,0.9822,0.9883,0.9926,1.0141,1.029,1.0439,1.0588,1.0739,1.092,1.1181,1.1446,1.1714,1.1912,1.2177,1.2375,1.2704,1.277,1.277,1.277,1.277,1.277,1.277,1.277,1.277,1.277,1.277,1.277,1.277,1.277,1.277,1.277,1.277,1.277,1.277,1.277,1.277,1.277,1.277,1.277,1.2638,1.2441,1.2243,1.2111,1.178,1.1463,1.1286,1.1437,1.0183,0.7693,0.7217,0.5668,0.1779,0.1795,0.1795,0.1795,0.1907,0.0,0.3469,0.386,0.3914,0.3804,0.0,0.7096,0.0,0.0,0.0,0.0,0.0,0.0,0.0,0.0,0.0,0.0,0.0,0.0,0.0,0.0,0.0,0.0,0.0,0.0,0.0,0.0,0.0,0.0,0.9822,0.9822,0.9822,0.9822,0.9822,0.0,0.9822,0.9822,0.9822,0.9822,0.9822,0.9822,0.9822,0.9822,0.9822,0.9822,0.9822,0.9822,0.9822,0.9822,0.9822,0.9822,0.9822,0.9822,0.9822,0.9822,0.9822,0.9819,0.9829,0.9869,1.0005,1.0221,1.0374,1.0514,1.0854,1.123,1.131,1.1776,1.2309,1.2309,1.2375,1.2441,1.2704,1.277,1.277,1.277,1.277,1.277,1.277,1.277,1.277,1.277,1.277,1.277,1.277,1.277,1.277,1.277,1.277,1.277,1.277,1.277,1.277,1.277,1.277,1.2638,1.2375,1.2309,1.2111,1.178,1.138,1.1066,1.09,1.1097,1.0471,0.9054,0.7796,0.632,0.1785,0.1795,0.1795,0.1795,0.2521,0.3525,0.4749,0.5697,0.6091,0.5194,0.6144,0.0,0.0,0.0,0.0,0.0,0.0,0.0,0.0,0.0,0.0,0.0,0.0,0.0,0.0,0.0,0.0,0.0,0.0,0.0,0.0,0.0,0.0,0.9822,0.9822,0.9822,0.9822,0.9822,0.9822,0.0,0.9822,0.9822,0.9822,0.9822,0.9822,0.9822,0.9822,0.9822,0.9822,0.9822,0.9822,0.9822,0.9822,0.9822,0.9822,0.9822,0.9822,0.9822,0.9822,0.9822,0.9822,1.0122,1.0267,1.0376,1.0408,1.0531,1.0693,1.0841,1.0969,1.1221,1.1875,1.2177,1.2375,1.2638,1.2704,1.2704,1.277,1.277,1.277,1.277,1.277,1.277,1.277,1.277,1.277,1.277,1.277,1.277,1.277,1.277,1.277,1.277,1.277,1.277,1.277,1.277,1.277,1.277,1.277,1.277,1.2704,1.2177,1.1714,1.1317,1.0982,1.092,1.1118,1.1148,1.0521,0.9253,0.8914,0.7336,0.1787,0.2242,0.28,0.3357,0.0,0.5421,0.6089,0.7093,0.782,0.7202,0.0,0.0,0.0,0.0,0.0,0.0,0.0,0.0,0.0,0.0,0.0,0.0,0.0,0.0,0.0,0.0,0.0,0.0,0.0,0.0,0.0,0.9822,0.9822,0.9822,0.9822,0.9822,0.9822,0.9822,0.9822,0.9822,0.9822,0.9822,0.9822,0.9822,0.9822,0.9822,0.9822,0.9822,0.9822,0.9822,0.9822,0.9822,0.9822,0.9822,0.9822,0.9822,0.9822,0.9822,0.9822,0.9822,0.9883,1.0183,1.0361,1.0429,1.0613,1.0791,1.094,1.0953,1.1212,1.161,1.2026,1.2374,1.2572,1.277,1.277,1.277,1.277,1.277,1.277,1.277,1.277,1.277,1.277,1.277,1.277,1.277,1.277,1.277,1.277,1.277,1.277,1.277,1.277,1.277,1.277,1.277,1.277,1.277,1.277,1.2638,1.2309,1.1978,1.1714,1.1516,1.0986,1.0833,1.106,1.1128,1.0858,1.0283,0.9626,0.842,0.2067,0.2967,0.4193,0.5417,0.6424,0.0,0.7376,0.8156,0.8885,0.0,0.0,0.0,0.0,0.0,0.0,0.0,0.0,0.0,0.0,0.0,0.0,0.0,0.0,0.0,0.0,0.0,0.0,0.0,0.0,0.0,0.9822,0.9822,0.9822,0.9822,0.9822,0.9822,0.9822,0.9822,0.9822,0.9822,0.9822,0.9822,0.9822,0.9822,0.9822,0.9822,0.9822,0.9822,0.9822,0.9822,0.9822,0.9822,0.9822,0.9822,0.9822,0.9822,0.9822,0.9822,0.9822,0.9822,0.9883,1.0243,1.0365,1.0425,1.0789,1.0947,1.1063,1.1093,1.1484,1.1962,1.2057,1.239,1.2791,1.2791,1.2746,1.277,1.277,1.277,1.2762,1.2795,1.2763,1.2681,1.2681,1.2767,1.2791,1.2791,1.2816,1.277,1.277,1.277,1.277,1.277,1.277,1.277,1.277,1.277,1.277,1.277,1.277,1.2507,1.1912,1.1846,1.178,1.1714,1.1052,1.0795,1.088,1.1094,1.1243,1.1392,1.0245,0.9579,0.3078,0.4249,0.5417,0.0,0.6985,0.7376,0.0,0.0,0.8885,0.0,0.0,0.0,0.0,0.0,0.0,0.0,0.0,0.0,0.0,0.0,0.0,0.0,0.0,0.0,0.0,0.0,0.0,0.0,0.0,0.0,0.9822,0.9822,0.9822,0.9822,0.9822,0.9822,0.9822,0.9822,0.9822,0.9822,0.9822,0.9822,0.9822,0.9822,0.9822,0.9822,0.9822,0.9822,0.9822,0.9822,0.9822,0.9822,0.9822,0.9822,0.9822,0.9822,0.9822,0.9822,0.9822,0.9822,0.9883,1.0547,1.0728,1.0789,1.1152,1.1228,1.1278,1.1429,1.1507,1.1697,1.217,1.2471,1.2601,1.2601,1.2722,1.277,1.277,1.277,1.2791,1.2629,1.2479,1.2377,1.2377,1.2499,1.2601,1.2601,1.2735,1.277,1.277,1.277,1.277,1.277,1.277,1.277,1.277,1.277,1.277,1.277,1.277,1.2638,1.2243,1.1978,1.1648,1.1317,1.092,1.0795,1.088,1.1094,1.1243,1.1396,1.1331,1.0599,0.5073,0.5922,0.6647,0.0,0.81,0.8269,0.8771,0.0,0.0,0.0,0.0,0.0,0.0,0.0,0.0,0.0,0.0,0.0,0.0,0.0,0.0,0.0,0.0,0.0,0.0,0.0,0.0,0.0,0.0,0.9822,0.9822,0.9822,0.9822,0.9822,0.9822,0.9822,0.9822,0.9822,0.9822,0.9822,0.9822,0.9822,0.9822,0.9822,0.9822,0.9822,0.9822,0.9822,0.9822,0.9822,0.9822,0.9822,0.9822,0.9822,0.9822,0.9822,0.9822,0.9822,0.9822,0.9822,0.9883,1.0607,1.0789,1.091,1.1402,1.1587,1.1603,1.1622,1.1709,1.1801,1.2067,1.2284,1.2422,1.2422,1.2483,1.254,1.254,1.2617,1.2629,1.2454,1.2357,1.2308,1.2308,1.2369,1.2422,1.2422,1.2572,1.2682,1.2682,1.2775,1.277,1.277,1.277,1.277,1.277,1.277,1.277,1.277,1.2638,1.2375,1.2045,1.1648,1.1317,1.0916,1.0787,1.0755,1.0819,1.0972,1.1118,1.1267,1.1419,1.1174,0.6516,0.7321,0.7768,0.866,0.8885,0.8885,0.0,0.0,0.0,0.0,0.0,0.0,0.0,0.0,0.0,0.0,0.0,0.0,0.0,0.0,0.0,0.0,0.0,0.0,0.0,0.0,0.0,0.0,0.0,0.9822,0.9822,0.9822,0.9822,0.9822,0.9822,0.9822,0.9822,0.9822,0.9822,0.9822,0.9822,0.9822,0.9822,0.9822,0.9822,0.9822,0.9822,0.9822,0.9822,0.9822,0.9822,0.9822,0.9822,0.9822,0.9822,0.9822,0.9822,0.9822,0.9822,0.9822,0.9883,1.0607,1.0789,1.0914,1.1591,1.1776,1.1776,1.1776,1.1866,1.1967,1.1967,1.2101,1.2235,1.2235,1.2272,1.2308,1.2308,1.2373,1.2389,1.2264,1.2203,1.217,1.217,1.2207,1.2235,1.2235,1.2385,1.2515,1.262,1.2682,1.2783,1.2832,1.277,1.277,1.277,1.277,1.277,1.277,1.2507,1.2177,1.178,1.138,1.1049,1.0721,1.0721,1.0721,1.0721,1.0806,1.1023,1.1165,1.1318,1.1474,0.676,0.7934,0.0,0.8881,0.8885,0.8885,0.0,0.0,0.0,0.0,0.0,0.0,0.0,0.0,0.0,0.0,0.0,0.0,0.0,0.0,0.0,0.0,0.0,0.0,0.0,0.0,0.0,0.0,0.0,0.9822,0.9822,0.9822,0.9822,0.9822,0.9822,0.9822,0.9822,0.9822,0.9822,0.9822,0.9822,0.9822,0.9822,0.9822,0.9822,0.9822,0.9822,0.9822,0.9822,0.9822,0.9822,0.9822,0.9822,0.9822,0.9822,0.9822,0.9822,0.9822,0.9822,0.9822,0.9883,1.0607,1.0789,1.0914,1.1591,1.1776,1.1776,1.1776,1.1784,1.1788,1.1788,1.1914,1.2044,1.2044,1.2178,1.2308,1.2308,1.2174,1.2056,1.2048,1.1914,1.1805,1.1805,1.1939,1.2044,1.2044,1.2203,1.2381,1.2608,1.2637,1.2645,1.282,1.277,1.277,1.277,1.277,1.277,1.277,1.2507,1.2177,1.178,1.138,1.1049,1.0721,1.0721,1.0721,1.0721,1.0806,1.1023,1.1165,1.1318,1.1474,0.0,0.0,0.0,0.8885,0.8885,0.8885,0.8885,0.0,0.0,0.0,0.0,0.0,0.0,0.0,0.0,0.0,0.0,0.0,0.0,0.0,0.0,0.0,0.0,0.0,0.0,0.0,0.0,0.0,0.0,0.0,0.9686,0.9771,0.9822,0.9822,0.9822,0.9822,0.9822,0.9822,0.9822,0.9822,0.9822,0.9822,0.9822,0.9822,0.9822,0.9822,0.9822,0.9822,0.9822,0.9822,0.9822,0.9822,0.9822,0.9822,0.9822,0.9822,0.9822,0.9822,0.9822,0.9822,0.9883,1.0607,1.0789,1.0914,1.1591,1.1776,1.1776,1.1776,1.1776,1.1776,1.1776,1.1821,1.1866,1.1866,1.1918,1.1967,1.1967,1.1914,1.1866,1.1866,1.1817,1.1776,1.1776,1.1829,1.1866,1.1866,1.2016,1.215,1.2215,1.2422,1.2588,1.2653,1.2767,1.277,1.277,1.277,1.2704,1.2507,1.2177,1.178,1.1446,1.1052,1.0853,1.0721,1.0721,1.0721,1.0721,1.0775,1.088,1.1029,1.1175,1.1324,0.8452,0.0,0.0,0.0,0.8885,0.8885,0.8885,0.0,0.0,0.0,0.0,0.0,0.0,0.0,0.0,0.0,0.0,0.0,0.0,0.0,0.0,0.0,0.0,0.0,0.0,0.0,0.0,0.0,0.0,0.0,0.9605,0.97,0.9771,0.9819,0.9822,0.9822,0.9822,0.9822,0.9822,0.9822,0.9822,0.9822,0.9822,0.9822,0.9822,0.9822,0.9822,0.9822,0.9822,0.9822,0.9822,0.9822,0.9822,0.9822,0.9822,0.9822,0.9822,0.9822,0.994,0.9943,1.0061,1.0607,1.091,1.1031,1.1522,1.1712,1.1776,1.1776,1.1776,1.1776,1.1776,1.1776,1.1776,1.1776,1.1776,1.1776,1.1776,1.1776,1.1776,1.1776,1.1776,1.1776,1.1776,1.1776,1.1776,1.1776,1.187,1.1963,1.1962,1.2235,1.243,1.2616,1.2674,1.2771,1.2832,1.2704,1.2572,1.2309,1.1846,1.1446,1.1181,1.085,1.0721,1.0721,1.0721,1.0721,1.0721,1.0721,1.0799,1.0884,1.1046,1.1199,0.0,0.0,0.0,0.0,0.0,0.0,0.8885,0.0,0.0,0.0,0.0,0.0,0.0,0.0,0.0,0.0,0.0,0.0,0.0,0.0,0.0,0.0,0.0,0.0,0.0,0.0,0.0,0.0,0.0,0.9439,0.9588,0.9605,0.9673,0.9812,0.9819,0.9822,0.9822,0.9822,0.9822,0.9822,0.9822,0.9822,0.9822,0.9822,0.9822,0.9822,0.9822,0.9822,0.9822,0.9822,0.9822,0.9822,0.9822,0.9822,0.9822,0.9822,0.9822,0.9883,1.0183,1.0304,1.0365,1.0668,1.1031,1.1273,1.1333,1.1522,1.1776,1.1776,1.1776,1.1776,1.1776,1.1776,1.1776,1.1776,1.1776,1.1776,1.1776,1.1776,1.1776,1.1776,1.1776,1.1776,1.1776,1.1776,1.1776,1.1776,1.1776,1.1837,1.2,1.2028,1.2162,1.2511,1.262,1.2633,1.2746,1.2503,1.2309,1.2243,1.1582,1.1181,1.1181,1.0853,1.0721,1.0721,1.0721,1.0721,1.0721,1.0721,1.0795,1.0873,1.088,1.1107,0.8352,0.0,0.0,0.0,0.0,0.0,0.0,0.0,0.0,0.0,0.0,0.0,0.0,0.0,0.0,0.0,0.0,0.0,0.0,0.0,0.0,0.0,0.0,0.0,0.0,0.0,0.0,0.0,0.9133,0.9292,0.9333,0.949,0.9629,0.9666,0.9768,0.9822,0.9822,0.9822,0.9822,0.9822,0.9822,0.9822,0.9822,0.9822,0.9822,0.9822,0.9822,0.9822,0.9822,0.9822,0.9822,0.9822,1.0065,1.0183,1.0183,1.0183,1.0183,1.0122,1.0001,0.994,1.0001,1.0607,1.0849,1.1031,1.1526,1.1712,1.1776,1.1776,1.1776,1.1776,1.1776,1.1776,1.1776,1.1776,1.1776,1.1776,1.1776,1.1776,1.1776,1.1776,1.1776,1.1776,1.1776,1.1776,1.1776,1.1776,1.1776,1.1792,1.1841,1.1955,1.2069,1.2166,1.241,1.252,1.2244,1.23,1.2045,1.1512,1.1314,1.1115,1.0853,1.0721,1.0721,1.0721,1.0721,1.0721,1.0721,1.0721,1.0741,1.0785,1.083,1.1107,0.0,0.0,0.0,0.0,0.0,0.0,0.8885,0.8885,0.0,0.0,0.0,0.0,0.0,0.0,0.0,0.0,0.0,0.0,0.0,0.0,0.0,0.0,0.0,0.0,0.0,0.0,0.0,0.8885,0.9015,0.9089,0.9207,0.9384,0.9513,0.9513,0.9656,0.9734,0.9734,0.9791,0.9822,0.9822,0.9822,0.9822,0.9822,0.9822,0.9822,0.9822,0.9822,0.9822,0.9822,0.9822,0.9822,0.9819,1.0183,1.0304,1.0304,1.0486,1.0486,1.0486,1.0304,1.0243,1.0243,1.0486,1.0789,1.1031,1.1281,1.1591,1.1776,1.1776,1.1776,1.1776,1.1776,1.1776,1.1776,1.1776,1.1776,1.1776,1.1776,1.1776,1.1776,1.1776,1.1776,1.1776,1.1776,1.1776,1.1776,1.1776,1.1776,1.1776,1.1587,1.1671,1.1701,1.1649,1.1842,1.1956,1.1839,1.1812,1.1571,1.1244,1.1052,1.092,1.0721,1.0721,1.0721,1.0721,1.0721,1.0721,1.0721,1.0721,1.0721,1.0724,1.0809,1.0971,0.0,0.0,0.0,0.0,0.0,0.0,0.8878,0.8885,0.8885,0.0,0.0,0.0,0.0,0.0,0.0,0.0,0.0,0.0,0.0,0.0,0.0,0.0,0.0,0.0,0.0,0.8885,0.8885,0.8885,0.8885,0.8994,0.918,0.9273,0.9357,0.9357,0.9503,0.9591,0.9608,0.9734,0.9805,0.9822,0.9822,0.9822,0.9822,0.9822,0.9822,0.9883,0.9883,0.9883,0.9883,0.9883,0.9819,0.9819,1.0183,1.0304,1.0365,1.0668,1.0849,1.0849,1.0789,1.0789,1.0728,1.0425,1.0789,1.1212,1.091,1.1281,1.1776,1.1776,1.1776,1.1776,1.1776,1.1776,1.1776,1.1776,1.1776,1.1776,1.1776,1.1776,1.1776,1.1776,1.1776,1.1776,1.1776,1.1776,1.1776,1.1776,1.1712,1.1647,1.1273,1.1212,1.121,1.1059,1.1093,1.1224,1.1452,1.1185,1.1004,1.1146,1.0843,1.0721,1.0721,1.0721,1.0721,1.0721,1.0721,1.0721,1.0721,1.0721,1.0721,1.0724,1.0793,1.0863,0.0,0.0,0.0,0.0,0.0,0.0,0.8854,0.8885,0.8885,0.0,0.0,0.0,0.0,0.0,0.0,0.0,0.0,0.0,0.0,0.0,0.0,0.0,0.0,0.0,0.0,0.8885,0.8885,0.8885,0.8885,0.8895,0.8981,0.912,0.9255,0.9255,0.9347,0.9486,0.9608,0.9639,0.9707,0.9822,0.9822,0.9822,0.9822,0.9822,0.994,1.0183,1.0183,1.0183,1.0183,1.0183,1.0061,0.9819,1.0183,1.0486,1.0728,1.0789,1.097,1.1152,1.091,1.0607,1.0425,1.0668,1.0789,1.097,1.1152,1.1462,1.1776,1.1776,1.1776,1.1776,1.1776,1.1776,1.1776,1.1776,1.1776,1.1776,1.1776,1.1776,1.1776,1.1776,1.1776,1.1776,1.1776,1.1776,1.1712,1.1458,1.1398,1.1277,1.097,1.091,1.0861,1.0834,1.1022,1.1006,1.0757,1.0866,1.0893,1.0664,1.0649,1.0721,1.0721,1.0721,1.0721,1.0721,1.0721,1.0721,1.0721,1.0721,1.0721,1.0721,1.0751,1.0829,0.0,0.0,0.0,0.8451,0.0,0.0,0.0,0.8828,0.8885,0.8885,0.0,0.0,0.0,0.0,0.0,0.0,0.0,0.0,0.0,0.0,0.0,0.0,0.0,0.0,0.0,0.8885,0.8885,0.8885,0.8885,0.8885,0.8885,0.9008,0.9045,0.9045,0.9188,0.9361,0.9381,0.9456,0.9568,0.9717,0.9717,0.9751,0.9822,0.9822,0.9879,1.0061,1.0243,1.0304,1.0304,1.0486,1.0365,1.0061,1.0425,1.0668,1.0849,1.116,1.1405,1.1522,1.1156,1.097,1.0789,1.0789,1.0789,1.0849,1.1212,1.1522,1.1776,1.1776,1.1776,1.1776,1.1776,1.1776,1.1776,1.1776,1.1776,1.1776,1.1776,1.1776,1.1776,1.1776,1.1651,1.1587,1.1776,1.1651,1.1462,1.1333,1.1152,1.091,1.0607,1.0547,1.0486,1.0304,1.0379,1.0396,1.0291,1.0374,1.0526,1.0483,1.0565,1.0639,1.0717,1.0721,1.0721,1.0721,1.0721,1.0721,1.0721,1.0721,1.0721,1.0721,1.0721,1.0761,0.0,0.0,0.0,0.0,0.0,0.8638,0.0,0.0,0.0,0.8878,0.0,0.0,0.0,0.0,0.0,0.0,0.0,0.0,0.0,0.0,0.0,0.0,0.0,0.0,0.0,0.8885,0.8885,0.8885,0.8885,0.8885,0.8885,0.8885,0.8885,0.8885,0.9052,0.918,0.921,0.9333,0.9415,0.9564,0.9595,0.9669,0.9781,0.9808,0.9883,1.0004,1.0304,1.0425,1.0486,1.0789,1.0728,1.0425,1.0607,1.0728,1.0849,1.1405,1.1712,1.1776,1.1462,1.1333,1.1273,1.097,1.0849,1.0849,1.1277,1.1522,1.1712,1.1776,1.1776,1.1776,1.1712,1.1776,1.1776,1.1712,1.1712,1.1712,1.1712,1.1712,1.1712,1.1712,1.1522,1.1462,1.1651,1.1402,1.1152,1.1091,1.091,1.0607,1.0243,1.0183,1.0122,0.9819,0.9822,0.9869,0.9933,0.997,1.0088,1.0392,1.0436,1.0517,1.067,1.0704,1.0721,1.0721,1.0721,1.0721,1.0721,1.0721,1.0721,1.0721,1.0721,1.0721,0.0,0.0,0.0,0.0,0.8357,0.0,0.0,0.0,0.8774,0.8854,0.0,0.0,0.0,0.0,0.0,0.0,0.0,0.0,0.0,0.0,0.0,0.0,0.0,0.0,0.0,0.0,0.8885,0.8885,0.8885,0.8885,0.8885,0.8885,0.8885,0.8885,0.8898,0.9025,0.9207,0.9228,0.9313,0.9408,0.9544,0.9618,0.9639,0.9764,1.0126,1.0668,1.0728,1.091,1.1212,1.1212,1.1031,1.0728,1.0486,1.0547,1.0789,1.091,1.1281,1.1776,1.1776,1.1522,1.1273,1.1273,1.1031,1.0914,1.1526,1.1587,1.1398,1.1712,1.1776,1.1712,1.1458,1.1587,1.1712,1.1458,1.1333,1.1333,1.1333,1.1333,1.1333,1.1333,1.1587,1.1651,1.1398,1.1091,1.0789,1.0486,1.0365,1.0243,0.9883,0.9883,0.9822,0.9822,0.9822,0.9829,0.9846,0.9909,1.0,1.0034,1.0229,1.0368,1.051,1.0649,1.0721,1.0721,1.0721,1.0721,1.0721,1.0721,1.0721,1.0721,1.0721,1.0721,0.0,0.0,0.0,0.0,0.0,0.0,0.0,0.0,0.8598,0.0,0.0,0.0,0.0,0.0,0.0,0.0,0.0,0.0,0.0,0.0,0.0,0.0,0.0,0.0,0.0,0.0,0.0,0.0,0.0,0.8885,0.8885,0.8885,0.8885,0.8885,0.8885,0.8967,0.9028,0.9028,0.9103,0.9306,0.9313,0.9391,0.9479,0.954,0.9801,1.0214,1.0447,1.0739,1.1129,1.1367,1.1307,1.1091,1.097,1.097,1.1091,1.1281,1.1591,1.1776,1.1776,1.1712,1.1587,1.1333,1.1337,1.1345,1.1281,1.1277,1.1333,1.1462,1.1341,1.122,1.1273,1.1277,1.116,1.1031,1.1152,1.1273,1.1273,1.1458,1.1587,1.1587,1.1402,1.116,1.1031,1.091,1.0668,1.0365,1.0122,0.9943,0.9822,0.9822,0.9822,0.9822,0.9822,0.9822,0.9822,0.988,0.9893,0.998,1.0195,1.0344,1.0487,1.0555,1.0629,1.0717,1.0721,1.0721,1.0721,1.0721,1.0721,1.0721,1.0721,1.0721,0.2923,0.0,0.0,0.0,0.0,0.0,0.0,0.0,0.0,0.0,0.0,0.0,0.0,0.0,0.0,0.0,0.0,0.0,0.0,0.0,0.0,0.0,0.0,0.0,0.0,0.0,0.0,0.8885,0.8885,0.8885,0.8885,0.8885,0.8885,0.8885,0.8885,0.8885,0.8885,0.8885,0.8991,0.9093,0.919,0.9268,0.932,0.9361,0.961,0.9957,1.0185,1.0604,1.1071,1.1306,1.141,1.1323,1.1323,1.1415,1.1462,1.1587,1.1712,1.1776,1.1776,1.1776,1.1776,1.1522,1.1522,1.1587,1.122,1.1156,1.1333,1.1398,1.1216,1.097,1.1212,1.1091,1.097,1.097,1.1091,1.1273,1.1273,1.1462,1.1651,1.1526,1.1216,1.091,1.0668,1.0607,1.0425,1.0183,0.9943,0.9822,0.9822,0.9822,0.9822,0.9822,0.9822,0.9822,0.9822,0.9822,0.9869,0.9916,1.0131,1.0263,1.0365,1.0412,1.0504,1.0656,1.0656,1.0677,1.0721,1.0721,1.0721,1.0721,1.0721,1.0721,0.0,0.0,0.0,0.4574,0.0,0.0,0.0,0.0,0.8368,0.0,0.0,0.0,0.0,0.0,0.0,0.0,0.0,0.0,0.0,0.0,0.0,0.0,0.0,0.0,0.0,0.0,0.0,0.8885,0.8885,0.8885,0.8885,0.8885,0.8885,0.8885,0.8885,0.8885,0.8885,0.8885,0.8885,0.8892,0.9086,0.921,0.9221,0.9313,0.9726,1.0301,1.0301,1.0651,1.117,1.1232,1.1342,1.1508,1.1508,1.1618,1.1776,1.1458,1.1522,1.1776,1.1776,1.1776,1.1776,1.1776,1.1587,1.1398,1.1651,1.1522,1.1398,1.1712,1.1522,1.1273,1.1273,1.1273,1.1273,1.1273,1.1273,1.1273,1.1273,1.1333,1.1212,1.091,1.1091,1.1091,1.0425,1.0061,0.9819,0.9822,0.9822,0.9822,0.9822,0.9822,0.9822,0.9822,0.9822,0.9822,0.9822,0.9822,0.9822,0.9829,0.9909,0.9997,1.0,1.0209,1.0354,1.0497,1.05,1.0571,1.0721,1.0721,1.0721,1.0721,1.0721,1.0721,0.0,0.0,0.3274,0.3674,0.0,0.0,0.0,0.0,0.0,0.0,0.0,0.0,0.0,0.0,0.0,0.0,0.0,0.0,0.0,0.0,0.0,0.0,0.0,0.0,0.0,0.0,0.0,0.8885,0.8885,0.8885,0.0,0.8885,0.8885,0.8885,0.8885,0.8885,0.8885,0.8885,0.8885,0.8885,0.8988,0.9011,0.9015,0.9066,0.9311,0.9704,0.9868,1.0269,1.077,1.0997,1.1159,1.1317,1.1317,1.1427,1.1606,1.1607,1.1712,1.1776,1.1776,1.1776,1.1776,1.1776,1.1712,1.1587,1.1522,1.1398,1.1333,1.1458,1.1216,1.1031,1.1212,1.1152,1.091,1.0668,1.0789,1.091,1.0668,1.0789,1.097,1.0849,1.0728,1.0547,1.0365,1.0004,0.9822,0.9822,0.9822,0.9822,0.9822,0.9822,0.9822,0.9822,0.9822,0.9822,0.9822,0.9822,0.9822,0.9822,0.9869,0.9883,0.9984,1.01,1.0243,1.0487,1.049,1.0568,1.0721,1.0721,1.0721,1.0721,1.0455,1.0522,0.1617,0.212,0.0,0.2622,0.3423,0.0,0.4225,0.0,0.0,0.0,0.0,0.0,0.0,0.0,0.0,0.0,0.0,0.0,0.0,0.8842,0.0,0.0,0.0,0.0,0.0,0.0,0.8885,0.8885,0.8885,0.8885,0.0,0.0,0.8885,0.8885,0.8885,0.8885,0.8885,0.8885,0.8885,0.8885,0.8885,0.8885,0.8885,0.9051,0.9268,0.9544,0.9871,1.0208,1.0592,1.0703,1.092,1.1135,1.1016,1.1125,1.1423,1.161,1.1719,1.1776,1.1776,1.1776,1.1776,1.1776,1.1776,1.1776,1.1522,1.1462,1.1462,1.1462,1.1216,1.1031,1.1398,1.1156,1.0789,1.0668,1.0728,1.0728,1.0547,1.0668,1.0789,1.0668,1.0425,1.0243,1.0122,0.994,0.9822,0.9822,0.9822,0.9822,0.9822,0.9822,0.9822,0.9822,0.9822,0.9822,0.9822,0.9822,0.9822,0.9822,0.97,0.9683,0.9718,0.9663,0.9712,1.0011,1.0018,1.0113,1.0244,1.0244,1.0274,1.0323,1.0127,1.0127]},{"header":{"parameterUnit":"m.s-1","parameterCategory":1,"la1":30.6,"la2":29.2853,"lo1":-89.7004,"lo2":-87.6739,"dy":0.0162,"dx":0.0183,"nx":112,"ny":82,"refTime":"2023-09-17T00:00:00:Z","depth":0,"parameterNumber":3,"parameterNumberName":"V-component_of_WINDS"},"data":[0.0,0.0,0.0,0.0,0.0,0.0,0.0,0.0,0.0,0.0,0.0,0.0,0.0,0.0,0.0,0.0,0.0,0.0,0.0,0.0,0.0,0.0,0.0,0.0,0.0,0.0,0.0,0.0,0.0,0.0,0.0,0.0,0.0,0.0,0.0,0.0,0.0,0.0,0.0,0.0,0.0,0.0,0.0,0.0,0.0,0.0,0.0,0.0,0.0,0.0,0.0,0.0,0.0,0.0,0.0,0.0,0.0,0.0,0.0,0.0,0.0,0.0,0.0,0.0,0.0,0.0,0.0,0.0,0.0,0.0,0.0,0.0,0.0,0.0,0.0,0.0,0.0,0.0,0.0,0.0,0.0,0.0,0.0,0.0,0.0,0.0,0.0,0.0,0.0,0.0,0.0,4.4802,4.5297,4.5563,4.5574,4.553,4.5438,4.5307,0.0,0.0,0.0,0.0,0.0,0.0,0.0,0.0,0.0,0.0,0.0,0.0,0.0,0.0,0.0,0.0,0.0,0.0,0.0,0.0,0.0,0.0,0.0,0.0,0.0,0.0,0.0,0.0,0.0,0.0,0.0,0.0,0.0,0.0,0.0,0.0,0.0,0.0,0.0,0.0,0.0,0.0,0.0,0.0,0.0,0.0,0.0,0.0,0.0,0.0,0.0,0.0,0.0,0.0,0.0,0.0,0.0,0.0,0.0,0.0,0.0,0.0,0.0,0.0,0.0,0.0,0.0,0.0,0.0,0.0,0.0,0.0,0.0,0.0,0.0,0.0,0.0,0.0,0.0,0.0,0.0,0.0,0.0,0.0,0.0,0.0,0.0,0.0,0.0,0.0,0.0,0.0,0.0,0.0,0.0,0.0,0.0,0.0,0.0,0.0,0.0,0.0,0.0,0.0,4.449,4.5231,4.5389,4.5438,4.5429,4.5429,4.5379,4.5307,0.0,0.0,0.0,0.0,0.0,0.0,0.0,0.0,0.0,0.0,0.0,0.0,0.0,0.0,0.0,0.0,0.0,0.0,0.0,0.0,0.0,0.0,0.0,0.0,0.0,0.0,0.0,0.0,0.0,0.0,0.0,0.0,0.0,0.0,0.0,0.0,0.0,0.0,0.0,0.0,0.0,0.0,0.0,0.0,0.0,0.0,0.0,0.0,0.0,0.0,0.0,0.0,0.0,0.0,0.0,0.0,0.0,0.0,0.0,0.0,0.0,0.0,0.0,0.0,0.0,0.0,0.0,0.0,0.0,0.0,0.0,0.0,0.0,0.0,0.0,0.0,0.0,0.0,0.0,0.0,0.0,0.0,0.0,0.0,0.0,0.0,0.0,0.0,0.0,0.0,0.0,0.0,0.0,0.0,0.0,0.0,0.0,0.0,0.0,0.0,0.0,0.0,0.0,4.4839,4.515,4.5522,4.5466,4.54,4.5409,4.5399,4.5398,4.5367,4.5419,0.0,0.0,0.0,0.0,0.0,0.0,0.0,0.0,0.0,0.0,0.0,0.0,0.0,0.0,0.0,0.0,0.0,0.0,0.0,0.0,0.0,0.0,0.0,0.0,0.0,0.0,0.0,0.0,0.0,0.0,0.0,0.0,0.0,0.0,0.0,0.0,0.0,0.0,0.0,0.0,0.0,0.0,0.0,0.0,0.0,0.0,0.0,0.0,0.0,0.0,0.0,0.0,0.0,0.0,0.0,0.0,0.0,0.0,0.0,0.0,0.0,0.0,0.0,0.0,0.0,0.0,0.0,0.0,0.0,0.0,0.0,0.0,0.0,0.0,0.0,0.0,0.0,0.0,0.0,0.0,0.0,0.0,0.0,0.0,0.0,0.0,0.0,0.0,0.0,0.0,0.0,0.0,0.0,0.0,0.0,0.0,0.0,0.0,0.0,0.0,0.0,0.0,4.5704,4.5613,4.5677,4.554,4.5429,4.54,4.5409,4.5399,4.5408,4.5398,0.0,0.0,0.0,0.0,0.0,0.0,0.0,0.0,0.0,0.0,0.0,0.0,0.0,0.0,0.0,0.0,0.0,0.0,0.0,0.0,0.0,0.0,0.0,0.0,0.0,0.0,0.0,0.0,0.0,0.0,0.0,0.0,0.0,0.0,0.0,0.0,0.0,0.0,0.0,0.0,0.0,0.0,0.0,0.0,0.0,0.0,0.0,0.0,0.0,0.0,0.0,0.0,0.0,0.0,0.0,0.0,0.0,0.0,0.0,0.0,0.0,0.0,0.0,0.0,0.0,0.0,0.0,0.0,0.0,0.0,0.0,0.0,0.0,0.0,0.0,0.0,0.0,0.0,0.0,0.0,0.0,0.0,0.0,0.0,0.0,0.0,0.0,0.0,0.0,0.0,0.0,0.0,0.0,0.0,0.0,0.0,0.0,0.0,0.0,0.0,0.0,0.0,4.5612,4.5603,4.5603,4.5586,4.5541,4.541,4.54,4.54,4.5408,4.5338,0.0,0.0,0.0,0.0,0.0,0.0,0.0,0.0,0.0,0.0,0.0,0.0,0.0,0.0,0.0,0.0,0.0,0.0,0.0,0.0,0.0,0.0,0.0,0.0,0.0,0.0,0.0,0.0,0.0,0.0,0.0,0.0,0.0,0.0,0.0,0.0,0.0,0.0,0.0,0.0,0.0,0.0,0.0,0.0,0.0,0.0,0.0,0.0,0.0,0.0,0.0,0.0,0.0,0.0,0.0,0.0,0.0,0.0,0.0,0.0,0.0,0.0,0.0,0.0,0.0,0.0,0.0,0.0,0.0,0.0,0.0,0.0,0.0,0.0,0.0,0.0,0.0,0.0,0.0,0.0,0.0,0.0,0.0,0.0,0.0,0.0,0.0,0.0,0.0,0.0,0.0,0.0,0.0,0.0,0.0,0.0,0.0,0.0,0.0,0.0,0.0,0.0,4.5643,4.5632,0.0,4.5504,4.5476,4.5457,4.5457,4.5429,4.54,0.0,0.0,0.0,0.0,0.0,0.0,0.0,0.0,0.0,0.0,0.0,0.0,0.0,0.0,0.0,0.0,0.0,0.0,0.0,0.0,0.0,0.0,0.0,0.0,0.0,0.0,0.0,0.0,0.0,0.0,0.0,0.0,0.0,0.0,0.0,0.0,0.0,0.0,0.0,0.0,0.0,0.0,0.0,0.0,0.0,0.0,0.0,0.0,0.0,0.0,0.0,0.0,0.0,0.0,0.0,0.0,0.0,0.0,0.0,0.0,0.0,0.0,0.0,0.0,0.0,0.0,0.0,0.0,0.0,0.0,0.0,0.0,0.0,0.0,0.0,0.0,0.0,0.0,0.0,0.0,0.0,0.0,0.0,0.0,0.0,0.0,0.0,0.0,0.0,0.0,0.0,0.0,0.0,0.0,0.0,0.0,0.0,0.0,0.0,0.0,0.0,0.0,4.562,4.568,4.5685,0.0,4.5495,4.5457,4.5495,4.5504,4.5476,4.541,0.0,0.0,0.0,0.0,0.0,0.0,0.0,0.0,0.0,0.0,0.0,0.0,0.0,0.0,0.0,0.0,0.0,0.0,0.0,0.0,0.0,0.0,0.0,0.0,0.0,0.0,0.0,0.0,0.0,0.0,0.0,0.0,0.0,0.0,0.0,0.0,0.0,0.0,0.0,0.0,0.0,0.0,0.0,0.0,0.0,0.0,0.0,0.0,0.0,0.0,0.0,0.0,0.0,0.0,0.0,0.0,0.0,0.0,0.0,0.0,0.0,0.0,0.0,0.0,0.0,0.0,0.0,0.0,0.0,0.0,0.0,0.0,0.0,0.0,0.0,0.0,0.0,0.0,0.0,0.0,0.0,0.0,0.0,0.0,0.0,0.0,0.0,0.0,0.0,0.0,0.0,0.0,0.0,0.0,0.0,0.0,0.0,0.0,0.0,0.0,0.0,0.0,4.5627,4.5712,4.5749,4.5612,4.5594,4.5577,4.5504,4.5504,4.5457,0.0,0.0,0.0,0.0,0.0,0.0,0.0,0.0,0.0,0.0,0.0,0.0,0.0,0.0,0.0,0.0,0.0,0.0,0.0,0.0,0.0,0.0,0.0,0.0,0.0,0.0,0.0,0.0,0.0,0.0,0.0,0.0,0.0,0.0,0.0,0.0,0.0,0.0,0.0,0.0,0.0,0.0,0.0,0.0,0.0,0.0,0.0,0.0,0.0,0.0,0.0,0.0,0.0,0.0,0.0,0.0,0.0,0.0,0.0,0.0,0.0,0.0,0.0,0.0,0.0,0.0,0.0,0.0,0.0,0.0,0.0,0.0,0.0,0.0,0.0,0.0,0.0,0.0,0.0,0.0,0.0,0.0,0.0,0.0,0.0,0.0,0.0,0.0,0.0,0.0,0.0,0.0,0.0,0.0,0.0,0.0,0.0,0.0,0.0,0.0,0.0,0.0,0.0,4.5778,4.5908,4.5938,4.5764,4.5734,4.5688,4.5586,4.5568,4.5531,4.5466,0.0,0.0,0.0,0.0,0.0,0.0,0.0,0.0,0.0,0.0,0.0,0.0,0.0,0.0,0.0,0.0,0.0,0.0,0.0,0.0,0.0,0.0,0.0,0.0,0.0,0.0,0.0,0.0,0.0,0.0,0.0,0.0,0.0,0.0,0.0,0.0,0.0,0.0,0.0,0.0,0.0,0.0,0.0,0.0,0.0,0.0,0.0,0.0,0.0,0.0,0.0,0.0,0.0,0.0,0.0,0.0,0.0,0.0,0.0,0.0,0.0,0.0,0.0,0.0,0.0,0.0,0.0,0.0,0.0,0.0,0.0,0.0,0.0,0.0,0.0,0.0,0.0,0.0,0.0,0.0,0.0,0.0,0.0,0.0,0.0,0.0,0.0,0.0,0.0,0.0,0.0,0.0,0.0,0.0,0.0,0.0,0.0,0.0,0.0,0.0,0.0,0.0,4.5822,4.5933,4.5954,4.5808,4.5749,4.5692,4.5603,4.5594,4.5568,4.5504,0.0,0.0,0.0,0.0,0.0,0.0,0.0,0.0,0.0,0.0,0.0,0.0,0.0,0.0,0.0,0.0,0.0,0.0,0.0,0.0,0.0,0.0,0.0,0.0,0.0,0.0,0.0,0.0,0.0,0.0,0.0,0.0,0.0,0.0,0.0,0.0,0.0,0.0,0.0,0.0,0.0,0.0,0.0,0.0,0.0,0.0,0.0,0.0,0.0,0.0,0.0,0.0,0.0,0.0,0.0,0.0,0.0,0.0,0.0,0.0,0.0,0.0,0.0,0.0,0.0,0.0,0.0,0.0,0.0,0.0,0.0,0.0,0.0,0.0,0.0,0.0,0.0,0.0,0.0,0.0,0.0,0.0,0.0,0.0,0.0,0.0,0.0,0.0,0.0,0.0,0.0,0.0,0.0,0.0,0.0,0.0,0.0,0.0,0.0,0.0,0.0,0.0,4.5841,4.5881,4.5908,4.5841,4.5719,4.5643,4.5627,4.5629,4.5584,4.554,0.0,0.0,0.0,0.0,0.0,0.0,0.0,0.0,0.0,0.0,0.0,0.0,0.0,0.0,0.0,0.0,0.0,0.0,0.0,0.0,0.0,0.0,0.0,0.0,0.0,0.0,0.0,0.0,0.0,0.0,0.0,0.0,0.0,0.0,0.0,0.0,0.0,0.0,0.0,0.0,0.0,0.0,0.0,0.0,0.0,0.0,0.0,0.0,0.0,0.0,0.0,0.0,0.0,0.0,0.0,0.0,0.0,0.0,0.0,0.0,4.5688,0.0,0.0,0.0,0.0,0.0,0.0,0.0,0.0,0.0,0.0,0.0,0.0,0.0,0.0,0.0,0.0,0.0,0.0,0.0,0.0,0.0,0.0,0.0,0.0,0.0,0.0,0.0,0.0,0.0,0.0,0.0,0.0,0.0,0.0,0.0,0.0,0.0,0.0,0.0,0.0,0.0,4.606,4.6138,4.6173,4.6056,4.6011,4.5944,4.5832,4.5789,4.5749,4.5742,4.5635,0.0,0.0,0.0,0.0,0.0,0.0,0.0,0.0,0.0,0.0,0.0,0.0,0.0,0.0,0.0,0.0,0.0,0.0,0.0,0.0,0.0,0.0,0.0,0.0,0.0,0.0,0.0,0.0,0.0,0.0,0.0,0.0,0.0,0.0,0.0,0.0,0.0,0.0,0.0,0.0,0.0,0.0,0.0,0.0,0.0,0.0,0.0,0.0,0.0,0.0,0.0,0.0,0.0,0.0,0.0,0.0,0.0,0.0,0.0,0.0,4.5841,0.0,0.0,0.0,0.0,0.0,0.0,0.0,0.0,0.0,0.0,0.0,0.0,0.0,0.0,0.0,0.0,0.0,0.0,0.0,0.0,0.0,0.0,0.0,0.0,0.0,0.0,0.0,0.0,0.0,0.0,0.0,0.0,0.0,0.0,0.0,0.0,0.0,0.0,0.0,0.0,4.6105,4.615,4.6178,4.6105,4.6045,4.5983,4.5905,4.5863,4.5847,4.5847,4.5783,0.0,0.0,0.0,0.0,0.0,0.0,0.0,0.0,0.0,0.0,0.0,0.0,0.0,0.0,0.0,0.0,0.0,0.0,0.0,0.0,0.0,0.0,0.0,0.0,0.0,0.0,0.0,0.0,0.0,0.0,0.0,0.0,0.0,0.0,0.0,0.0,0.0,0.0,0.0,0.0,0.0,0.0,0.0,0.0,0.0,0.0,0.0,0.0,0.0,0.0,0.0,0.0,0.0,4.5906,4.6065,4.6114,4.628,4.68,4.7552,4.6771,4.643,4.6476,0.0,0.0,0.0,0.0,0.0,0.0,0.0,0.0,0.0,0.0,0.0,0.0,0.0,0.0,0.0,0.0,0.0,0.0,0.0,0.0,0.0,0.0,0.0,0.0,0.0,4.6303,4.63,0.0,0.0,0.0,0.0,0.0,0.0,0.0,0.0,0.0,0.0,0.0,0.0,4.6138,4.6138,4.6138,4.6138,4.6041,4.5978,4.5978,4.594,4.593,4.593,4.5915,4.5899,0.0,0.0,0.0,0.0,0.0,0.0,0.0,0.0,0.0,0.0,0.0,0.0,0.0,0.0,0.0,0.0,0.0,0.0,0.0,0.0,0.0,0.0,0.0,0.0,0.0,0.0,0.0,0.0,0.0,0.0,0.0,0.0,4.1609,4.2374,0.0,0.0,0.0,0.0,0.0,0.0,0.0,0.0,0.0,0.0,0.0,0.0,0.0,4.5715,4.566,4.5796,4.5865,4.5865,4.6587,4.6929,4.6973,4.7786,4.8253,4.8441,4.8415,0.0,4.8339,4.8331,0.0,0.0,0.0,0.0,0.0,0.0,0.0,0.0,0.0,0.0,0.0,0.0,0.0,0.0,0.0,0.0,0.0,0.0,0.0,0.0,0.0,0.0,4.6305,4.6305,4.6295,4.63,0.0,4.63,4.63,4.63,0.0,0.0,0.0,0.0,0.0,0.0,0.0,0.0,4.6273,4.6273,4.6273,4.6273,4.6269,4.6245,4.6245,4.6141,4.6064,4.6064,4.5954,4.5899,4.5899,4.5894,0.0,0.0,0.0,0.0,0.0,0.0,0.0,0.0,0.0,0.0,0.0,0.0,0.0,0.0,0.0,0.0,0.0,0.0,0.0,0.0,0.0,0.0,0.0,0.0,0.0,0.0,0.0,0.0,0.0,4.1788,4.2467,4.2757,4.3273,4.3561,0.0,0.0,0.0,0.0,0.0,0.0,0.0,0.0,0.0,4.5747,4.5754,4.5981,4.6473,4.6577,4.6884,4.7375,4.7835,4.8054,4.8074,4.849,4.8941,4.9444,4.9518,4.9794,5.0135,4.9159,4.8524,4.8194,0.0,0.0,0.0,0.0,4.7705,4.7705,4.7705,4.7705,0.0,0.0,0.0,0.0,0.0,0.0,0.0,0.0,0.0,0.0,0.0,0.0,0.0,4.6249,4.623,4.6249,4.6282,4.63,4.6296,0.0,4.63,4.63,4.63,0.0,0.0,0.0,0.0,0.0,4.63,4.63,4.63,4.63,4.63,4.63,4.63,4.6245,4.6211,4.6211,4.617,4.6112,4.6112,4.6053,4.6049,0.0,0.0,0.0,0.0,0.0,0.0,0.0,0.0,0.0,0.0,0.0,0.0,0.0,0.0,0.0,0.0,0.0,0.0,0.0,0.0,0.0,0.0,0.0,0.0,0.0,0.0,0.0,0.0,4.29,4.3376,4.3455,4.4131,4.4542,0.0,0.0,0.0,0.0,0.0,0.0,4.5754,4.5957,4.6104,4.6183,4.6371,4.6791,4.7499,4.7575,4.7923,4.8579,4.8945,4.912,4.9142,4.9356,4.9813,5.0436,5.0436,5.0805,5.1308,5.0007,4.9335,4.9123,4.9124,4.8993,4.8798,4.8798,4.8798,4.8798,4.8798,4.8804,4.8691,4.8106,0.0,4.7715,4.7129,0.0,0.0,0.0,0.0,4.6878,4.6873,4.6876,4.686,4.686,4.6864,4.689,4.6933,4.6758,4.6542,0.0,4.63,4.63,4.63,0.0,0.0,0.0,0.0,4.63,4.63,4.63,4.63,4.63,4.63,4.63,4.63,4.63,4.63,4.63,4.63,4.63,4.63,4.6209,4.6206,4.63,0.0,0.0,0.0,0.0,0.0,0.0,0.0,0.0,0.0,0.0,0.0,0.0,0.0,0.0,0.0,0.0,0.0,0.0,0.0,0.0,0.0,0.0,0.0,0.0,0.0,0.0,0.0,0.0,0.0,4.5189,4.5481,0.0,0.0,0.0,0.0,4.57,4.57,4.5754,4.5886,4.6603,4.7094,4.7229,4.8098,4.8574,4.862,4.8695,4.8747,4.879,4.9634,5.0024,5.0063,5.0885,5.1297,5.1336,5.1336,5.1362,5.1397,5.1308,5.0787,5.0024,5.0026,4.954,4.8798,4.8798,4.8798,4.8798,4.8798,4.8794,4.8787,4.8748,4.875,4.8722,4.8682,4.8662,0.0,0.0,4.8664,4.8677,4.8672,4.8674,4.8664,4.8664,4.8667,4.8662,4.8662,4.8019,4.7206,0.0,4.63,4.63,4.63,0.0,4.63,4.63,4.63,4.63,4.63,4.63,4.63,4.63,4.63,4.63,4.63,4.63,4.63,4.63,4.63,4.63,4.63,4.6298,4.6298,4.63,4.6298,0.0,0.0,0.0,0.0,0.0,0.0,0.0,0.0,0.0,0.0,0.0,0.0,0.0,0.0,0.0,0.0,0.0,0.0,0.0,0.0,0.0,0.0,0.0,0.0,0.0,0.0,0.0,0.0,4.5627,4.5766,0.0,4.5676,4.5761,4.6032,4.6554,4.6674,4.7003,4.7602,4.7913,4.8116,4.82,4.8481,4.891,4.9463,4.9488,4.9785,5.0343,5.0665,5.0813,5.0817,5.1174,5.1352,5.1391,5.1391,5.1394,5.1403,5.1391,5.1228,5.0945,5.0941,5.0754,5.0463,5.0468,5.0469,5.0469,5.0469,5.0468,5.0388,4.9812,4.9254,4.8792,4.8808,4.88,4.8797,4.8802,4.8795,4.8792,4.8794,4.8801,4.8795,4.8795,4.8808,4.8808,4.8792,4.8562,4.8241,4.7968,4.6992,4.623,4.623,4.623,4.6249,4.6283,4.6301,4.6297,4.6303,4.63,4.63,4.63,4.63,4.63,4.63,4.63,4.63,4.63,4.63,4.63,4.63,4.63,4.63,4.63,4.6846,4.7139,0.0,0.0,0.0,0.0,0.0,0.0,0.0,0.0,0.0,0.0,0.0,0.0,0.0,0.0,0.0,0.0,0.0,0.0,0.0,0.0,0.0,0.0,0.0,0.0,0.0,0.0,4.5896,4.5776,4.6145,4.6345,4.6223,4.6577,4.7036,4.7572,4.7691,4.7997,4.8561,4.8871,4.9063,4.9099,4.936,4.9754,5.033,5.0339,5.0639,5.1224,5.124,5.1234,5.1234,5.13,5.1353,5.1394,5.1401,5.1398,5.1391,5.1405,5.1403,5.1407,5.1405,5.1406,5.1406,5.1402,5.1398,5.1397,5.1372,5.1369,5.1267,5.0686,5.0104,4.965,4.9636,4.9644,4.9644,4.9644,4.9644,4.9644,4.9644,4.9644,4.9644,4.9644,4.9644,4.9636,4.965,4.9402,4.9196,4.92,4.8048,4.6984,4.6692,4.6633,4.6558,4.6308,4.6269,4.6268,4.6295,4.6293,4.629,4.6302,4.63,4.63,4.63,4.63,4.63,4.63,4.63,4.6436,4.6729,4.6749,4.6866,4.7139,4.7705,4.8152,4.8445,0.0,0.0,0.0,0.0,0.0,0.0,0.0,0.0,0.0,0.0,0.0,0.0,0.0,0.0,0.0,0.0,0.0,0.0,0.0,0.0,0.0,0.0,0.0,4.5731,4.5902,4.5973,4.5773,4.676,4.7393,4.7255,4.806,4.8599,4.8638,4.8638,4.8658,4.8677,4.9479,4.9945,4.9945,5.0755,5.1211,5.1206,5.1206,5.123,5.1296,5.1296,5.13,5.13,5.1359,5.1397,5.14,5.1395,5.1405,5.1405,5.1403,5.1418,5.1437,5.1417,5.1397,5.1397,5.1397,5.1396,5.1394,5.131,5.1299,5.1291,5.13,5.13,5.13,5.13,5.13,5.13,5.13,5.13,5.13,5.13,5.13,5.13,5.13,5.13,5.13,5.13,5.0638,5.0034,5.0034,4.9404,4.8582,4.7704,4.7548,4.7256,4.6418,4.6281,0.0,4.6366,4.6385,4.6362,4.6344,4.6341,4.6321,4.63,4.6319,4.6339,4.6339,4.6358,4.6768,4.7606,4.7645,4.8017,4.8818,4.8837,4.9267,5.0143,0.0,0.0,0.0,0.0,0.0,0.0,0.0,0.0,0.0,0.0,0.0,0.0,0.0,0.0,0.0,0.0,0.0,0.0,0.0,0.0,0.0,0.0,4.674,4.6013,4.6505,4.6945,4.6934,4.7722,4.8261,4.8227,4.8452,4.8852,4.9499,4.9537,4.9823,5.0445,5.0717,5.0833,5.0833,5.1086,5.1208,5.1206,5.1206,5.1217,5.1233,5.1228,5.1222,5.1222,5.1305,5.1355,5.1408,5.1397,5.1404,5.1406,5.1399,5.1762,5.2269,5.1593,5.1334,5.1332,5.1319,5.1327,5.1323,5.131,5.1307,5.1303,5.1304,5.13,5.13,5.13,5.13,5.13,5.13,5.13,5.13,5.13,5.13,5.13,5.13,5.13,5.13,5.13,5.1106,5.095,5.095,5.0757,5.0153,4.8694,4.844,4.8352,4.8127,4.809,0.0,4.8119,4.8101,4.787,4.7243,4.7163,4.6924,4.6341,4.6885,4.7237,4.7237,4.7783,4.8213,4.8466,4.8466,4.8876,4.9733,4.9733,5.0163,0.0,0.0,0.0,0.0,0.0,0.0,0.0,0.0,0.0,0.0,0.0,0.0,0.0,0.0,0.0,0.0,0.0,0.0,0.0,0.0,0.0,0.0,4.6994,4.7296,4.7109,4.7552,4.7898,4.7903,4.8641,4.9143,4.9143,4.9473,4.9901,5.0406,5.0445,5.0678,5.1163,5.1202,5.1206,5.1196,5.1196,5.1215,5.1237,5.1241,5.1241,5.1241,5.1248,5.1249,5.1232,5.1314,5.1548,0.0,5.1933,5.2148,5.2495,5.2452,5.2747,0.0,0.0,0.0,0.0,0.0,5.1846,5.1787,5.1437,5.13,5.13,5.13,5.13,5.13,5.13,5.13,5.13,5.13,5.13,5.13,5.13,5.13,5.13,5.13,5.13,5.13,5.13,5.13,5.13,5.13,0.0,0.0,5.0014,4.9547,4.9188,4.8847,4.8791,4.8808,4.8802,4.8805,4.8619,4.8104,4.8046,4.7851,4.738,4.781,0.0,0.0,0.0,4.8959,4.9323,4.9694,0.0,0.0,0.0,5.0887,5.1394,0.0,0.0,0.0,5.1394,5.1394,0.0,0.0,0.0,0.0,0.0,0.0,0.0,0.0,0.0,0.0,0.0,0.0,0.0,0.0,0.0,0.0,4.7548,4.7859,4.8662,4.889,4.8939,4.8763,4.9526,5.0061,5.0061,5.0756,5.1203,5.1203,5.1203,5.1203,5.1203,0.0,0.0,0.0,0.0,5.1245,5.1297,5.1297,5.1297,5.1297,5.1301,5.1302,5.1304,5.1379,5.1832,5.2615,5.2669,5.3183,5.4002,5.3939,5.3969,5.3965,5.3084,5.3217,5.3818,5.3019,5.2742,5.2645,5.1865,0.0,0.0,5.1476,5.1456,5.1437,5.1339,5.13,5.13,5.13,5.13,5.13,5.13,5.13,5.13,5.13,5.13,5.13,5.13,5.13,5.13,5.13,5.13,5.13,5.13,5.0657,4.9898,4.9196,4.9079,4.9078,4.9079,4.9084,4.9059,4.8969,0.0,0.0,4.8818,4.8896,4.8954,4.8954,4.9033,4.9449,5.0214,5.0995,5.1402,5.1405,5.1403,5.1403,5.1403,5.1403,5.1402,5.14,5.1396,5.1453,0.0,0.0,0.0,0.0,0.0,0.0,0.0,0.0,0.0,0.0,0.0,0.0,0.0,0.0,0.0,4.8304,4.903,4.9535,4.9711,5.0357,5.0516,4.9734,5.0479,5.1035,5.1035,5.1171,5.1286,5.1286,5.1286,5.1286,5.1286,5.1286,0.0,5.1282,5.1284,5.1288,5.1297,5.1297,5.1297,5.1297,0.0,0.0,5.1386,5.1381,5.1878,5.2679,5.269,5.3194,5.3992,5.3984,5.4357,5.486,5.3989,5.374,5.3876,5.3716,5.3654,5.3615,5.3463,5.3405,5.3288,5.2586,5.2353,5.2216,5.1515,5.13,0.0,5.13,5.13,5.13,5.13,5.13,5.13,5.13,5.13,5.13,5.13,5.13,5.13,5.13,5.13,5.13,5.13,5.1164,5.1008,5.0833,5.0813,5.0817,5.0828,5.0828,5.0576,4.9916,4.984,4.9558,4.8855,4.9443,4.9855,4.9855,5.0519,5.097,5.1148,5.1304,5.1403,5.1405,5.1405,5.1405,5.1405,5.1405,5.1406,5.1402,5.1405,5.1785,0.0,0.0,0.0,0.0,0.0,0.0,0.0,0.0,0.0,0.0,0.0,4.8619,0.0,0.0,4.8835,4.9288,4.9718,5.0147,5.0594,5.1058,5.1154,5.0661,5.1011,5.1297,5.1297,5.1297,5.1297,5.1297,5.1297,5.1297,5.1297,5.1297,5.1325,5.1359,5.1359,5.1344,5.1348,5.1348,5.1348,5.1348,5.1383,5.1398,5.1418,5.1852,5.2526,5.3366,5.3815,5.4498,5.5296,5.5253,5.5491,5.5818,5.5372,5.5198,5.5158,5.471,5.455,5.4492,5.4043,5.3907,5.3829,5.3385,5.3249,5.3171,5.2723,5.2294,5.1943,5.1943,5.1632,5.13,5.13,5.13,5.13,5.13,5.13,5.13,5.13,5.13,5.13,5.13,5.13,5.13,5.13,5.13,5.13,5.13,5.13,5.13,5.13,5.13,5.1156,5.0732,5.0696,5.053,5.0081,5.0457,5.0691,5.0691,5.1511,5.2008,5.2005,5.2415,5.2656,5.2646,5.2647,5.2647,5.2647,5.2647,5.265,5.2655,5.3105,5.3313,0.0,0.0,0.0,0.0,0.0,0.0,0.0,0.0,4.8087,4.9016,4.9595,4.9772,4.9314,4.9651,5.0062,5.0243,5.0263,5.0516,5.1218,5.1366,5.1387,5.1338,5.1316,5.1316,5.1316,5.1316,5.1316,5.1316,5.1316,5.1316,5.1316,5.1316,5.1343,5.1405,5.1405,5.1399,5.1394,5.1394,5.1394,5.1394,5.1394,5.1492,5.1687,5.2372,5.3268,5.4303,5.5162,5.5942,5.6584,5.6533,5.65,5.6508,5.6504,5.6503,5.6414,5.5708,5.545,5.5353,5.4652,5.4418,5.4379,5.4203,5.4141,5.4121,5.3946,5.3405,5.2859,5.2859,5.2216,5.1554,5.1554,5.1437,5.13,5.13,5.13,5.13,5.13,5.13,5.13,5.13,5.13,5.13,5.13,5.13,5.13,5.13,5.13,5.13,5.13,5.13,5.13,5.13,5.13,5.13,5.13,5.1456,5.1554,5.1554,5.2372,5.2839,5.2846,5.3529,5.3894,5.3901,5.3901,5.3901,5.3901,5.3901,5.3982,5.4182,5.5217,5.5272,4.6189,4.6698,4.7244,4.7244,4.7891,4.8751,0.0,0.0,4.9957,5.082,5.0451,5.0211,5.0955,5.0547,5.0331,5.1118,5.1231,5.1289,5.1387,5.1403,5.1402,5.1387,5.1387,5.1387,5.1387,5.1387,5.1387,5.1387,5.1387,5.1387,5.1387,5.1387,5.1385,5.1402,5.14,5.1398,5.1394,5.1394,5.1394,5.1394,5.1394,5.1804,5.2567,5.2665,5.3602,5.5201,5.6079,5.6508,5.6584,5.6533,5.6506,5.6503,5.6508,5.651,5.6492,5.6391,5.6344,5.6351,5.6234,5.6215,5.6078,5.5314,5.5056,5.4901,5.4121,5.3829,5.3751,5.3751,5.3132,5.245,5.245,5.1885,5.13,5.13,5.13,5.13,5.13,5.13,5.13,5.13,5.13,5.13,5.13,5.13,5.13,5.13,5.13,5.13,5.13,5.13,5.13,5.13,5.13,5.13,5.13,5.2002,5.245,5.245,5.3268,5.3755,5.3744,5.3841,5.3904,5.3892,5.3892,5.3892,5.3892,5.3892,5.4307,5.5087,5.6731,5.7044,4.677,4.7883,0.0,0.0,4.8802,4.9544,4.9913,4.9991,5.025,5.1164,5.1069,5.0936,5.1321,5.1102,5.0981,0.0,5.1394,5.1394,5.1394,5.1394,5.1394,5.1394,5.1394,5.1394,5.1394,5.1394,5.1394,5.1394,5.1394,5.1394,5.1394,5.1394,5.1394,5.1394,5.1394,5.1394,5.1394,5.1394,5.1648,5.2156,5.2156,5.2605,5.3463,5.3971,5.4888,5.6079,5.645,5.6606,5.6604,5.656,5.6558,5.6558,5.6553,5.6536,5.651,5.6496,5.6504,5.6507,5.6507,5.6507,5.6448,5.6074,5.5957,5.5899,5.5528,5.5061,5.4667,5.4667,5.4024,5.3366,5.3366,5.3093,5.282,5.282,5.243,5.206,5.206,5.1671,5.13,5.13,5.13,5.13,5.13,5.13,5.13,5.13,5.13,5.13,5.13,5.13,5.1495,5.2002,5.206,5.2255,5.2781,5.3151,5.3366,5.3366,5.416,5.4667,5.4667,5.5139,5.5411,5.5411,5.5411,5.5411,5.5411,5.5879,5.6301,5.6698,5.8433,5.9053,4.7573,0.0,0.0,4.9235,4.9742,5.0385,5.0385,5.0385,5.0583,5.1268,5.1404,5.14,5.14,5.1394,5.1394,5.1394,5.1394,5.1394,5.1394,5.1394,5.1394,5.1394,5.1394,5.1394,5.1394,5.1394,5.1394,5.1394,5.1394,5.1394,5.1394,5.1394,5.1394,5.1394,5.1629,5.1765,5.1765,5.1999,5.2429,5.3053,5.3053,5.3522,5.4381,5.5259,5.6001,5.6606,5.6606,5.6606,5.6606,5.6606,5.6606,5.6606,5.6606,5.6553,5.6508,5.651,5.6508,5.6507,5.6507,5.6507,5.6507,5.6507,5.6507,5.6507,5.6507,5.6054,5.5567,5.5567,5.4924,5.4258,5.4258,5.4082,5.3907,5.3907,5.3424,5.2957,5.2957,5.2469,5.2021,5.2021,5.2021,5.2021,5.2021,5.2021,5.2021,5.2021,5.2021,5.1924,5.169,5.1865,5.2255,5.2898,5.2957,5.321,5.3849,5.4121,5.4258,5.4258,5.508,5.5567,5.5567,5.6152,5.6507,5.6507,5.6507,5.6507,5.6507,5.7306,5.7695,5.7734,5.923,6.0068,4.8548,4.9405,5.0088,5.0069,5.0713,5.1359,5.1359,5.1359,5.1379,5.1396,5.1396,5.1396,5.1394,5.1394,5.1394,5.1394,5.1394,5.1394,5.1394,5.1394,5.1394,5.1394,5.1394,5.1394,0.0,5.1394,5.1394,5.1394,5.1394,5.1394,5.1394,5.1394,5.1394,5.1394,5.2214,5.2665,5.2665,5.3502,5.3932,5.3951,5.3951,5.442,5.5298,5.6157,5.6567,5.6606,5.6606,5.6606,5.6606,5.6606,5.6606,5.6606,5.6606,5.6558,5.6506,5.6508,5.65,5.6507,5.6507,5.6507,5.6507,5.6507,5.6507,5.6507,5.6507,5.6487,5.6468,5.6468,5.5821,5.5154,5.5154,5.453,5.3907,5.3907,5.3888,5.3849,5.3849,5.3829,5.381,5.381,5.381,5.381,5.381,5.381,5.381,5.381,5.381,5.3522,5.2664,5.3307,5.3829,5.3849,5.3849,5.3868,5.3907,5.4667,5.5154,5.5154,5.5976,5.6468,5.6468,5.6487,5.6507,5.6507,5.6507,5.6507,5.6507,5.7306,5.7695,5.7715,5.8626,5.9484,4.9597,5.0301,5.0965,5.0965,5.118,5.1394,5.1394,5.1394,5.1394,5.1394,5.1863,5.2253,5.2253,5.2253,5.2253,5.2253,5.2253,5.2253,5.2253,5.2761,5.3132,5.3132,5.3132,0.0,0.0,0.0,0.0,5.2214,5.2253,5.2507,5.3093,5.3132,5.3132,5.3132,5.3405,5.3561,5.3561,5.3854,5.4283,5.4869,5.5454,5.5884,5.6177,5.6469,5.6606,5.6606,5.6606,5.6606,5.6606,5.6606,5.6606,5.6606,5.6606,5.6558,5.6506,5.65,5.6504,5.6503,5.6496,5.6507,5.6507,5.6507,5.6507,5.6507,5.6507,5.6507,5.6507,5.6507,5.6292,5.6054,5.6054,5.575,5.5419,5.5419,5.4886,5.4366,5.4366,5.3913,5.3506,5.3506,5.3506,5.3506,5.3506,5.3506,5.3734,5.4455,5.4178,5.379,5.3502,5.3712,5.4121,5.4706,5.4764,5.5002,5.5587,5.5879,5.6054,5.6054,5.6351,5.6507,5.6507,5.6507,5.6507,5.6507,5.6507,5.676,5.7306,5.8144,5.886,5.9445,6.0321,6.0886,5.0475,5.0965,5.1394,5.1394,5.1394,5.1394,5.1394,5.1394,5.1394,5.1394,5.1843,5.2234,5.2234,5.2489,5.2607,5.2292,5.2509,5.2704,5.2704,5.3171,5.3659,5.3951,5.401,5.401,0.0,0.0,0.0,5.3112,5.3151,5.3405,5.3971,5.401,5.401,5.401,5.4303,5.4459,5.4459,5.4771,5.5201,5.5767,5.6333,5.6606,5.6606,5.6606,5.6606,5.6606,5.6606,5.6606,5.6606,5.6606,5.6606,5.6606,5.6606,5.656,5.6533,5.6509,5.65,5.6508,5.6492,5.6496,5.6496,5.6507,5.6507,5.6507,5.6507,5.6507,5.6498,5.6403,5.6393,5.6382,5.63,5.6188,5.6093,5.6093,5.5564,5.5047,5.5047,5.4622,5.4235,5.4235,5.4235,5.4235,5.4235,5.4235,5.447,5.5147,5.4886,5.4663,5.4818,5.4827,5.5041,5.5606,5.5665,5.5899,5.6448,5.6507,5.6507,5.6507,5.6507,5.6507,5.6507,5.6507,5.6643,5.6916,5.6935,5.7345,5.8159,5.9035,5.9581,5.9854,6.073,6.114,5.118,5.1394,5.1394,5.1394,5.1394,5.1394,5.1394,5.1394,5.1394,5.1394,5.1433,5.1472,0.0,0.0,5.2487,5.1609,5.2195,5.2763,5.2763,5.2802,5.3151,0.0,0.0,0.0,0.0,0.0,0.0,5.4127,0.0,5.4088,5.4127,5.4127,5.4127,5.4127,5.4947,5.5376,5.5376,5.6196,5.6606,5.6606,5.6606,5.6606,5.6606,5.6606,5.6606,5.6606,5.6606,5.6606,5.6606,5.6606,5.6606,5.6606,5.6606,5.6584,5.658,5.6509,5.6484,5.6475,5.648,5.6484,5.6484,5.6492,5.6498,5.6474,5.6479,5.6474,5.6432,5.6239,5.6181,5.6135,5.5957,5.5887,5.5879,5.5879,5.5889,5.5861,5.5861,5.5861,5.5861,5.5861,5.5861,5.5861,5.5861,5.5889,5.5879,5.5879,5.5887,5.6029,5.6427,5.647,5.647,5.647,5.6474,5.6479,5.6479,5.6483,5.6507,5.6507,5.6507,5.6507,5.6507,5.6546,5.6916,5.7695,5.7734,5.8198,5.9074,5.9893,5.9893,5.9152,5.9971,6.036,5.1336,5.1394,5.1394,5.1394,5.1394,5.1394,5.1394,5.1394,5.1394,5.1394,5.1921,5.2372,0.0,0.0,0.0,5.2507,5.3093,0.0,5.3678,5.4225,0.0,5.5825,0.0,5.5942,5.5942,5.5942,0.0,0.0,5.5337,5.5259,5.5903,5.5942,5.5942,5.5942,5.6157,5.6274,5.6274,5.6489,5.6606,5.6606,5.6606,5.6606,5.6606,5.6606,5.6606,5.6606,5.6606,5.6606,5.6606,5.6606,5.6606,5.6606,5.6606,5.6503,5.6359,5.6356,5.629,5.6195,5.6193,5.623,5.6299,5.645,5.63,5.6085,5.6239,5.6175,5.6036,5.599,5.5982,5.5965,5.5904,5.5788,5.5671,5.5671,5.5602,5.5542,5.5542,5.5542,5.5542,5.5542,5.5542,5.5542,5.5542,5.5613,5.5671,5.5671,5.5798,5.5941,5.6036,5.6044,5.6044,5.6044,5.6188,5.6283,5.6283,5.6403,5.6507,5.6507,5.6507,5.6507,5.6507,5.7072,5.7501,5.7695,5.8334,5.9094,5.9971,6.0185,6.0516,6.0945,6.1179,6.1276,5.1394,5.1394,5.1394,5.1394,5.1394,5.1394,5.1394,5.1394,5.1394,5.1394,5.1785,0.0,5.2136,5.2839,0.0,0.0,0.0,0.0,5.3424,5.4186,5.5044,0.0,5.6372,0.0,5.6606,5.6606,5.6606,0.0,5.6157,5.6079,5.6567,5.6606,5.6606,5.6606,5.6606,5.6606,5.6606,5.6606,5.6606,5.6606,5.6606,5.6606,5.6606,5.6606,5.6606,5.6606,0.0,5.6606,5.6606,5.6606,5.6553,5.6472,5.6472,5.6367,5.6202,5.6202,5.6158,5.6091,5.6096,5.6068,5.6049,5.6213,5.61,5.5932,5.6029,5.599,5.587,5.5788,5.5769,5.5741,5.5708,5.561,5.5508,5.5508,5.5446,5.5403,5.5403,5.5403,5.5403,5.5403,5.5403,5.5403,5.5403,5.547,5.5508,5.5508,5.5621,5.5677,5.5677,5.5808,5.5907,5.5907,5.6085,5.6194,5.6194,5.6388,5.6643,5.6994,5.7033,5.7208,5.7578,5.8027,5.8451,5.8821,5.9328,5.999,6.0867,6.0867,6.112,6.1607,6.1607,6.1607,5.1394,5.1394,5.1394,5.1394,5.1394,5.1394,5.1394,5.1394,5.1394,5.1394,0.0,5.1394,5.1394,5.2117,5.2411,5.1531,0.0,5.2704,5.2704,5.3444,5.4322,5.5201,5.6079,5.6606,5.6606,5.6606,5.6606,5.6606,5.6606,5.6606,5.6606,5.6606,5.6606,5.6608,5.6608,5.6608,5.6608,5.6606,5.6606,5.6606,5.6606,5.6606,5.6606,5.6606,5.6606,5.6606,0.0,0.0,5.6604,5.658,5.6469,5.6308,5.6275,5.6186,5.6071,5.6071,5.6057,5.6056,5.6039,5.593,5.5788,5.5941,5.5915,5.5844,5.5843,5.5854,5.5798,5.5618,5.5564,5.5538,5.5428,5.5416,5.5396,5.5403,5.5403,5.5403,5.5403,5.5403,5.5403,5.5403,5.5403,5.5403,5.5403,5.5403,5.5403,5.5403,5.5403,5.5403,5.5403,5.5645,5.5835,5.5835,5.6005,5.6179,5.6269,5.6492,5.6972,5.779,5.7862,5.8217,5.8977,5.9113,5.9522,6.0282,6.0399,6.0847,6.1607,6.1607,6.1607,6.1607,6.1607,6.1607,5.1394,5.1394,5.1394,5.1394,5.1394,5.1394,5.1394,5.1394,0.0,0.0,5.1394,5.1394,5.1394,5.2117,5.2411,5.1531,5.2136,5.2704,5.2704,5.3444,5.4322,0.0,5.6079,5.6606,0.0,0.0,0.0,0.0,0.0,5.6606,5.6606,5.6606,5.661,5.6598,5.6598,5.6598,5.6598,5.6591,5.6606,5.6606,5.6606,5.6606,5.6606,5.6606,5.6606,5.6606,5.6606,0.0,5.6582,5.6416,5.6324,5.6284,5.6175,5.6044,5.5938,5.5938,5.5863,5.5759,5.5768,5.5717,5.5667,5.5917,5.5779,5.5512,5.5618,5.5569,5.549,5.544,5.5427,5.5432,5.5409,5.544,5.5463,5.5409,5.5403,5.5409,5.5396,5.5403,5.5403,5.5403,5.5403,5.5403,5.5403,5.5403,5.5403,5.5403,5.5403,5.5403,5.5403,5.544,5.5502,5.5502,5.5624,5.601,5.6713,5.7122,5.7664,5.8474,5.8675,5.8841,5.8996,5.9698,6.0146,6.0302,6.1003,6.1451,6.1607,6.1607,6.1607,6.1607,6.1607,6.1607,5.1394,5.1394,5.1394,5.1394,5.1394,5.1394,5.1394,0.0,0.0,0.0,5.1394,5.1394,5.1394,5.1746,5.1882,5.1472,5.1746,5.2019,5.2019,5.2761,5.3659,5.4517,5.5396,5.6098,0.0,0.0,0.0,0.0,0.0,5.6593,5.6606,5.6591,5.6596,5.6602,5.6605,5.6606,5.6602,5.6596,5.6591,5.6606,5.6606,5.6606,5.6606,5.6606,5.6606,5.6606,5.6606,0.0,5.6582,5.6383,5.6261,5.6175,5.6063,5.5913,5.5798,5.5798,5.5758,5.5703,5.5703,5.5692,5.5662,5.5759,5.5635,5.5449,5.5524,5.5504,5.5446,5.5446,5.5451,5.5444,5.5458,5.5476,5.5492,5.5458,5.5451,5.5444,5.5458,5.5421,5.5396,5.5396,5.5409,5.5403,5.5403,5.5403,5.5403,5.5403,5.5403,5.5403,5.5403,5.5766,5.6014,5.6014,5.6191,5.6615,5.7442,5.7794,5.8374,5.9308,5.9477,5.978,6.0321,6.075,6.0984,6.0984,6.1393,6.1607,6.1607,6.1607,6.1607,6.1607,6.1607,6.1607,5.1394,5.1394,5.1394,5.1394,5.1394,5.1394,5.1394,5.1394,0.0,5.1394,5.1394,5.1394,5.1394,5.1394,5.1394,0.0,5.1394,5.1394,5.1394,5.2156,5.3014,0.0,5.4771,0.0,0.0,0.0,0.0,0.0,0.0,0.0,5.6593,5.6602,5.6606,5.6606,5.6592,5.6592,5.6603,5.6602,5.6596,5.6606,5.6606,5.6606,5.6606,5.6606,5.6606,5.6606,5.6606,0.0,0.0,5.6336,5.6175,5.6037,5.5904,5.5798,5.5703,5.5703,5.5703,5.5703,5.5703,5.5703,5.5703,5.5629,5.5573,5.5516,5.5504,5.5504,5.5504,5.5504,5.5516,5.5516,5.5504,5.5527,5.5539,5.5527,5.5516,5.5504,5.5504,5.5456,5.542,5.542,5.5421,5.5422,5.5409,5.5396,5.5396,5.5403,5.5403,5.546,5.5632,5.6205,5.674,5.7103,5.7121,5.744,5.8246,5.8496,5.9059,6.0084,6.0238,6.0657,6.1495,6.1578,6.1607,6.1607,6.1607,6.1607,6.1607,6.1607,6.1607,6.1607,6.1607,6.1607,5.1394,5.1394,5.1394,5.1394,5.1394,5.1394,5.1394,0.0,5.1394,5.1394,5.1394,5.1394,5.1394,5.1394,5.1394,0.0,0.0,5.1394,5.1394,5.2156,5.3014,5.3893,0.0,0.0,0.0,0.0,0.0,0.0,0.0,0.0,5.6591,5.6596,5.6598,5.6598,5.6599,5.6597,5.6592,5.6605,5.6596,5.6606,5.6606,5.6606,5.6606,5.6606,5.6606,5.6606,5.6606,0.0,0.0,5.6189,5.6049,5.5915,5.5759,5.5705,5.5703,5.5703,5.5703,5.5703,5.5703,5.5703,5.5703,5.5684,5.566,5.5573,5.5516,5.5504,5.5504,5.5504,5.5539,5.5573,5.5516,5.5585,5.5682,5.5607,5.5539,5.5504,5.5504,5.5492,5.5492,5.5492,5.5492,5.5468,5.5408,5.5395,5.539,5.5403,5.5403,5.567,5.6396,5.6549,5.7179,5.8708,5.8225,5.8137,5.8926,5.9194,5.9691,6.058,6.0984,6.1213,6.1324,6.1498,6.1607,6.1607,6.1607,6.1607,6.1607,6.1607,6.1607,6.1607,6.1607,6.1607,5.1394,5.1394,5.1394,5.1394,5.1394,5.1394,5.1394,0.0,5.1394,5.1394,5.1394,5.1394,5.1394,5.1394,5.1394,5.1394,0.0,0.0,5.1394,5.1707,5.2448,5.3834,5.4303,0.0,0.0,0.0,0.0,0.0,0.0,0.0,5.66,5.66,5.6599,5.6599,5.6601,5.66,5.6597,5.6592,5.6605,5.6595,5.6608,5.6606,5.6606,5.6606,5.6531,5.6416,5.6416,0.0,0.0,5.6022,5.5954,5.5889,5.5748,5.5703,5.5703,5.5703,5.5703,5.5703,5.5703,5.5703,5.5703,5.5703,5.5673,5.5671,5.5618,5.5618,5.5618,5.5618,5.5629,5.5651,5.5618,5.5651,5.5684,5.5682,5.5629,5.5618,5.5618,5.5585,5.5562,5.5562,5.5492,5.5432,5.5408,5.5409,5.5562,5.6052,5.611,5.6434,5.7275,5.781,5.8364,5.9033,5.8822,5.8956,5.9816,5.9963,6.0201,6.0673,6.0843,6.1048,6.1283,6.1383,6.1482,6.1607,6.1607,6.1607,6.1607,6.1607,6.1607,6.1607,6.1607,6.1607,5.1394,5.1394,5.1394,5.1394,5.1394,5.1394,0.0,0.0,5.1394,5.1394,5.1394,5.1394,5.1394,5.1394,5.1394,5.1394,5.1394,5.1394,5.1394,5.1394,5.2058,0.0,0.0,0.0,0.0,0.0,0.0,0.0,0.0,0.0,0.0,5.6601,5.66,5.66,5.6601,5.6601,5.6599,5.6597,5.6592,5.6602,5.6595,5.6608,5.6604,5.6531,5.642,5.6308,0.0,0.0,0.0,5.5946,5.588,5.5836,5.5747,5.5703,5.5703,5.5703,5.5703,5.5703,5.5703,5.5703,5.5703,5.5703,5.5703,5.5703,5.5703,5.5703,5.5703,5.5703,5.5703,5.5703,5.5703,5.5703,5.5703,5.5703,5.5703,5.5703,5.5703,5.5651,5.5629,5.5629,5.5539,5.5456,5.5432,5.5632,5.5963,5.6524,5.6816,5.7294,5.8154,5.8746,5.9191,5.9453,5.9491,5.9739,6.0365,6.0403,6.0466,6.0603,6.0669,6.0841,6.1109,6.124,6.1376,6.1504,6.1573,6.1607,6.1607,6.1607,6.1607,6.1607,6.1607,6.1607,5.1394,5.1394,5.1394,5.1394,5.1394,5.1394,5.1394,5.1394,5.1394,5.1394,5.1394,5.1394,5.1394,5.1394,5.1394,5.1394,5.1394,0.0,5.1394,5.1394,5.2058,0.0,0.0,0.0,0.0,0.0,0.0,0.0,0.0,0.0,0.0,5.6601,5.6601,5.6601,5.6601,5.6601,5.6599,5.6599,5.6595,5.6602,5.6602,5.6596,5.6584,5.6386,5.6292,0.0,0.0,0.0,0.0,5.5887,5.5817,5.5695,5.5703,5.5703,5.5703,5.5703,5.5703,5.5703,5.5703,5.5703,5.5703,5.5703,5.5703,5.5703,5.5703,5.5703,5.5703,5.5703,5.5703,5.5703,5.5703,5.5703,5.5703,5.5703,5.5703,5.5703,5.5703,5.5703,5.5703,5.5703,5.564,5.5573,5.5516,5.6165,5.6677,5.66,5.7332,5.8173,5.8994,5.9076,5.9434,6.0288,6.0403,6.0403,6.0403,6.0403,6.0403,6.0403,6.0578,6.0704,6.0716,6.1092,6.131,6.131,6.1493,6.1607,6.1607,6.1607,6.1607,6.1607,6.1607,6.1607,5.1394,5.1394,5.1394,5.1394,5.1394,5.1394,5.1394,5.1394,5.1394,5.1394,5.1394,5.1394,5.1394,5.1394,5.1394,5.1394,5.1394,0.0,0.0,0.0,0.0,5.3795,0.0,0.0,0.0,0.0,0.0,0.0,0.0,0.0,0.0,5.6556,5.6555,5.6601,5.6601,5.6601,5.6601,5.6598,5.6546,5.645,5.643,5.6344,5.6251,5.6195,0.0,0.0,0.0,0.0,0.0,5.5768,5.5728,5.5703,5.5703,5.5703,5.5703,5.5703,5.5703,5.5703,5.5703,5.5703,5.5703,5.5703,5.5703,5.5703,5.5703,5.5703,5.5703,5.5703,5.5703,5.5703,5.5703,5.5703,5.5703,5.5703,5.5703,5.5703,5.5703,5.5703,5.5703,5.5703,5.5607,5.5527,5.5504,5.6128,5.6824,5.739,5.8192,5.9033,5.9873,5.9988,6.0083,6.037,6.0403,6.0403,6.0403,6.0403,6.0403,6.0403,6.0466,6.0559,6.0692,6.0811,6.102,6.1283,6.135,6.1456,6.1607,6.1607,6.1607,6.1607,6.1607,6.1607,5.1394,5.1394,5.1394,5.1394,5.1394,0.0,5.1394,5.1394,5.1394,5.1394,5.1394,5.1394,5.1394,5.1394,5.1394,5.1394,5.1394,5.1394,0.0,0.0,0.0,5.3795,0.0,0.0,0.0,0.0,0.0,0.0,0.0,0.0,0.0,5.6436,5.6436,5.6484,5.6484,5.6484,5.6484,5.6467,5.6416,5.6324,5.629,5.6206,5.6097,5.6056,0.0,0.0,0.0,0.0,0.0,5.5703,5.5703,5.5703,5.5703,5.5703,5.5703,5.5703,5.5703,5.5703,5.5703,5.5703,5.5703,5.5703,5.5703,5.5703,5.5703,5.5703,5.5703,5.5703,5.5703,5.5703,5.5703,5.5703,5.5703,5.5703,5.5703,5.5703,5.5703,5.5703,5.5703,5.5703,5.5585,5.56,5.5926,5.6601,5.7371,5.823,5.9052,5.9797,6.0332,6.0403,6.0403,6.0403,6.0403,6.0403,6.0403,6.0403,6.0403,6.0403,6.0403,6.0453,6.0578,6.0657,6.083,6.1074,6.1225,6.135,6.1487,6.1568,6.1607,6.1607,6.1607,6.1607,0.0,5.1394,5.1394,5.1394,5.1394,5.1394,5.1394,5.1394,0.0,5.1394,5.1394,5.1394,5.1394,5.1394,5.1394,5.1394,5.1394,5.1394,0.0,5.1511,0.0,0.0,0.0,0.0,0.0,0.0,0.0,0.0,0.0,0.0,0.0,5.6251,5.6299,5.6275,5.627,5.6275,5.6288,5.6222,5.6193,5.6175,5.6185,5.6149,5.6064,5.5946,0.0,0.0,0.0,0.0,0.0,5.5703,5.5703,5.5703,5.5703,5.5703,5.5703,5.5703,5.5703,5.5703,5.5703,5.5703,5.5703,5.5703,5.5703,5.5703,5.5703,5.5703,5.5703,5.5703,5.5703,5.5703,5.5703,5.5703,5.5703,5.5703,5.5703,5.5703,5.5703,5.5703,5.5684,5.5684,5.5623,5.5837,5.6661,5.7449,5.8249,5.8994,5.9835,6.0403,6.0403,6.0403,6.0403,6.0403,6.0403,6.0403,6.0403,6.0403,6.0403,6.0403,6.0403,6.0403,6.0403,6.0565,6.0692,6.0704,6.11,6.131,6.131,6.1498,6.1607,6.1607,6.1607,6.1627,5.1394,0.0,5.1394,5.1394,5.1394,5.1394,0.0,5.1394,5.1394,5.1394,5.1394,5.1394,5.1394,5.1394,5.1394,5.1394,5.1394,5.1394,5.1394,0.0,0.0,0.0,0.0,0.0,0.0,0.0,0.0,0.0,0.0,0.0,0.0,5.6208,5.6181,5.6064,5.6075,5.6128,5.6222,5.6216,5.6116,5.5974,5.5967,5.5915,5.5798,5.5768,0.0,0.0,0.0,0.0,5.5703,5.5703,5.5703,5.5703,5.5703,5.5703,5.5703,5.5703,5.5703,5.5703,5.5703,5.5703,5.5703,5.5703,5.5703,5.5703,5.5703,5.5703,5.5703,5.5703,5.5703,5.5703,5.5703,5.5703,5.5703,5.5703,5.5703,5.5703,5.5703,5.5651,5.5618,5.5618,5.6053,5.6485,5.6696,5.7882,5.8866,5.9057,5.9835,6.0403,6.0403,6.0403,6.0403,6.0403,6.0403,6.0403,6.0403,6.0403,6.0403,6.0403,6.0403,6.0403,6.0403,6.0439,6.0546,6.0704,6.11,6.131,6.131,6.1498,6.1607,6.1607,6.1607,6.1967,5.1297,5.1394,5.1394,5.1394,5.1394,5.1394,5.1394,5.1394,5.1394,5.1394,5.1394,5.1394,5.1394,5.1394,5.1394,5.1394,5.1394,0.0,0.0,0.0,0.0,0.0,0.0,0.0,0.0,0.0,0.0,0.0,0.0,0.0,0.0,5.6052,5.6032,5.5962,5.5923,5.5967,5.6056,5.6036,5.5957,5.5854,5.5827,5.5759,5.5703,5.5703,5.5703,0.0,0.0,0.0,5.5703,5.5703,5.5703,5.5703,5.5703,5.5703,5.5703,5.5703,5.5703,5.5703,5.5703,5.5703,5.5703,5.5703,5.5703,5.5703,5.5703,5.5703,5.5703,5.5703,5.5703,5.5703,5.5703,5.5703,5.5703,5.5703,5.5703,5.5703,5.5703,5.564,5.5596,5.5596,5.6213,5.6824,5.7226,5.829,5.9243,5.9644,6.0102,6.0403,6.0403,6.0403,6.0403,6.0403,6.0403,6.0403,6.0403,6.0403,6.0403,6.0403,6.0403,6.0403,6.0403,6.0403,6.0487,6.0704,6.1011,6.1209,6.131,6.1498,6.1607,6.1607,6.1597,6.2059,5.1004,5.1297,5.1394,5.1394,5.1394,5.1394,5.1394,5.1394,5.1394,5.1394,5.1394,5.1394,5.1394,5.1394,0.0,0.0,0.0,0.0,0.0,0.0,0.0,0.0,0.0,0.0,0.0,0.0,0.0,0.0,0.0,0.0,0.0,5.5865,5.5895,5.5875,5.5826,5.5826,5.5875,5.5816,5.5776,5.5776,5.5735,5.5703,5.5703,5.5703,5.5703,0.0,0.0,0.0,5.5703,5.5703,5.5703,5.5703,5.5703,5.5703,5.5703,5.5703,5.5703,5.5703,5.5703,5.5703,5.5703,5.5703,5.5703,5.5703,5.5703,5.5703,5.5703,5.5703,5.5703,5.5703,5.5703,5.5703,5.5703,5.5703,5.5703,5.5703,5.5692,5.5629,5.5585,5.5573,5.6285,5.7118,5.7864,5.8729,5.9548,6.0288,6.0403,6.0403,6.0403,6.0403,6.0403,6.0403,6.0403,6.0403,6.0403,6.0403,6.0403,6.0403,6.0403,6.0403,6.0403,6.0403,6.0474,6.0645,6.0843,6.1057,6.1255,6.1451,6.1573,6.1607,6.1747,6.227,5.026,5.0848,5.1394,5.1394,5.1394,5.1394,5.1394,5.1394,5.1394,5.1394,5.1394,5.1394,5.1394,5.1394,5.1394,0.0,0.0,0.0,0.0,0.0,0.0,0.0,0.0,0.0,0.0,0.0,0.0,0.0,0.0,0.0,0.0,5.5826,5.5855,5.5735,5.5776,5.5776,5.5735,5.5724,5.5724,5.5724,5.5695,5.5703,5.5703,5.5703,5.5703,0.0,0.0,5.5703,5.5703,5.5703,5.5703,5.5703,5.5703,5.5703,5.5703,5.5703,5.5703,5.5703,5.5703,5.5703,5.5703,5.5703,5.5703,5.5703,5.5703,5.5703,5.5703,5.5703,5.5703,5.5703,5.5703,5.5703,5.5703,5.5703,5.5703,5.5673,5.5618,5.5562,5.5504,5.5444,5.6671,5.7747,5.7881,5.9199,6.0236,6.037,6.0403,6.0403,6.0403,6.0403,6.0403,6.0403,6.0403,6.0403,6.0403,6.0403,6.0403,6.0403,6.0403,6.0403,6.0403,6.0403,6.0417,6.0439,6.0633,6.0852,6.1048,6.1247,6.1439,6.1627,6.2355,6.3175,4.9967,5.0748,5.1394,5.1394,5.1394,5.1394,5.1394,5.1394,5.1394,5.1394,5.1394,5.1394,0.0,0.0,5.1386,5.1297,0.0,0.0,0.0,0.0,0.0,0.0,0.0,0.0,0.0,0.0,0.0,0.0,0.0,0.0,0.0,0.0,5.5756,5.5703,5.5735,5.5735,5.5703,5.5703,5.5703,5.5703,5.5703,5.5703,5.5703,5.5703,5.5703,5.5703,0.0,5.5703,5.5703,5.5703,5.5703,5.5703,5.5703,5.5703,5.5703,5.5703,5.5703,5.5703,5.5703,5.5703,5.5703,5.5703,5.5703,5.5703,5.5703,5.5703,5.5703,5.5703,5.5703,5.5703,5.5703,5.5703,5.5703,5.5703,5.5703,5.5703,5.5651,5.5573,5.5626,5.6069,5.7092,5.8039,5.8479,5.9568,6.0403,6.0403,6.0403,6.0403,6.0403,6.0403,6.0403,6.0403,6.0403,6.0403,6.0403,6.0403,6.0403,6.0403,6.0403,6.0403,6.0403,6.0403,6.0403,6.0403,6.059,6.0742,6.0852,6.1147,6.1583,6.2149,6.2695,6.3654,4.962,5.0575,5.1394,5.1394,5.1394,5.1394,5.1394,5.1394,5.1394,5.1394,5.1394,0.0,0.0,5.1367,0.0,5.1211,0.0,0.0,0.0,0.0,0.0,0.0,0.0,0.0,0.0,0.0,0.0,0.0,0.0,0.0,0.0,0.0,5.5703,5.5703,5.5703,5.5703,5.5703,5.5703,5.5703,5.5703,5.5703,5.5703,5.5703,5.5703,5.5703,5.5703,5.5703,5.5703,5.5703,5.5703,5.5703,5.5703,5.5703,5.5703,5.5703,5.5703,5.5703,5.5703,5.5703,5.5703,5.5703,5.5703,5.5703,5.5703,5.5703,5.5703,5.5703,5.5703,5.5838,5.5953,5.5742,5.5703,5.5703,5.5703,5.5692,5.5682,5.5682,5.5727,5.5979,5.6649,5.7545,5.8383,5.8994,5.9816,6.0403,6.0403,6.0403,6.0403,6.0403,6.0403,6.0403,6.0403,6.0403,6.0403,6.0403,6.0403,6.0403,6.0403,6.0403,6.0403,6.0403,6.0403,6.0403,6.0403,6.0546,6.0645,6.0704,6.107,6.17,6.262,6.3074,6.4082,4.8885,5.0126,5.1394,5.1394,5.1394,5.1394,5.1394,5.1394,5.1394,5.1394,0.0,0.0,0.0,5.1297,5.1207,0.0,0.0,0.0,0.0,0.0,0.0,0.0,0.0,0.0,0.0,0.0,0.0,0.0,0.0,0.0,0.0,0.0,0.0,5.5703,5.5703,5.5703,5.5703,5.5703,5.5703,5.5703,5.5703,5.5703,5.5703,5.5703,5.5703,5.5703,5.5703,5.5703,5.5703,5.5703,5.5703,5.5703,5.5703,5.5703,5.5703,5.5703,5.5703,5.5703,5.5703,5.5703,5.5703,5.5703,5.5703,5.5703,5.5703,5.5703,5.5703,5.5703,5.6291,5.6714,5.5915,5.5703,5.5703,5.5703,5.564,5.5607,5.5607,5.6137,5.6626,5.6703,5.7959,5.9033,5.9076,5.9816,6.0403,6.0403,6.0403,6.0403,6.0403,6.0403,6.0403,6.0403,6.0403,6.0403,6.0403,6.0403,6.0403,6.0403,6.0403,6.0403,6.0403,6.0403,6.0403,6.0403,6.0417,6.0514,6.0704,6.0916,6.1578,6.262,6.3639,6.4606,4.8802,5.0067,5.1394,5.1394,5.1394,5.1394,5.1394,5.1394,5.1394,5.1394,5.1394,0.0,0.0,0.0,0.0,0.0,0.0,0.0,0.0,0.0,0.0,0.0,0.0,0.0,0.0,0.0,0.0,0.0,0.0,0.0,0.0,0.0,0.0,5.5703,5.5703,5.5703,5.5703,5.5703,5.5703,5.5703,5.5703,5.5703,5.5703,5.5703,5.5703,5.5703,5.5703,5.5703,5.5703,5.5703,5.5703,5.5703,5.5703,5.5703,5.5703,5.5703,5.5703,5.5703,5.5703,5.5703,5.5703,5.5703,5.5703,5.5799,5.6349,5.6522,5.6618,5.7165,5.755,5.7607,5.6733,5.6915,5.7308,5.7255,5.724,5.7217,5.7162,5.7327,5.7666,5.8164,5.871,5.9281,5.9816,6.0179,6.0403,6.0403,6.0403,6.0403,6.0403,6.0403,6.0403,6.0403,6.0403,6.0403,6.0403,6.0403,6.0403,6.0403,6.0403,6.0403,6.0403,6.0403,6.0403,6.0403,6.0403,6.0453,6.0578,6.1321,6.2238,6.3311,6.4373,6.5398,4.9134,5.0282,5.1394,5.1394,5.1394,5.1394,5.1394,5.1394,5.1394,5.1394,5.1362,5.13,5.1211,0.0,0.0,0.0,0.0,0.0,0.0,0.0,0.0,0.0,0.0,0.0,0.0,0.0,0.0,0.0,0.0,0.0,0.0,0.0,0.0,0.0,5.5703,5.5703,5.5703,5.5703,5.5703,5.5703,5.5703,5.5703,5.5703,5.5703,5.5703,5.5703,5.5703,5.5703,5.5703,5.5703,5.5703,5.5703,5.5703,5.5703,5.5703,5.5703,5.5703,5.5703,5.5703,5.5703,5.5703,5.5703,5.5703,5.5857,5.6733,5.7003,5.7176,5.805,5.8492,5.855,5.7934,5.803,5.8277,5.822,5.8177,5.816,5.8105,5.8228,5.852,5.9088,5.936,5.9701,6.0307,6.0403,6.0403,6.0403,6.0403,6.0403,6.0403,6.0403,6.0403,6.0403,6.0403,6.0403,6.0403,6.0403,6.0403,6.0403,6.0403,6.0403,6.0403,6.0403,6.0403,6.0431,6.0431,6.0458,6.0539,6.1609,6.2665,6.3732,6.4796,6.5851,4.9861,5.0748,5.1394,5.1394,5.1394,5.1394,5.1394,5.1394,5.1394,5.1394,5.1294,5.1203,5.1199,0.0,0.0,0.0,0.0,0.0,0.0,0.0,0.0,0.0,0.0,0.0,0.0,0.0,0.0,0.0,0.0,0.0,0.0,0.0,0.0,0.0,5.5703,5.5703,5.5703,5.5703,5.5703,5.5703,5.5703,5.5703,5.5703,5.5703,5.5703,5.5703,5.5703,5.5703,5.5703,5.5703,5.5703,5.5703,5.5703,5.5703,5.5703,5.5703,5.5703,5.5703,5.5703,5.5703,5.5703,5.5703,5.5703,5.5876,5.6753,5.7022,5.7214,5.8088,5.8896,5.9511,5.9511,5.8915,5.8296,5.8239,5.8179,5.8131,5.8131,5.8629,5.9123,5.919,5.9852,6.0403,6.0403,6.0403,6.0403,6.0403,6.0403,6.0403,6.0403,6.0403,6.0403,6.0403,6.0403,6.0403,6.0403,6.0403,6.0403,6.0403,6.0403,6.0403,6.0403,6.0403,6.0431,6.0499,6.0499,6.0539,6.0623,6.1695,6.2742,6.3732,6.4816,6.5847,4.9854,5.0748,5.1394,5.1394,0.0,0.0,5.1394,5.1394,5.1394,0.0,5.1294,5.1163,5.1074,0.0,0.0,0.0,0.0,0.0,0.0,0.0,0.0,0.0,0.0,0.0,0.0,0.0,0.0,0.0,0.0,0.0,0.0,0.0,0.0,0.0,5.5703,5.5703,5.5703,5.5703,5.5703,5.5703,5.5703,5.5703,5.5703,5.5703,5.5703,5.5703,5.5703,5.5703,5.5703,5.5703,5.5703,5.5703,5.5703,5.5703,5.5703,5.5703,5.5703,5.5703,5.5703,5.5703,5.5703,5.5703,5.6107,5.6791,5.7646,5.8319,5.8934,5.98,6.0223,6.0404,6.0368,6.0164,5.9967,5.9894,5.9831,5.9785,5.9726,5.9863,6.0021,6.0035,6.0245,6.0403,6.0403,6.0403,6.0403,6.0403,6.0403,6.0403,6.0403,6.0403,6.0403,6.0403,6.0403,6.0403,6.0403,6.0403,6.0403,6.0403,6.0403,6.0403,6.0403,6.0444,6.0485,6.0499,6.0552,6.0911,6.1588,6.2469,6.3522,6.4714,6.56,6.6287,5.0282,5.1004,5.1394,5.1394,5.1394,5.139,5.133,0.0,0.0,0.0,5.1183,5.1064,5.0985,0.0,0.0,0.0,0.0,0.0,0.0,0.0,0.0,0.0,0.0,0.0,0.0,0.0,0.0,0.0,0.0,0.0,0.0,0.0,0.0,0.0,5.5703,5.5703,5.5703,5.5703,5.5703,5.5703,5.5703,5.5703,5.5703,5.5703,5.5703,5.5703,5.5703,5.5703,5.5703,5.5703,5.5703,5.5703,5.5703,5.5703,5.5703,5.5703,5.5703,5.5703,5.5703,5.5703,5.5703,5.5703,5.6049,5.6656,5.7511,5.8357,5.9204,6.005,6.0519,6.0765,6.0697,6.0648,6.0617,6.0578,6.0525,6.0485,6.0417,6.0403,6.0403,6.0403,6.0403,6.0403,6.0403,6.0403,6.0403,6.0403,6.0403,6.0403,6.0403,6.0403,6.0403,6.0403,6.0403,6.0403,6.0403,6.0403,6.0403,6.0403,6.0403,6.0403,6.0431,6.0472,6.0512,6.0539,6.0604,6.1102,6.2028,6.2855,6.3841,6.4995,6.5895,6.6458,5.0945,5.1394,5.1394,5.1394,5.139,0.0,5.1211,5.1183,5.1159,5.1187,0.0,5.0894,0.0,0.0,0.0,0.0,0.0,0.0,0.0,0.0,0.0,0.0,0.0,0.0,0.0,0.0,0.0,0.0,0.0,0.0,0.0,0.0,0.0,0.0,5.5703,5.5703,5.5703,5.5703,5.5703,0.0,5.5703,5.5703,5.5703,5.5703,5.5703,5.5703,5.5703,5.5703,5.5703,5.5703,5.5703,5.5703,5.5703,5.5703,5.5703,5.5703,5.5703,5.5703,5.5703,5.5703,5.5703,5.5684,5.5742,5.5972,5.6742,5.7596,5.8462,5.925,6.0022,6.0589,6.0654,6.0585,6.0499,6.0499,6.0485,6.0472,6.0417,6.0403,6.0403,6.0403,6.0403,6.0403,6.0403,6.0403,6.0403,6.0403,6.0403,6.0403,6.0403,6.0403,6.0403,6.0403,6.0403,6.0403,6.0403,6.0403,6.0403,6.0403,6.0403,6.0431,6.0485,6.0499,6.0539,6.0604,6.066,6.1195,6.2216,6.2935,6.3854,6.4938,6.5868,6.6399,5.1102,5.1394,5.1394,5.1394,5.1325,5.1207,5.1069,5.0991,5.0985,5.1025,5.0959,0.0,0.0,0.0,0.0,0.0,0.0,0.0,0.0,0.0,0.0,0.0,0.0,0.0,0.0,0.0,0.0,0.0,0.0,0.0,0.0,0.0,0.0,5.5703,5.5703,5.5703,5.5703,5.5703,5.5703,0.0,5.5703,5.5703,5.5703,5.5703,5.5703,5.5703,5.5703,5.5703,5.5703,5.5703,5.5703,5.5703,5.5703,5.5703,5.5703,5.5703,5.5703,5.5703,5.5703,5.5703,5.5703,5.5629,5.6079,5.6675,5.6848,5.752,5.8404,5.9211,5.9545,5.9816,6.0386,6.0525,6.0485,6.0431,6.0417,6.0417,6.0403,6.0403,6.0403,6.0403,6.0403,6.0403,6.0403,6.0403,6.0403,6.0403,6.0403,6.0403,6.0403,6.0403,6.0403,6.0403,6.0403,6.0403,6.0403,6.0403,6.0403,6.0403,6.0403,6.0403,6.0417,6.0525,6.0617,6.0692,6.0734,6.1538,6.3051,6.3224,6.4162,6.5837,6.6042,6.6314,5.116,5.1357,5.1291,5.1218,0.0,5.1041,5.0966,5.0875,5.0808,5.084,0.0,0.0,0.0,0.0,0.0,0.0,0.0,0.0,0.0,0.0,0.0,0.0,0.0,0.0,0.0,0.0,0.0,0.0,0.0,0.0,0.0,5.5703,5.5703,5.5703,5.5703,5.5703,5.5703,5.5703,5.5703,5.5703,5.5703,5.5703,5.5703,5.5703,5.5703,5.5703,5.5703,5.5703,5.5703,5.5703,5.5703,5.5703,5.5703,5.5703,5.5703,5.5703,5.5703,5.5703,5.5703,5.5703,5.5692,5.5618,5.5903,5.6268,5.6234,5.6836,5.7623,5.8038,5.8704,5.9383,5.9779,6.0147,6.0444,6.0403,6.0403,6.0403,6.0403,6.0403,6.0403,6.0403,6.0403,6.0403,6.0403,6.0403,6.0403,6.0403,6.0403,6.0403,6.0403,6.0403,6.0403,6.0403,6.0403,6.0403,6.0403,6.0403,6.0403,6.0403,6.0403,6.0431,6.0499,6.0565,6.0617,6.0655,6.0753,6.1435,6.2724,6.3108,6.4027,6.5388,6.5882,6.6185,5.1189,5.1262,5.1137,5.1002,5.0944,0.0,5.0874,5.0775,5.0712,0.0,0.0,0.0,0.0,0.0,0.0,0.0,0.0,0.0,0.0,0.0,0.0,0.0,0.0,0.0,0.0,0.0,0.0,0.0,0.0,0.0,5.5703,5.5703,5.5703,5.5703,5.5703,5.5703,5.5703,5.5703,5.5703,5.5703,5.5703,5.5703,5.5703,5.5703,5.5703,5.5703,5.5703,5.5703,5.5703,5.5703,5.5703,5.5703,5.5703,5.5703,5.5703,5.5703,5.5703,5.5703,5.5703,5.5703,5.5692,5.5607,5.5585,5.5573,5.5504,5.5991,5.6585,5.6738,5.7736,5.8795,5.8935,5.9565,6.0179,6.0179,6.0288,6.0403,6.0403,6.0403,6.0365,6.0198,6.0045,5.9983,5.9983,6.0064,6.0179,6.0179,6.0293,6.0403,6.0403,6.0403,6.0403,6.0403,6.0403,6.0403,6.0403,6.0403,6.0403,6.0403,6.0403,6.0458,6.0578,6.0591,6.0604,6.0617,6.0741,6.1223,6.2101,6.2916,6.3762,6.4609,6.5611,6.6067,5.1236,5.1132,5.1002,0.0,5.091,5.0874,0.0,0.0,5.0712,0.0,0.0,0.0,0.0,0.0,0.0,0.0,0.0,0.0,0.0,0.0,0.0,0.0,0.0,0.0,0.0,0.0,0.0,0.0,0.0,0.0,5.5703,5.5703,5.5703,5.5703,5.5703,5.5703,5.5703,5.5703,5.5703,5.5703,5.5703,5.5703,5.5703,5.5703,5.5703,5.5703,5.5703,5.5703,5.5703,5.5703,5.5703,5.5703,5.5703,5.5703,5.5703,5.5703,5.5703,5.5703,5.5703,5.5703,5.5692,5.5551,5.5516,5.5504,5.5432,5.5497,5.5745,5.6492,5.6875,5.7175,5.7875,5.867,5.9281,5.9281,5.9854,6.0403,6.0403,6.0403,6.0179,5.9415,5.8708,5.823,5.823,5.8803,5.9281,5.9281,5.9911,6.0403,6.0403,6.0403,6.0403,6.0403,6.0403,6.0403,6.0403,6.0403,6.0403,6.0403,6.0403,6.0431,6.0512,6.0565,6.0629,6.0692,6.0765,6.1223,6.2101,6.2916,6.3762,6.4628,6.5512,6.599,5.0939,5.0985,5.0916,0.0,5.0784,5.0776,5.0712,0.0,0.0,0.0,0.0,0.0,0.0,0.0,0.0,0.0,0.0,0.0,0.0,0.0,0.0,0.0,0.0,0.0,0.0,0.0,0.0,0.0,0.0,5.5703,5.5703,5.5703,5.5703,5.5703,5.5703,5.5703,5.5703,5.5703,5.5703,5.5703,5.5703,5.5703,5.5703,5.5703,5.5703,5.5703,5.5703,5.5703,5.5703,5.5703,5.5703,5.5703,5.5703,5.5703,5.5703,5.5703,5.5703,5.5703,5.5703,5.5703,5.5692,5.5539,5.5504,5.548,5.5421,5.5403,5.5479,5.5874,5.6295,5.6735,5.7078,5.7791,5.844,5.844,5.8727,5.8994,5.8994,5.9357,5.9415,5.8593,5.8135,5.7905,5.7905,5.8192,5.844,5.844,5.9147,5.9663,5.9663,6.0102,6.0403,6.0403,6.0403,6.0403,6.0403,6.0403,6.0403,6.0403,6.0431,6.0485,6.0552,6.0629,6.0692,6.0746,6.0788,6.0993,6.1358,6.2224,6.3051,6.3897,6.4762,6.5459,5.0775,5.0882,5.0836,5.0731,5.0712,5.0712,0.0,0.0,0.0,0.0,0.0,0.0,0.0,0.0,0.0,0.0,0.0,0.0,0.0,0.0,0.0,0.0,0.0,0.0,0.0,0.0,0.0,0.0,0.0,5.5703,5.5703,5.5703,5.5703,5.5703,5.5703,5.5703,5.5703,5.5703,5.5703,5.5703,5.5703,5.5703,5.5703,5.5703,5.5703,5.5703,5.5703,5.5703,5.5703,5.5703,5.5703,5.5703,5.5703,5.5703,5.5703,5.5703,5.5703,5.5703,5.5703,5.5703,5.5692,5.5539,5.5504,5.5499,5.5422,5.5403,5.5403,5.5403,5.5823,5.6301,5.6301,5.6931,5.7562,5.7562,5.7734,5.7905,5.7905,5.8211,5.8288,5.7695,5.7409,5.7256,5.7256,5.7428,5.7562,5.7562,5.8268,5.888,5.9057,5.9663,6.0141,6.037,6.0403,6.0403,6.0403,6.0403,6.0403,6.0403,6.0458,6.0525,6.0604,6.066,6.0722,6.08,6.08,6.08,6.08,6.1678,6.2512,6.332,6.4185,6.507,5.092,5.081,0.0,5.0693,5.0712,5.0712,0.0,0.0,0.0,0.0,0.0,0.0,0.0,0.0,0.0,0.0,0.0,0.0,0.0,0.0,0.0,0.0,0.0,0.0,0.0,0.0,0.0,0.0,0.0,5.5703,5.5703,5.5703,5.5703,5.5703,5.5703,5.5703,5.5703,5.5703,5.5703,5.5703,5.5703,5.5703,5.5703,5.5703,5.5703,5.5703,5.5703,5.5703,5.5703,5.5703,5.5703,5.5703,5.5703,5.5703,5.5703,5.5703,5.5703,5.5703,5.5703,5.5703,5.5692,5.5539,5.5504,5.5499,5.5422,5.5403,5.5403,5.5403,5.5441,5.546,5.546,5.6052,5.6664,5.6664,5.7294,5.7905,5.7905,5.7275,5.6721,5.6683,5.6052,5.5536,5.5536,5.6167,5.6664,5.6664,5.7409,5.8249,5.9,5.9133,5.9491,6.0313,6.0403,6.0403,6.0403,6.0403,6.0403,6.0403,6.0458,6.0525,6.0604,6.066,6.0722,6.08,6.08,6.08,6.08,6.1678,6.2512,6.332,6.4185,6.507,0.0,0.0,0.0,5.0712,5.0712,5.0712,5.0712,0.0,0.0,0.0,0.0,0.0,0.0,0.0,0.0,0.0,0.0,0.0,0.0,0.0,0.0,0.0,0.0,0.0,0.0,0.0,0.0,0.0,0.0,0.0,5.4934,5.5415,5.5703,5.5703,5.5703,5.5703,5.5703,5.5703,5.5703,5.5703,5.5703,5.5703,5.5703,5.5703,5.5703,5.5703,5.5703,5.5703,5.5703,5.5703,5.5703,5.5703,5.5703,5.5703,5.5703,5.5703,5.5703,5.5703,5.5703,5.5703,5.5692,5.5539,5.5504,5.5499,5.5422,5.5403,5.5403,5.5403,5.5403,5.5403,5.5403,5.5613,5.5823,5.5823,5.6071,5.6301,5.6301,5.6052,5.5823,5.5823,5.5594,5.5403,5.5403,5.5651,5.5823,5.5823,5.653,5.716,5.7466,5.844,5.9224,5.9529,6.0064,6.0403,6.0403,6.0403,6.0417,6.0458,6.0525,6.0604,6.0648,6.0741,6.0777,6.08,6.08,6.08,6.08,6.1108,6.1704,6.2551,6.3378,6.4224,5.0508,0.0,0.0,0.0,5.0712,5.0712,5.0712,0.0,0.0,0.0,0.0,0.0,0.0,0.0,0.0,0.0,0.0,0.0,0.0,0.0,0.0,0.0,0.0,0.0,0.0,0.0,0.0,0.0,0.0,0.0,5.4472,5.5011,5.5415,5.5684,5.5703,5.5703,5.5703,5.5703,5.5703,5.5703,5.5703,5.5703,5.5703,5.5703,5.5703,5.5703,5.5703,5.5703,5.5703,5.5703,5.5703,5.5703,5.5703,5.5703,5.5703,5.5703,5.5703,5.5703,5.5662,5.5682,5.564,5.5539,5.548,5.5456,5.5396,5.5396,5.5403,5.5403,5.5403,5.5403,5.5403,5.5403,5.5403,5.5403,5.5403,5.5403,5.5403,5.5403,5.5403,5.5403,5.5403,5.5403,5.5403,5.5403,5.5403,5.5403,5.5842,5.6282,5.6581,5.7562,5.8479,5.9038,5.9625,6.0083,6.037,6.0417,6.0444,6.0499,6.0591,6.0648,6.0697,6.0757,6.08,6.08,6.08,6.08,6.08,6.08,6.1243,6.212,6.2647,6.3512,0.0,0.0,0.0,0.0,0.0,0.0,5.0712,0.0,0.0,0.0,0.0,0.0,0.0,0.0,0.0,0.0,0.0,0.0,0.0,0.0,0.0,0.0,0.0,0.0,0.0,0.0,0.0,0.0,0.0,5.353,5.4376,5.4472,5.4857,5.5645,5.5684,5.5703,5.5703,5.5703,5.5703,5.5703,5.5703,5.5703,5.5703,5.5703,5.5703,5.5703,5.5703,5.5703,5.5703,5.5703,5.5703,5.5703,5.5703,5.5703,5.5703,5.5703,5.5703,5.5692,5.5618,5.5596,5.5585,5.5527,5.5456,5.5408,5.5395,5.5396,5.5403,5.5403,5.5403,5.5403,5.5403,5.5403,5.5403,5.5403,5.5403,5.5403,5.5403,5.5403,5.5403,5.5403,5.5403,5.5403,5.5403,5.5403,5.5403,5.5403,5.5403,5.5689,5.6454,5.6587,5.7218,5.8861,5.9057,5.9434,6.0288,6.0439,6.0499,6.0512,6.0642,6.0697,6.0697,6.0777,6.08,6.08,6.08,6.08,6.08,6.08,6.1223,6.2062,6.2101,6.2993,4.9575,0.0,0.0,0.0,0.0,0.0,0.0,0.0,0.0,0.0,0.0,0.0,0.0,0.0,0.0,0.0,0.0,0.0,0.0,0.0,0.0,0.0,0.0,0.0,0.0,0.0,0.0,0.0,5.1798,5.2365,5.2596,5.3818,5.4607,5.4818,5.5395,5.5703,5.5703,5.5703,5.5703,5.5703,5.5703,5.5703,5.5703,5.5703,5.5703,5.5703,5.5703,5.5703,5.5703,5.5703,5.5703,5.5703,5.566,5.5618,5.5618,5.5618,5.5618,5.5629,5.5651,5.5662,5.5651,5.5539,5.5492,5.5456,5.5415,5.5396,5.5403,5.5403,5.5403,5.5403,5.5403,5.5403,5.5403,5.5403,5.5403,5.5403,5.5403,5.5403,5.5403,5.5403,5.5403,5.5403,5.5403,5.5403,5.5403,5.5403,5.5403,5.5479,5.5708,5.6243,5.6778,5.7237,5.8383,5.9218,5.9515,6.0122,6.0552,6.0635,6.0673,6.071,6.0777,6.08,6.08,6.08,6.08,6.08,6.08,6.08,6.0916,6.1166,6.1812,6.2993,0.0,0.0,0.0,0.0,0.0,0.0,5.0712,5.0712,0.0,0.0,0.0,0.0,0.0,0.0,0.0,0.0,0.0,0.0,0.0,0.0,0.0,0.0,0.0,0.0,0.0,0.0,0.0,5.0712,5.1125,5.1548,5.1885,5.3222,5.3953,5.3953,5.4761,5.5203,5.5203,5.553,5.5703,5.5703,5.5703,5.5703,5.5703,5.5703,5.5703,5.5703,5.5703,5.5703,5.5703,5.5703,5.5703,5.5684,5.5618,5.5596,5.5596,5.5562,5.5562,5.5562,5.5596,5.5607,5.5607,5.5562,5.5504,5.5456,5.5446,5.5422,5.5403,5.5403,5.5403,5.5403,5.5403,5.5403,5.5403,5.5403,5.5403,5.5403,5.5403,5.5403,5.5403,5.5403,5.5403,5.5403,5.5403,5.5403,5.5403,5.5403,5.5403,5.5403,5.5403,5.5804,5.6257,5.6626,5.7564,5.8438,5.9179,5.9722,6.0227,6.0666,6.0741,6.0765,6.08,6.08,6.08,6.08,6.08,6.08,6.08,6.08,6.08,6.0819,6.1697,6.262,0.0,0.0,0.0,0.0,0.0,0.0,5.0673,5.0712,5.0712,0.0,0.0,0.0,0.0,0.0,0.0,0.0,0.0,0.0,0.0,0.0,0.0,0.0,0.0,0.0,0.0,5.0712,5.0712,5.0712,5.0712,5.101,5.1731,5.2587,5.3068,5.3068,5.3895,5.4395,5.4491,5.5203,5.5607,5.5703,5.5703,5.5703,5.5703,5.5703,5.5703,5.5692,5.5692,5.5692,5.5692,5.5692,5.5684,5.5684,5.5618,5.5596,5.5585,5.5527,5.5492,5.5492,5.5504,5.5504,5.5516,5.5573,5.5504,5.542,5.548,5.5446,5.5403,5.5403,5.5403,5.5403,5.5403,5.5403,5.5403,5.5403,5.5403,5.5403,5.5403,5.5403,5.5403,5.5403,5.5403,5.5403,5.5403,5.5403,5.5403,5.5403,5.5396,5.539,5.5408,5.542,5.5719,5.6566,5.6738,5.7409,5.8917,5.9266,5.9737,6.0505,6.0719,6.08,6.08,6.08,6.08,6.08,6.08,6.08,6.08,6.08,6.08,6.0819,6.1601,6.2005,0.0,0.0,0.0,0.0,0.0,0.0,5.0539,5.0712,5.0712,0.0,0.0,0.0,0.0,0.0,0.0,0.0,0.0,0.0,0.0,0.0,0.0,0.0,0.0,0.0,0.0,5.0712,5.0712,5.0712,5.0712,5.077,5.0933,5.1722,5.2154,5.2154,5.301,5.3799,5.4491,5.4664,5.5049,5.5703,5.5703,5.5703,5.5703,5.5703,5.5662,5.5618,5.5618,5.5618,5.5618,5.5618,5.564,5.5684,5.5618,5.5562,5.5516,5.5504,5.5468,5.5432,5.548,5.5539,5.5573,5.5527,5.5504,5.5468,5.5432,5.5409,5.5403,5.5403,5.5403,5.5403,5.5403,5.5403,5.5403,5.5403,5.5403,5.5403,5.5403,5.5403,5.5403,5.5403,5.5403,5.5403,5.5403,5.5403,5.5396,5.539,5.5402,5.5427,5.5468,5.548,5.555,5.5734,5.6374,5.6954,5.7339,5.863,5.9499,5.9719,6.0396,6.08,6.08,6.08,6.08,6.08,6.08,6.08,6.08,6.08,6.08,6.08,6.0973,6.1416,0.0,0.0,0.0,4.8547,0.0,0.0,0.0,5.0385,5.0712,5.0712,0.0,0.0,0.0,0.0,0.0,0.0,0.0,0.0,0.0,0.0,0.0,0.0,0.0,0.0,0.0,5.0712,5.0712,5.0712,5.0712,5.0712,5.0712,5.1087,5.1298,5.1298,5.2106,5.275,5.3203,5.3626,5.426,5.5107,5.5107,5.5299,5.5703,5.5703,5.5673,5.564,5.5607,5.5596,5.5596,5.5562,5.5585,5.564,5.5573,5.5527,5.5492,5.547,5.544,5.5396,5.5451,5.5468,5.5504,5.5504,5.5504,5.5492,5.542,5.5396,5.5403,5.5403,5.5403,5.5403,5.5403,5.5403,5.5403,5.5403,5.5403,5.5403,5.5403,5.5403,5.5403,5.5403,5.5409,5.5403,5.5403,5.5409,5.5409,5.5395,5.5432,5.548,5.5539,5.5551,5.5562,5.5596,5.5999,5.6433,5.6909,5.7728,5.8573,5.9454,5.9915,6.0339,6.0781,6.08,6.08,6.08,6.08,6.08,6.08,6.08,6.08,6.08,6.08,6.1031,0.0,0.0,0.0,0.0,0.0,4.899,0.0,0.0,0.0,5.0673,0.0,0.0,0.0,0.0,0.0,0.0,0.0,0.0,0.0,0.0,0.0,0.0,0.0,0.0,0.0,5.0712,5.0712,5.0712,5.0712,5.0712,5.0712,5.0712,5.0712,5.0712,5.1337,5.1731,5.1904,5.2596,5.3395,5.4241,5.4414,5.4838,5.5472,5.5626,5.5692,5.5671,5.5596,5.5573,5.5562,5.5504,5.5516,5.5573,5.5539,5.5516,5.5492,5.544,5.5396,5.5403,5.5409,5.5395,5.5408,5.5468,5.5492,5.5492,5.5427,5.5396,5.5396,5.5403,5.5403,5.5403,5.5396,5.5403,5.5403,5.5396,5.5396,5.5396,5.5396,5.5396,5.5396,5.5396,5.5396,5.5409,5.5409,5.5421,5.5432,5.5444,5.548,5.5539,5.5607,5.5618,5.5629,5.5684,5.5703,5.5972,5.6695,5.6907,5.758,5.8934,5.9184,5.9646,6.0512,6.0704,6.08,6.08,6.08,6.08,6.08,6.08,6.08,6.08,6.08,6.08,0.0,0.0,0.0,0.0,4.7096,0.0,0.0,0.0,4.976,5.0539,0.0,0.0,0.0,0.0,0.0,0.0,0.0,0.0,0.0,0.0,0.0,0.0,0.0,0.0,0.0,0.0,5.0712,5.0712,5.0712,5.0712,5.0712,5.0712,5.0712,5.0712,5.0789,5.1183,5.1885,5.2,5.2481,5.3356,5.4126,5.4549,5.4664,5.5376,5.5649,5.5527,5.5516,5.548,5.542,5.542,5.5456,5.5516,5.5562,5.5551,5.5504,5.548,5.5446,5.5403,5.5403,5.5396,5.5408,5.5408,5.5456,5.5499,5.5415,5.5403,5.5402,5.5396,5.5403,5.5396,5.539,5.5403,5.5396,5.539,5.5395,5.5395,5.5395,5.5395,5.5395,5.5395,5.5403,5.5409,5.5402,5.5444,5.5504,5.5562,5.5585,5.5607,5.5692,5.5692,5.5703,5.5703,5.5703,5.5742,5.5838,5.656,5.708,5.7272,5.8011,5.88,5.9608,6.0396,6.08,6.08,6.08,6.08,6.08,6.08,6.08,6.08,6.08,6.08,0.0,0.0,0.0,0.0,0.0,0.0,0.0,0.0,4.8759,0.0,0.0,0.0,0.0,0.0,0.0,0.0,0.0,0.0,0.0,0.0,0.0,0.0,0.0,0.0,0.0,0.0,0.0,0.0,0.0,5.0712,5.0712,5.0712,5.0712,5.0712,5.0712,5.0856,5.1202,5.1202,5.1625,5.2442,5.2818,5.326,5.376,5.4107,5.4199,5.4123,5.4058,5.43,5.47,5.465,5.4962,5.5444,5.5468,5.5468,5.5444,5.5446,5.5422,5.5403,5.5403,5.5396,5.5403,5.5395,5.5415,5.5453,5.5446,5.5427,5.5395,5.5409,5.5434,5.5458,5.5408,5.5427,5.547,5.5456,5.5432,5.5408,5.5408,5.539,5.5403,5.5403,5.5421,5.547,5.5456,5.548,5.5527,5.5585,5.5629,5.5682,5.5703,5.5703,5.5703,5.5703,5.5703,5.5703,5.5703,5.603,5.6464,5.6964,5.7819,5.8665,5.9473,5.9858,6.0281,6.0781,6.08,6.08,6.08,6.08,6.08,6.08,6.08,6.08,4.6138,0.0,0.0,0.0,0.0,0.0,0.0,0.0,0.0,0.0,0.0,0.0,0.0,0.0,0.0,0.0,0.0,0.0,0.0,0.0,0.0,0.0,0.0,0.0,0.0,0.0,0.0,5.0712,5.0712,5.0712,5.0712,5.0712,5.0712,5.0712,5.0712,5.0712,5.0712,5.0712,5.0991,5.1568,5.1788,5.2231,5.2856,5.3087,5.3142,5.3078,5.3015,5.3311,5.3814,5.3765,5.4262,5.5039,5.5039,5.5179,5.5409,5.5403,5.5396,5.5403,5.5403,5.5403,5.5403,5.5396,5.5396,5.5403,5.5458,5.5451,5.5395,5.5402,5.5439,5.5468,5.542,5.5444,5.5468,5.5468,5.5444,5.5408,5.5408,5.5409,5.5409,5.5415,5.5439,5.548,5.5527,5.5539,5.5573,5.5618,5.5682,5.5703,5.5703,5.5703,5.5703,5.5703,5.5703,5.5703,5.5703,5.5703,5.5972,5.6599,5.7453,5.8204,5.8781,5.905,5.9569,6.0435,6.0435,6.055,6.08,6.08,6.08,6.08,6.08,6.08,0.0,0.0,0.0,4.5925,0.0,0.0,0.0,0.0,4.7154,0.0,0.0,0.0,0.0,0.0,0.0,0.0,0.0,0.0,0.0,0.0,0.0,0.0,0.0,0.0,0.0,0.0,0.0,5.0712,5.0712,5.0712,5.0712,5.0712,5.0712,5.0712,5.0712,5.0712,5.0712,5.0712,5.0712,5.075,5.1529,5.1904,5.1962,5.2818,5.3121,5.2992,5.2992,5.2943,5.2836,5.2843,5.3359,5.4142,5.4142,5.4658,5.5403,5.539,5.5396,5.5403,5.5403,5.5403,5.5403,5.5403,5.5403,5.5402,5.5409,5.5396,5.5402,5.5396,5.5396,5.5408,5.5408,5.5408,5.5408,5.5408,5.5408,5.5408,5.5408,5.5395,5.542,5.548,5.5444,5.5444,5.5573,5.564,5.5684,5.5703,5.5703,5.5703,5.5703,5.5703,5.5703,5.5703,5.5703,5.5703,5.5703,5.5703,5.5703,5.5742,5.656,5.706,5.708,5.7896,5.8723,5.9531,5.955,5.9954,6.08,6.08,6.08,6.08,6.08,6.08,0.0,0.0,4.6095,4.6045,0.0,0.0,0.0,0.0,0.0,0.0,0.0,0.0,0.0,0.0,0.0,0.0,0.0,0.0,0.0,0.0,0.0,0.0,0.0,0.0,0.0,0.0,0.0,5.0712,5.0712,5.0712,0.0,5.0712,5.0712,5.0712,5.0712,5.0712,5.0712,5.0712,5.0712,5.0712,5.0971,5.1106,5.1125,5.1414,5.1489,5.1416,5.1365,5.1625,5.2062,5.2014,5.2499,5.3244,5.3244,5.376,5.46,5.5199,5.5396,5.5403,5.5403,5.5403,5.5403,5.5403,5.5396,5.5403,5.5396,5.5402,5.5395,5.539,5.5439,5.5456,5.542,5.5432,5.548,5.5527,5.5504,5.548,5.5527,5.5504,5.5468,5.5492,5.5516,5.5551,5.5585,5.5671,5.5703,5.5703,5.5703,5.5703,5.5703,5.5703,5.5703,5.5703,5.5703,5.5703,5.5703,5.5703,5.5703,5.5703,5.5972,5.6406,5.6983,5.728,5.8088,5.9473,5.9492,5.9935,6.08,6.08,6.08,6.08,6.0846,6.0835,4.63,4.624,0.0,4.6176,4.6064,0.0,4.5978,0.0,0.0,0.0,0.0,0.0,0.0,0.0,0.0,0.0,0.0,0.0,0.0,5.0144,0.0,0.0,0.0,0.0,0.0,0.0,5.0712,5.0712,5.0712,5.0712,0.0,0.0,5.0712,5.0712,5.0712,5.0712,5.0712,5.0712,5.0712,5.0712,5.0712,5.0712,5.0712,5.0682,5.0623,5.0572,5.0489,5.0741,5.1201,5.1178,5.1651,5.2384,5.2389,5.2905,5.3741,5.4619,5.5135,5.5403,5.5403,5.5403,5.5403,5.5403,5.5403,5.5403,5.5396,5.5409,5.5409,5.5409,5.5439,5.5456,5.5402,5.5451,5.5504,5.5527,5.5516,5.5516,5.5551,5.5527,5.5504,5.5527,5.5573,5.5607,5.5629,5.5662,5.5703,5.5703,5.5703,5.5703,5.5703,5.5703,5.5703,5.5703,5.5703,5.5703,5.5703,5.5703,5.5703,5.5703,5.5724,5.5985,5.6554,5.6603,5.7268,5.8644,5.8682,5.9241,6.0407,6.0407,6.058,6.0869,6.0922,6.0922]}]]